[[{"header":{"parameterUnit":"m.s-1","parameterCategory":1,"la1":30.6,"la2":29.2853,"lo1":-89.7004,"lo2":-87.6739,"dy":0.0162,"dx":0.0183,"nx":112,"ny":82,"refTime":"2026-04-18T12:00:00:Z","depth":0,"parameterNumber":2,"parameterNumberName":"U-component_of_WINDS"},"data":[0.0,0.0,0.0,0.0,0.0,0.0,0.0,0.0,0.0,0.0,0.0,0.0,0.0,0.0,0.0,0.0,0.0,0.0,0.0,0.0,0.0,0.0,0.0,0.0,0.0,0.0,0.0,0.0,0.0,0.0,0.0,0.0,0.0,0.0,0.0,0.0,0.0,0.0,0.0,0.0,0.0,0.0,0.0,0.0,0.0,0.0,0.0,0.0,0.0,0.0,0.0,0.0,0.0,0.0,0.0,0.0,0.0,0.0,0.0,0.0,0.0,0.0,0.0,0.0,0.0,0.0,0.0,0.0,0.0,0.0,0.0,0.0,0.0,0.0,0.0,0.0,0.0,0.0,0.0,0.0,0.0,0.0,0.0,0.0,0.0,0.0,0.0,0.0,0.0,0.0,-3.6753,-3.7528,-3.8274,-3.869,-3.858,-3.7962,-3.6724,-3.4653,0.0,0.0,0.0,0.0,0.0,0.0,0.0,0.0,0.0,0.0,0.0,0.0,0.0,0.0,0.0,0.0,0.0,0.0,0.0,0.0,0.0,0.0,0.0,0.0,0.0,0.0,0.0,0.0,0.0,0.0,0.0,0.0,0.0,0.0,0.0,0.0,0.0,0.0,0.0,0.0,0.0,0.0,0.0,0.0,0.0,0.0,0.0,0.0,0.0,0.0,0.0,0.0,0.0,0.0,0.0,0.0,0.0,0.0,0.0,0.0,0.0,0.0,0.0,0.0,0.0,0.0,0.0,0.0,0.0,0.0,0.0,0.0,0.0,0.0,0.0,0.0,0.0,0.0,0.0,0.0,0.0,0.0,0.0,0.0,0.0,0.0,0.0,0.0,0.0,0.0,0.0,0.0,0.0,0.0,0.0,0.0,0.0,0.0,0.0,0.0,0.0,0.0,0.0,0.0,-3.5943,-3.6691,-3.7499,-3.7674,-3.7024,-3.6843,-3.589,-3.3819,0.0,0.0,0.0,0.0,0.0,0.0,0.0,0.0,0.0,0.0,0.0,0.0,0.0,0.0,0.0,0.0,0.0,0.0,0.0,0.0,0.0,0.0,0.0,0.0,0.0,0.0,0.0,0.0,0.0,0.0,0.0,0.0,0.0,0.0,0.0,0.0,0.0,0.0,0.0,0.0,0.0,0.0,0.0,0.0,0.0,0.0,0.0,0.0,0.0,0.0,0.0,0.0,0.0,0.0,0.0,0.0,0.0,0.0,0.0,0.0,0.0,0.0,0.0,0.0,0.0,0.0,0.0,0.0,0.0,0.0,0.0,0.0,0.0,0.0,0.0,0.0,0.0,0.0,0.0,0.0,0.0,0.0,0.0,0.0,0.0,0.0,0.0,0.0,0.0,0.0,0.0,0.0,0.0,0.0,0.0,0.0,0.0,0.0,0.0,0.0,0.0,0.0,0.0,-3.5519,-3.5782,-3.6538,-3.6934,-3.6994,-3.663,-3.66,-3.5861,-3.4145,-3.4951,0.0,0.0,0.0,0.0,0.0,0.0,0.0,0.0,0.0,0.0,0.0,0.0,0.0,0.0,0.0,0.0,0.0,0.0,0.0,0.0,0.0,0.0,0.0,0.0,0.0,0.0,0.0,0.0,0.0,0.0,0.0,0.0,0.0,0.0,0.0,0.0,0.0,0.0,0.0,0.0,0.0,0.0,0.0,0.0,0.0,0.0,0.0,0.0,0.0,0.0,0.0,0.0,0.0,0.0,0.0,0.0,0.0,0.0,0.0,0.0,0.0,0.0,0.0,0.0,0.0,0.0,0.0,0.0,0.0,0.0,0.0,0.0,0.0,0.0,0.0,0.0,0.0,0.0,0.0,0.0,0.0,0.0,0.0,0.0,0.0,0.0,0.0,0.0,0.0,0.0,0.0,0.0,0.0,0.0,0.0,0.0,0.0,0.0,0.0,0.0,0.0,0.0,-3.5519,-3.5718,-3.6259,-3.6322,-3.6322,-3.6322,-3.6322,-3.5827,-3.4565,-3.513,0.0,0.0,0.0,0.0,0.0,0.0,0.0,0.0,0.0,0.0,0.0,0.0,0.0,0.0,0.0,0.0,0.0,0.0,0.0,0.0,0.0,0.0,0.0,0.0,0.0,0.0,0.0,0.0,0.0,0.0,0.0,0.0,0.0,0.0,0.0,0.0,0.0,0.0,0.0,0.0,0.0,0.0,0.0,0.0,0.0,0.0,0.0,0.0,0.0,0.0,0.0,0.0,0.0,0.0,0.0,0.0,0.0,0.0,0.0,0.0,0.0,0.0,0.0,0.0,0.0,0.0,0.0,0.0,0.0,0.0,0.0,0.0,0.0,0.0,0.0,0.0,0.0,0.0,0.0,0.0,0.0,0.0,0.0,0.0,0.0,0.0,0.0,0.0,0.0,0.0,0.0,0.0,0.0,0.0,0.0,0.0,0.0,0.0,0.0,0.0,0.0,0.0,-3.5519,-3.5522,-3.5554,-3.5587,-3.5587,-3.5587,-3.5587,-3.5254,-3.4563,-3.513,0.0,0.0,0.0,0.0,0.0,0.0,0.0,0.0,0.0,0.0,0.0,0.0,0.0,0.0,0.0,0.0,0.0,0.0,0.0,0.0,0.0,0.0,0.0,0.0,0.0,0.0,0.0,0.0,0.0,0.0,0.0,0.0,0.0,0.0,0.0,0.0,0.0,0.0,0.0,0.0,0.0,0.0,0.0,0.0,0.0,0.0,0.0,0.0,0.0,0.0,0.0,0.0,0.0,0.0,0.0,0.0,0.0,0.0,0.0,0.0,0.0,0.0,0.0,0.0,0.0,0.0,0.0,0.0,0.0,0.0,0.0,0.0,0.0,0.0,0.0,0.0,0.0,0.0,0.0,0.0,0.0,0.0,0.0,0.0,0.0,0.0,0.0,0.0,0.0,0.0,0.0,0.0,0.0,0.0,0.0,0.0,0.0,0.0,0.0,0.0,0.0,0.0,-3.5519,-3.5519,-3.5519,-3.5519,-3.5519,-3.5519,-3.5519,-3.54,-3.513,0.0,0.0,0.0,0.0,0.0,0.0,0.0,0.0,0.0,0.0,0.0,0.0,0.0,0.0,0.0,0.0,0.0,0.0,0.0,0.0,0.0,0.0,0.0,0.0,0.0,0.0,0.0,0.0,0.0,0.0,0.0,0.0,0.0,0.0,0.0,0.0,0.0,0.0,0.0,0.0,0.0,0.0,0.0,0.0,0.0,0.0,0.0,0.0,0.0,0.0,0.0,0.0,0.0,0.0,0.0,0.0,0.0,0.0,0.0,0.0,0.0,0.0,0.0,0.0,0.0,0.0,0.0,0.0,0.0,0.0,0.0,0.0,0.0,0.0,0.0,0.0,0.0,0.0,0.0,0.0,0.0,0.0,0.0,0.0,0.0,0.0,0.0,0.0,0.0,0.0,0.0,0.0,0.0,0.0,0.0,0.0,0.0,0.0,0.0,0.0,0.0,0.0,-3.5519,-3.5519,-3.5579,-3.5789,-3.5818,-3.5878,-3.6088,-3.5938,-3.5729,-3.5519,0.0,0.0,0.0,0.0,0.0,0.0,0.0,0.0,0.0,0.0,0.0,0.0,0.0,0.0,0.0,0.0,0.0,0.0,0.0,0.0,0.0,0.0,0.0,0.0,0.0,0.0,0.0,0.0,0.0,0.0,0.0,0.0,0.0,0.0,0.0,0.0,0.0,0.0,0.0,0.0,0.0,0.0,0.0,0.0,0.0,0.0,0.0,0.0,0.0,0.0,0.0,0.0,0.0,0.0,0.0,0.0,0.0,0.0,0.0,0.0,0.0,0.0,0.0,0.0,0.0,0.0,0.0,0.0,0.0,0.0,0.0,0.0,0.0,0.0,0.0,0.0,0.0,0.0,0.0,0.0,0.0,0.0,0.0,0.0,0.0,0.0,0.0,0.0,0.0,0.0,0.0,0.0,0.0,0.0,0.0,0.0,0.0,0.0,0.0,0.0,0.0,0.0,-3.5519,-3.5519,-3.5759,-3.6417,-3.6507,-3.6746,-3.7345,-3.6836,-3.6207,0.0,0.0,0.0,0.0,0.0,0.0,0.0,0.0,0.0,0.0,0.0,0.0,0.0,0.0,0.0,0.0,0.0,0.0,0.0,0.0,0.0,0.0,0.0,0.0,0.0,0.0,0.0,0.0,0.0,0.0,0.0,0.0,0.0,0.0,0.0,0.0,0.0,0.0,0.0,0.0,0.0,0.0,0.0,0.0,0.0,0.0,0.0,0.0,0.0,0.0,0.0,0.0,0.0,0.0,0.0,0.0,0.0,0.0,0.0,0.0,0.0,0.0,0.0,0.0,0.0,0.0,0.0,0.0,0.0,0.0,0.0,0.0,0.0,0.0,0.0,0.0,0.0,0.0,0.0,0.0,0.0,0.0,0.0,0.0,0.0,0.0,0.0,0.0,0.0,0.0,0.0,0.0,0.0,0.0,0.0,0.0,0.0,0.0,0.0,0.0,0.0,0.0,0.0,-3.6111,-3.5962,-3.6142,-3.7037,-3.7135,-3.7225,-3.7404,-3.6836,-3.6207,-3.5549,0.0,0.0,0.0,0.0,0.0,0.0,0.0,0.0,0.0,0.0,0.0,0.0,0.0,0.0,0.0,0.0,0.0,0.0,0.0,0.0,0.0,0.0,0.0,0.0,0.0,0.0,0.0,0.0,0.0,0.0,0.0,0.0,0.0,0.0,0.0,0.0,0.0,0.0,0.0,0.0,0.0,0.0,0.0,0.0,0.0,0.0,0.0,0.0,0.0,0.0,0.0,0.0,0.0,0.0,0.0,0.0,0.0,0.0,0.0,0.0,0.0,0.0,0.0,0.0,0.0,0.0,0.0,0.0,0.0,0.0,0.0,0.0,0.0,0.0,0.0,0.0,0.0,0.0,0.0,0.0,0.0,0.0,0.0,0.0,0.0,0.0,0.0,0.0,0.0,0.0,0.0,0.0,0.0,0.0,0.0,0.0,0.0,0.0,0.0,0.0,0.0,0.0,-3.5166,-3.5253,-3.5593,-3.6469,-3.657,-3.6657,-3.6889,-3.6367,-3.5642,-3.4708,0.0,0.0,0.0,0.0,0.0,0.0,0.0,0.0,0.0,0.0,0.0,0.0,0.0,0.0,0.0,0.0,0.0,0.0,0.0,0.0,0.0,0.0,0.0,0.0,0.0,0.0,0.0,0.0,0.0,0.0,0.0,0.0,0.0,0.0,0.0,0.0,0.0,0.0,0.0,0.0,0.0,0.0,0.0,0.0,0.0,0.0,0.0,0.0,0.0,0.0,0.0,0.0,0.0,0.0,0.0,0.0,0.0,0.0,0.0,0.0,0.0,0.0,0.0,0.0,0.0,0.0,0.0,0.0,0.0,0.0,0.0,0.0,0.0,0.0,0.0,0.0,0.0,0.0,0.0,0.0,0.0,0.0,0.0,0.0,0.0,0.0,0.0,0.0,0.0,0.0,0.0,0.0,0.0,0.0,0.0,0.0,0.0,0.0,0.0,0.0,0.0,0.0,-3.3477,-3.4008,-3.4602,-3.5306,-3.5399,-3.5593,-3.6156,-3.5648,-3.4754,-3.3477,0.0,0.0,0.0,0.0,0.0,0.0,0.0,0.0,0.0,0.0,0.0,0.0,0.0,0.0,0.0,0.0,0.0,0.0,0.0,0.0,0.0,0.0,0.0,0.0,0.0,0.0,0.0,0.0,0.0,0.0,0.0,0.0,0.0,0.0,0.0,0.0,0.0,0.0,0.0,0.0,0.0,0.0,0.0,0.0,0.0,0.0,0.0,0.0,0.0,0.0,0.0,0.0,0.0,0.0,0.0,0.0,0.0,0.0,0.0,0.0,-3.5923,-3.4962,0.0,0.0,0.0,0.0,0.0,0.0,0.0,0.0,0.0,0.0,0.0,0.0,0.0,0.0,0.0,0.0,0.0,0.0,0.0,0.0,0.0,0.0,0.0,0.0,0.0,0.0,0.0,0.0,0.0,0.0,0.0,0.0,0.0,0.0,0.0,0.0,0.0,0.0,0.0,0.0,-3.4111,-3.4453,-3.4955,-3.59,-3.6018,-3.6073,-3.6184,-3.5648,-3.4754,-3.3477,-3.2889,0.0,0.0,0.0,0.0,0.0,0.0,0.0,0.0,0.0,0.0,0.0,0.0,0.0,0.0,0.0,0.0,0.0,0.0,0.0,0.0,0.0,0.0,0.0,0.0,0.0,0.0,0.0,0.0,0.0,0.0,0.0,0.0,0.0,0.0,0.0,0.0,0.0,0.0,0.0,0.0,0.0,0.0,0.0,0.0,0.0,0.0,0.0,0.0,0.0,0.0,0.0,0.0,0.0,0.0,0.0,0.0,0.0,0.0,0.0,-3.7688,-3.6511,0.0,0.0,0.0,0.0,0.0,0.0,0.0,0.0,0.0,0.0,0.0,0.0,0.0,0.0,0.0,0.0,0.0,0.0,0.0,0.0,0.0,0.0,0.0,0.0,0.0,0.0,0.0,0.0,0.0,0.0,0.0,0.0,0.0,0.0,0.0,0.0,0.0,0.0,0.0,0.0,-3.3238,-3.3908,-3.451,-3.5073,-3.5088,-3.4982,-3.4733,-3.4427,-3.3832,-3.2896,-3.209,0.0,0.0,0.0,0.0,0.0,0.0,0.0,0.0,0.0,0.0,0.0,0.0,0.0,0.0,0.0,0.0,0.0,0.0,0.0,0.0,0.0,0.0,0.0,0.0,0.0,0.0,0.0,0.0,0.0,0.0,0.0,0.0,0.0,0.0,0.0,0.0,0.0,0.0,0.0,0.0,0.0,0.0,0.0,0.0,0.0,0.0,0.0,0.0,0.0,0.0,0.0,0.0,0.0,-4.1551,-4.1852,-4.1852,-4.1852,-4.1852,-4.1752,-3.9848,-3.8793,-3.8366,-3.7462,0.0,0.0,0.0,0.0,0.0,0.0,0.0,0.0,0.0,0.0,0.0,0.0,0.0,0.0,0.0,0.0,0.0,0.0,0.0,0.0,0.0,0.0,-3.3896,-3.385,-3.4121,-3.3973,-3.2523,0.0,0.0,0.0,0.0,0.0,0.0,0.0,0.0,0.0,0.0,0.0,-3.2265,-3.3269,-3.3947,-3.4022,-3.4048,-3.3847,-3.3395,-3.337,-3.3068,-3.2416,-3.1436,-3.0608,0.0,0.0,0.0,0.0,0.0,0.0,0.0,0.0,0.0,0.0,0.0,0.0,0.0,0.0,0.0,0.0,0.0,0.0,0.0,0.0,0.0,0.0,0.0,0.0,0.0,0.0,0.0,0.0,0.0,0.0,0.0,0.0,-3.9094,-3.8115,0.0,0.0,0.0,0.0,0.0,0.0,0.0,0.0,0.0,0.0,0.0,0.0,0.0,-4.0576,-4.1075,-4.2133,-4.266,-4.266,-4.3689,-4.4134,-4.4134,-4.4134,-4.4134,-4.4141,-4.3363,0.0,-4.0174,-4.0023,0.0,0.0,0.0,0.0,0.0,0.0,0.0,0.0,0.0,0.0,0.0,0.0,0.0,0.0,0.0,0.0,0.0,0.0,0.0,0.0,0.0,0.0,-3.3782,-3.3679,-3.3458,-3.3027,-3.2343,-3.2667,-3.2867,-3.2139,-3.2064,-3.1763,0.0,0.0,0.0,0.0,0.0,0.0,-3.2817,-3.352,-3.4073,-3.453,-3.458,-3.4575,-3.45,-3.45,-3.4073,-3.3043,-3.2365,-3.1562,-3.0557,-2.9389,0.0,0.0,0.0,0.0,0.0,0.0,0.0,0.0,0.0,0.0,0.0,0.0,0.0,0.0,0.0,0.0,0.0,0.0,0.0,0.0,0.0,0.0,0.0,0.0,0.0,0.0,0.0,0.0,0.0,-4.0174,-4.0551,-3.912,-4.0425,-4.0576,0.0,0.0,0.0,0.0,0.0,0.0,0.0,0.0,0.0,-3.9322,-3.9369,-3.9802,-4.0598,-4.1469,-4.1764,-4.1482,-4.2296,-4.2673,-4.2673,-4.2673,-4.2673,-4.265,-4.2107,-4.1129,-4.0067,-4.0695,-3.9826,-3.8087,0.0,0.0,0.0,0.0,-3.4011,-3.3811,-3.4294,-3.3946,-3.3249,-3.3218,0.0,0.0,0.0,0.0,0.0,0.0,0.0,-3.2244,-3.2269,-3.2565,-3.2967,-3.3287,-3.2974,-3.2549,-3.2297,-3.2443,-3.251,-3.2091,-3.2643,-3.2717,-3.1286,-3.1311,0.0,0.0,0.0,-3.2265,-3.3395,-3.4022,-3.4575,-3.5082,-3.5132,-3.5006,-3.4751,-3.468,-3.4525,-3.4022,-3.347,-3.2817,-3.2039,-3.121,-3.0442,0.0,0.0,0.0,0.0,0.0,0.0,0.0,0.0,0.0,0.0,0.0,0.0,0.0,0.0,0.0,0.0,0.0,0.0,0.0,0.0,0.0,0.0,0.0,0.0,0.0,0.0,0.0,0.0,-4.1354,-4.1907,-4.0124,-4.1155,-4.1186,0.0,0.0,0.0,0.0,0.0,0.0,-3.8258,-3.7591,-3.7768,-3.9086,-3.913,-3.9592,-4.0523,-4.0918,-4.0851,-4.0557,-4.1002,-4.1181,-4.1181,-4.1181,-4.1181,-4.1158,-4.058,-4.0155,-3.9871,-4.0459,-3.9434,-3.7426,-3.7028,-3.5864,-3.4333,-3.3954,-3.3737,-3.3781,-3.4775,-3.4553,-3.375,-3.375,-3.2965,-3.1724,-3.0395,0.0,0.0,0.0,0.0,-3.1251,-3.1655,-3.1724,-3.181,-3.2336,-3.2001,-3.1611,-3.1481,-3.152,-3.1617,-3.1785,-3.2596,-3.2836,-3.1519,-3.161,0.0,-3.1079,-3.1712,-3.2616,-3.3746,-3.4248,-3.468,-3.5232,-3.5408,-3.5332,-3.4931,-3.5052,-3.5077,-3.4906,-3.413,-3.3405,-3.286,-3.192,-3.1016,-3.0114,0.0,0.0,0.0,0.0,0.0,0.0,0.0,0.0,0.0,0.0,0.0,0.0,0.0,0.0,0.0,0.0,0.0,0.0,0.0,0.0,0.0,0.0,0.0,0.0,0.0,0.0,0.0,0.0,0.0,-4.0727,-4.1167,0.0,0.0,0.0,0.0,-3.7703,-3.8334,-3.8825,-3.9209,-3.9637,-4.0211,-4.0832,-4.0854,-4.1164,-4.1678,-4.1405,-4.1181,-4.1136,-4.1158,-4.1181,-4.1181,-4.1181,-4.1181,-4.1158,-4.058,-4.0271,-4.0181,-3.9399,-3.8387,-3.7372,-3.7408,-3.6978,-3.6267,-3.488,-3.4374,-3.4202,-3.3254,-3.2667,-3.2312,-3.2312,-3.1903,-3.1341,-3.0914,-3.1266,0.0,0.0,-3.081,-3.0719,-3.0426,-3.0325,-3.0325,-3.0344,-3.003,-2.9597,-2.9183,-2.9367,-2.999,-3.13,-3.1573,-3.1488,-3.1076,0.0,-3.1292,-3.2005,-3.219,-3.2616,-3.3746,-3.3922,-3.4148,-3.4655,-3.5182,-3.5483,-3.5458,-3.5981,-3.6056,-3.5483,-3.3871,-3.2715,-3.2144,-3.0354,-2.915,-2.8701,-2.8545,0.0,0.0,0.0,0.0,0.0,0.0,0.0,0.0,0.0,0.0,0.0,0.0,0.0,0.0,0.0,0.0,0.0,0.0,0.0,0.0,0.0,0.0,0.0,0.0,0.0,0.0,0.0,0.0,-3.8604,-4.0287,0.0,-3.9168,-3.888,-3.8886,-3.9179,-3.8783,-3.8551,-3.8722,-3.7933,-3.7714,-3.8186,-3.8206,-3.8335,-3.85,-3.8356,-3.813,-3.7822,-3.7822,-3.7822,-3.7822,-3.7822,-3.7822,-3.7822,-3.7657,-3.741,-3.7123,-3.6814,-3.652,-3.6359,-3.608,-3.51,-3.3713,-3.3195,-3.3135,-3.3355,-3.292,-3.2695,-3.2441,-3.1621,-3.105,-3.0538,-3.0153,-3.0221,-3.0391,-3.0083,-3.0234,-3.0342,-2.9898,-3.0,-3.0137,-2.9863,-2.9473,-2.9101,-2.8945,-2.8832,-2.887,-2.9372,-3.0586,-3.1282,-3.0488,-3.0696,-3.0721,-2.9992,-3.0197,-3.0664,-3.1411,-3.1505,-3.1738,-3.2254,-3.2488,-3.2582,-3.2582,-3.2794,-3.2981,-3.3026,-3.2177,-3.157,-3.134,-3.0638,-2.9885,-2.9013,-2.8538,-2.7668,0.0,0.0,0.0,0.0,0.0,0.0,0.0,0.0,0.0,0.0,0.0,0.0,0.0,0.0,0.0,0.0,0.0,0.0,0.0,0.0,0.0,0.0,0.0,0.0,0.0,-3.8663,-3.9829,-3.8487,-4.0122,-4.0759,-3.9455,-3.8894,-3.8827,-3.9229,-3.8362,-3.7922,-3.8208,-3.7242,-3.6719,-3.6875,-3.6875,-3.6816,-3.668,-3.6523,-3.6309,-3.6016,-3.6016,-3.6016,-3.6016,-3.6016,-3.6016,-3.6016,-3.6016,-3.5859,-3.5586,-3.5449,-3.55,-3.5599,-3.5067,-3.392,-3.2598,-3.2598,-3.2773,-3.3008,-3.3008,-3.291,-3.2637,-3.1641,-3.1016,-3.0566,-3.0137,-3.0019,-3.0019,-3.0019,-3.0215,-3.0371,-3.0078,-3.0215,-3.0312,-2.9883,-2.9551,-2.9277,-2.8984,-2.8711,-2.8457,-2.832,-2.9476,-3.0299,-2.9894,-3.0171,-3.0163,-2.9413,-2.946,-2.9708,-3.009,-3.0001,-3.007,-3.0431,-3.0611,-3.0723,-3.0723,-3.0929,-3.1105,-3.1443,-3.0607,-3.0101,-3.0075,-2.964,-2.8962,-2.8049,-2.744,-2.6689,-2.5762,0.0,0.0,0.0,0.0,0.0,0.0,0.0,0.0,0.0,0.0,0.0,0.0,0.0,0.0,0.0,0.0,0.0,0.0,0.0,0.0,0.0,0.0,0.0,-3.8008,-4.0157,-4.1219,-4.0582,-4.0626,-4.041,-3.9765,-3.7525,-3.6641,-3.7871,-3.7187,-3.707,-3.7871,-3.791,-3.7715,-3.7305,-3.7285,-3.709,-3.668,-3.623,-3.6016,-3.6016,-3.6016,-3.6016,-3.6016,-3.6016,-3.6016,-3.6016,-3.6016,-3.6016,-3.5996,-3.5586,-3.541,-3.5312,-3.4414,-3.3809,-3.3437,-3.3437,-3.3418,-3.3418,-3.3418,-3.3144,-3.2734,-3.2324,-3.1875,-3.1445,-3.1035,-3.0898,-3.0898,-3.0898,-3.0898,-3.0898,-3.0898,-3.0898,-3.0781,-3.0332,-3.0215,-2.9961,-2.9141,-2.8945,-2.8789,-2.8398,-2.8301,-2.8569,-2.9311,-2.9432,-2.9719,-3.0458,-3.0211,0.0,-2.9922,-2.9546,-2.9325,-2.9325,-2.9773,-3.0111,-3.0111,-3.0583,-3.0852,-3.0874,-2.9278,-2.8298,-2.832,-2.7091,-2.6191,-2.5732,-2.5332,-2.5145,-2.5145,0.0,0.0,0.0,0.0,0.0,0.0,0.0,0.0,0.0,0.0,0.0,0.0,0.0,0.0,0.0,0.0,0.0,0.0,0.0,0.0,0.0,-3.5445,-3.5638,-3.6204,-3.753,-3.8523,-3.8656,-3.953,-4.0017,-3.9898,-3.8944,-3.8476,-3.8828,-3.8066,-3.7676,-3.791,-3.7637,-3.7422,-3.7305,-3.7012,-3.6797,-3.668,-3.623,-3.6016,-3.6016,-3.6016,-3.6016,-3.6016,-3.6016,-3.6016,-3.6016,-3.6016,-3.6016,-3.6016,-3.5898,-3.5664,-3.5312,-3.4414,-3.4004,-3.3848,-3.3535,-3.3418,-3.3418,-3.3418,-3.3144,-3.2773,-3.2656,-3.2129,-3.1504,-3.1387,-3.1133,-3.0898,-3.0898,-3.0898,-3.0898,-3.0898,-3.0898,-3.0859,-3.0723,-3.0449,-3.0137,-2.9902,-2.9355,-2.8887,-2.8769,-2.8496,-2.8251,-2.8237,-2.8209,-2.8153,-2.8046,-2.7914,-2.7833,-2.7833,-2.7731,-2.767,-2.767,-2.7772,-2.7903,-2.7903,-2.7769,-2.779,-2.8066,-2.708,-2.6574,-2.6943,-2.6586,-2.6484,-2.666,-2.5937,-2.5547,0.0,0.0,0.0,0.0,0.0,0.0,0.0,0.0,0.0,0.0,0.0,0.0,0.0,0.0,0.0,0.0,0.0,0.0,0.0,0.0,0.0,0.0,-3.6321,-3.6855,-3.6973,-3.7793,-3.8398,-3.8457,-3.9473,-4.0019,-3.9648,-3.9199,-3.8945,-3.8945,-3.8301,-3.8008,-3.8184,-3.7969,-3.7754,-3.7559,-3.7324,-3.7109,-3.6934,-3.6504,-3.6289,-3.6289,-3.6113,-3.6016,-3.6016,-3.6016,-3.6016,-3.6016,-3.6016,-3.6016,-3.6016,-3.6016,-3.5879,-3.5586,0.0,0.0,0.0,0.0,-3.3574,-3.3418,-3.3418,-3.3262,-3.3027,-3.2851,-3.2344,-3.1758,-3.1562,-3.123,-3.0898,-3.0898,-3.0898,-3.0898,-3.0898,-3.0898,-3.0898,-3.0898,-3.0684,-3.043,-3.0234,-2.9805,-2.9355,-2.8984,-2.8711,0.0,-2.8008,-2.793,-2.7851,-2.7598,-2.7402,-2.7285,-2.7285,-2.7129,-2.7012,-2.7012,-2.7012,-2.7012,-2.7012,-2.6797,0.0,0.0,0.0,-2.6035,-2.6113,-2.6113,0.0,0.0,0.0,0.0,0.0,-2.5167,0.0,0.0,-2.4961,-2.4883,0.0,0.0,0.0,0.0,0.0,0.0,0.0,0.0,0.0,0.0,0.0,0.0,0.0,0.0,0.0,0.0,-3.7109,-3.8242,-3.8965,-3.9551,-3.9746,-3.9336,-3.998,-4.0137,-3.9355,-3.8887,-3.8652,-3.8652,-3.8242,-3.8164,-3.8555,-3.8574,0.0,0.0,0.0,-3.7754,-3.7363,-3.6953,-3.6738,-3.6738,-3.6348,-3.6133,-3.6094,-3.6094,-3.6074,-3.6016,-3.6016,-3.6016,-3.6016,-3.6016,-3.6016,-3.5976,-3.5566,-3.5078,-3.459,-3.4219,-3.3789,-3.3418,-3.3418,0.0,0.0,-3.2988,-3.2578,-3.2168,-3.1777,-3.1367,-3.1035,-3.0976,-3.0957,-3.0957,-3.0898,-3.0898,-3.0898,-3.0898,-3.0898,-3.0781,-3.0371,-3.0234,-2.9961,-2.9219,-2.9023,-2.8867,-2.8496,-2.8359,-2.8301,-2.8301,-2.7969,-2.7787,-2.7787,-2.7402,-2.7168,-2.7168,-2.7168,0.0,-2.7168,-2.7109,-2.6934,-2.6562,-2.6484,-2.6289,-2.5849,-2.583,-2.583,-2.583,-2.583,-2.583,-2.583,-2.583,-2.583,-2.581,-2.5019,-2.4844,0.0,0.0,0.0,0.0,0.0,0.0,0.0,0.0,0.0,0.0,0.0,0.0,0.0,0.0,0.0,-3.5469,-3.7168,-3.8379,-3.8203,-3.916,-3.9863,-3.9766,-3.9902,-3.9961,-3.9785,-3.9355,-3.9082,-3.9082,-3.8691,-3.8476,-3.8574,-3.8574,-3.8535,-3.8457,-3.8105,-3.7891,-3.7812,-3.7383,-3.7168,-3.7168,-3.709,0.0,-3.6543,-3.6543,-3.6348,-3.6016,-3.6016,-3.6016,-3.6016,-3.6016,-3.6016,-3.5976,-3.5566,-3.4902,-3.418,-3.4101,-3.3789,-3.3418,-3.3418,-3.3418,-3.3418,-3.332,-3.3008,-3.2656,-3.2578,-3.2246,0.0,-3.1484,-3.1406,-3.1328,-3.0976,-3.0898,-3.0898,-3.0898,-3.0898,-3.0859,-3.0781,-3.0469,-3.0156,-2.998,-2.9668,-2.9414,-2.9336,-2.875,-2.8301,-2.8301,-2.8223,-2.8164,-2.8164,-2.8086,-2.8047,-2.8047,-2.8047,-2.8047,-2.8047,-2.7734,-2.75,-2.7474,-2.709,-2.6855,-2.6777,-2.6758,-2.6758,-2.6758,-2.6758,-2.6758,-2.6758,-2.6758,-2.6758,-2.6758,-2.625,-2.6055,0.0,0.0,0.0,0.0,0.0,0.0,0.0,0.0,0.0,0.0,0.0,-3.4199,-3.4648,0.0,-3.6172,-3.6601,-3.7734,-3.8574,-3.8574,-3.9141,-3.9473,-3.9258,-3.9414,-3.9473,-3.9258,-3.9023,-3.8887,-3.8887,-3.8691,-3.8574,-3.8574,-3.8574,-3.8574,-3.8574,-3.8359,-3.8242,-3.8242,-3.7832,-3.7617,-3.7617,-3.7402,-3.7187,-3.6973,-3.6758,-3.6543,-3.6328,-3.6113,-3.6016,-3.6016,-3.6016,-3.6016,-3.5996,-3.5781,-3.5312,-3.4726,-3.4726,-3.4316,-3.375,-3.375,-3.3613,-3.3418,-3.3418,-3.3144,-3.2793,-3.2793,-3.25,-3.2129,-3.1894,-3.1836,-3.1797,-3.1582,-3.1367,-3.1211,-3.1211,-3.1055,-3.0898,-3.0898,-3.0703,-3.0469,-3.0234,-3.0019,-2.9824,-2.9609,-2.9219,-2.8867,-2.8633,-2.8437,-2.8301,-2.8301,-2.8301,-2.8301,-2.8301,-2.8301,-2.8301,-2.8301,-2.791,-2.7728,-2.7728,-2.7266,-2.7012,-2.7012,-2.7012,-2.7012,-2.7012,-2.7012,-2.7012,-2.7012,-2.7012,-2.7012,-2.7012,-2.7031,-2.6914,0.0,0.0,0.0,0.0,0.0,0.0,0.0,-3.418,-3.4258,-3.4941,-3.4941,-3.5117,-3.6094,-3.6699,-3.7266,-3.7949,-3.8496,-3.8945,-3.9297,-3.9336,-3.9219,-3.8867,-3.9121,-3.916,-3.875,-3.8691,-3.8652,-3.8574,-3.8574,-3.8574,-3.8574,-3.8574,-3.8574,-3.8574,-3.8574,-3.8574,-3.8574,-3.8223,-3.8047,-3.8047,-3.7715,-3.75,-3.7402,-3.707,-3.6875,-3.6758,-3.6328,-3.6094,-3.6016,-3.6016,-3.6016,-3.6016,-3.6016,-3.582,-3.5508,-3.543,-3.4883,-3.418,-3.4101,-3.3848,-3.3535,-3.3457,-3.3184,-3.291,-3.291,-3.2676,-3.2402,-3.2305,-3.2285,-3.2266,-3.2187,-3.1914,-3.1641,-3.1641,-3.1328,-3.1016,-3.1016,-3.0957,-3.0781,-3.041,-3.0332,-3.0215,-2.9883,-2.9746,-2.9551,-2.9101,-2.8691,-2.8418,-2.8418,-2.834,-2.8301,-2.8301,-2.8301,-2.8301,-2.8301,-2.7988,-2.7845,-2.7845,-2.7461,-2.7266,-2.7266,-2.7266,-2.7266,-2.7266,-2.7266,-2.7266,-2.7266,-2.7266,-2.7091,-2.6833,-2.7232,-2.7278,-3.1914,-3.1758,-3.2187,-3.2617,-3.334,-3.416,0.0,-3.5801,-3.6328,-3.6426,-3.7012,-3.7422,-3.7187,-3.7812,-3.8398,-3.8496,-3.9199,-3.9766,-3.9805,-3.9824,-3.9805,-3.9746,-3.9785,-3.9629,-3.918,-3.9141,-3.8984,-3.8613,-3.8574,-3.8574,-3.8574,-3.8574,-3.8574,-3.8574,-3.8574,-3.8574,-3.8574,-3.8535,-3.8496,-3.8496,-3.8457,-3.8223,-3.7851,-3.7812,-3.7578,-3.7207,-3.6777,-3.6387,-3.6016,-3.6016,-3.6016,-3.6016,-3.6016,-3.5996,-3.5898,-3.5527,-3.5078,-3.457,-3.4199,-3.4043,-3.3945,-3.3555,-3.3379,-3.3359,-3.3359,-3.332,-3.3203,-3.2832,-3.2734,-3.2637,-3.2266,-3.2129,-3.209,-3.209,-3.1758,-3.1445,-3.1445,-3.1152,-3.0879,-3.082,-3.082,-3.0801,-3.0762,-3.041,-2.998,-2.957,-2.9121,-2.8848,-2.8848,-2.8516,-2.8301,-2.8301,-2.8301,-2.8301,-2.8301,-2.8242,-2.8223,-2.8223,-2.8184,-2.8144,-2.8144,-2.8144,-2.8144,-2.8144,-2.8144,-2.8144,-2.8144,-2.8144,-2.7485,-2.619,-2.6245,-2.6761,-3.2812,-3.2754,-3.3184,-3.4375,-3.5137,-3.5879,-3.6992,-3.7324,-3.7617,-3.8398,-3.8613,-3.8691,-3.8789,-3.9101,-3.9336,-3.9336,-3.9648,-3.998,-4.0234,-4.0254,-4.0254,-4.0254,-4.0254,-4.0098,-3.9648,-3.9609,-3.9414,-3.8965,-3.8945,-3.8828,-3.8594,-3.8574,-3.8574,-3.8574,-3.8574,-3.8574,-3.8574,-3.8574,-3.8574,-3.8574,-3.8574,-3.8476,-3.8301,-3.8047,-3.7695,-3.7285,-3.7109,-3.6797,-3.6406,-3.6406,-3.625,-3.6016,-3.6016,-3.6016,-3.5996,-3.582,-3.5488,-3.5078,-3.4902,-3.4512,-3.4043,-3.3867,-3.3633,-3.3418,-3.3418,-3.3418,-3.3379,-3.3203,-3.3164,-3.3125,-3.2949,-3.2715,-3.2539,-3.2539,-3.2207,-3.1816,-3.1562,-3.1387,-3.1191,-3.0937,-3.0898,-3.0898,-3.0898,-3.0723,-3.0547,-3.0371,-2.9746,-2.9297,-2.9297,-2.9141,-2.9043,-2.9043,-2.8809,-2.8652,-2.8652,-2.8437,-2.8301,-2.8301,-2.8301,-2.8301,-2.8301,-2.8301,-2.8301,-2.8301,-2.7438,-2.6987,-2.6987,-2.61,-2.5388,-2.4765,-2.4765,-2.5009,-3.3281,-3.3691,-3.4473,-3.5859,-3.6699,-3.7461,-3.8516,-3.8496,-3.8594,-3.9668,-3.9629,-3.9492,-3.9824,-4.0,-4.0078,-4.0078,-4.0176,-4.0351,-4.0664,-4.0703,-4.0664,-4.0527,-4.0527,-4.0351,-3.9941,-3.9902,-3.9766,-3.9414,-3.9277,-3.9062,-3.8769,-3.8633,-3.8574,-3.8574,-3.8574,-3.8574,-3.8574,-3.8574,-3.8574,-3.8574,-3.8574,-3.8574,-3.8555,-3.8242,-3.7871,-3.7461,-3.7461,-3.7168,-3.668,-3.668,-3.6406,-3.6016,-3.6016,-3.6016,-3.6016,-3.6016,-3.582,-3.5547,-3.543,-3.498,-3.4414,-3.4297,-3.3945,-3.3594,-3.3594,-3.3516,-3.3418,-3.3418,-3.3418,-3.3418,-3.3418,-3.3184,-3.2969,-3.2969,-3.2656,-3.2246,-3.1934,-3.1777,-3.1582,-3.1152,-3.1055,-3.1035,-3.0918,-3.0898,-3.0898,-3.0898,-3.0351,-2.9883,-2.9766,-2.9648,-2.9626,-2.9626,-2.9297,-2.9101,-2.9101,-2.8828,-2.8652,-2.8652,-2.8652,-2.8652,-2.8652,-2.8652,-2.8416,-2.7962,-2.694,-2.6149,-2.5687,-2.4569,-2.3836,-2.3456,-2.3456,-2.3228,-3.293,-3.4336,-3.6055,-3.6543,-3.7598,-3.8633,-3.9082,-3.918,-3.9297,-3.9785,-3.9883,-3.9883,-3.9902,-4.0234,-4.0508,-4.0508,-4.0859,-4.1133,-4.1152,-4.1152,-4.0996,-4.0566,-4.0527,-4.0351,-3.9941,-3.9902,-3.9883,-3.9883,-3.9453,-3.9199,-3.918,-3.8789,-3.8574,-3.8574,-3.8574,-3.8574,-3.8574,-3.8574,-3.8574,-3.8574,-3.8574,-3.8574,-3.8574,-3.8555,-3.832,-3.791,-3.791,-3.7441,-3.668,-3.668,-3.6406,-3.6016,-3.6016,-3.6016,-3.6016,-3.6016,-3.6016,-3.5937,-3.5527,-3.5371,-3.5273,-3.4824,-3.4394,-3.4062,-3.4062,-3.375,-3.3418,-3.3418,-3.3418,-3.3418,-3.3418,-3.3418,-3.3398,-3.3398,-3.3086,-3.2773,-3.2754,-3.2441,-3.2012,-3.1582,-3.1504,-3.1367,-3.0957,-3.0898,-3.0898,-3.0898,-3.0859,-3.0684,-3.0234,-2.9824,-2.9626,-2.9626,-2.9607,-2.9551,-2.9551,-2.9607,-2.9587,-2.9587,-2.9587,-2.9587,-2.9587,-2.9587,-2.8784,-2.7143,-2.7086,-2.6266,-2.4745,-2.4704,-2.3943,-2.2572,-2.2572,-2.1737,-3.4668,-3.5879,-3.7109,-3.8105,-3.8672,-3.918,-3.9922,-3.9863,-3.9785,-4.0215,-4.0098,-3.9805,-3.9492,-3.9805,-4.0098,-4.0098,-4.0703,-4.1172,-4.1172,-4.1172,-4.0898,-4.0195,-4.0098,-3.9922,-3.9473,-3.9961,-4.0195,-3.9922,-3.9746,-3.9531,-3.9219,-3.8809,-3.8574,-3.8574,-3.8574,-3.8574,-3.8574,-3.8574,-3.8574,-3.8574,-3.8574,-3.8574,-3.8574,-3.8574,-3.8496,-3.8359,-3.8359,-3.8027,-3.75,-3.75,-3.709,-3.6445,-3.6445,-3.6269,-3.6016,-3.6016,-3.6016,-3.5996,-3.5859,-3.5625,-3.5371,-3.5215,-3.4863,-3.4434,-3.416,-3.3965,-3.3789,-3.3496,-3.3418,-3.3418,-3.3418,-3.3418,-3.3418,-3.3418,-3.332,-3.3144,-3.2851,-3.2676,-3.2461,-3.2031,-3.1953,-3.1894,-3.1758,-3.1738,-3.1641,-3.1348,-3.1074,-3.084,-3.0684,-3.0527,-3.0449,-3.0449,-3.0176,-2.998,-2.998,-2.9726,-2.9626,-2.9626,-2.9626,-2.9103,-2.7994,-2.7937,-2.7179,-2.5551,-2.4561,-2.3756,-2.3225,-2.223,-2.1466,-2.0939,-2.0939,-2.0711,-3.6133,-3.7344,-3.8457,-3.9434,-3.9551,-3.9629,-4.0351,-4.0078,-3.9766,-4.0215,-3.9961,-3.9551,-3.9258,-3.9316,-3.9531,-3.9844,-4.0351,-4.082,-4.1133,-4.1035,-4.0684,-3.998,-3.9902,-3.9707,-3.9258,-3.9863,-4.0195,-3.9922,-3.9902,-3.9687,-3.9219,-3.8809,-3.8574,-3.8574,-3.8574,-3.8574,-3.8574,-3.8574,-3.8574,-3.8574,-3.8574,-3.8574,-3.8574,-3.8574,-3.8574,-3.8574,-3.8574,-3.832,-3.793,-3.793,-3.7519,-3.6875,-3.6738,-3.6504,-3.623,-3.6074,-3.6016,-3.6016,-3.6016,-3.584,-3.5605,-3.5605,-3.5312,-3.4902,-3.4629,-3.4434,-3.4238,-3.3965,-3.3887,-3.3887,-3.3887,-3.3769,-3.3652,-3.3652,-3.3535,-3.334,-3.3086,-3.3008,-3.2891,-3.248,-3.2383,-3.2344,-3.2187,-3.2229,-3.207,-3.1797,-3.1523,-3.123,-3.0937,-3.0898,-3.0645,-3.0079,-2.9754,-2.9583,-2.9583,-2.9355,-2.9203,-2.9203,-2.9203,-2.842,-2.6778,-2.672,-2.594,-2.4356,-2.3353,-2.2583,-2.199,-2.1026,-2.0548,-2.0548,-2.0548,-2.0548,-3.7266,-3.8633,-4.0019,-4.043,-4.0215,-4.0039,-4.043,-3.9863,-3.9355,-3.9766,-3.9473,-3.9141,-3.9141,-3.8809,-3.8828,-3.9726,-3.9902,-4.0215,-4.1055,-4.082,-4.0391,-3.998,-3.9922,-3.9746,-3.9277,-3.9668,-3.9922,-3.9902,-3.9883,-3.9668,-3.9219,-3.8809,-3.8574,-3.8574,-3.8574,-3.8574,-3.8574,-3.8574,-3.8574,-3.8574,-3.8574,-3.8574,-3.8574,-3.8574,-3.8574,-3.8574,-3.8574,-3.834,-3.7969,-3.7969,-3.7715,-3.7285,-3.6894,-3.6719,-3.666,-3.6211,-3.6055,-3.6055,-3.6035,-3.6016,-3.6016,-3.6016,-3.5742,-3.543,-3.541,-3.5078,-3.4726,-3.4707,-3.4707,-3.4707,-3.4707,-3.4394,-3.4101,-3.4101,-3.3789,-3.3476,-3.3457,-3.3457,-3.334,-3.291,-3.277,-3.2572,-3.2102,-3.1983,-3.1963,-3.1944,-3.1944,-3.1694,-3.0918,-3.0801,-3.0176,-2.8486,-2.8289,-2.8289,-2.8289,-2.8289,-2.8289,-2.8289,-2.8289,-2.7572,-2.5924,-2.5863,-2.513,-2.3512,-2.345,-2.2716,-2.1109,-2.1109,-2.1109,-2.1109,-2.1109,-2.1109,-3.8437,-3.9531,-4.0391,-4.0488,-4.0449,-4.0391,-4.0508,-4.0098,-3.9648,-3.9434,-3.8769,-3.8242,-3.8242,-3.8164,-3.8379,-3.9238,-3.9922,-4.0547,-4.1094,-4.1074,-4.084,-4.041,-4.0371,-4.0195,-3.9766,-4.0117,-4.0234,-3.9922,-3.957,-3.9336,-3.9199,-3.8809,-3.8574,-3.8574,-3.8574,-3.8574,-3.8574,-3.8574,-3.8574,-3.8574,-3.8574,-3.8574,-3.8574,-3.8574,-3.8574,-3.8574,-3.8574,-3.8516,-3.8418,-3.8418,-3.8144,-3.7754,-3.7637,-3.7402,-3.709,-3.666,-3.6504,-3.6465,-3.6133,-3.6016,-3.6016,-3.6016,-3.5937,-3.5801,-3.5488,-3.5312,-3.5137,-3.4805,-3.4707,-3.4707,-3.4707,-3.4609,-3.4531,-3.4531,-3.4453,-3.4297,-3.3984,-3.3906,-3.3769,-3.334,-3.2213,-3.0865,-2.9473,-2.9198,-2.9112,-2.8754,-2.8702,-2.8885,-2.947,-2.9559,-2.8811,-2.6806,-2.6591,-2.6591,-2.6591,-2.6591,-2.6591,-2.6591,-2.6591,-2.5863,-2.4301,-2.424,-2.3435,-2.179,-2.1727,-2.1538,-2.1109,-2.1109,-2.1109,-2.1109,-2.1109,-2.1109,-3.9531,-4.0293,-4.0801,-4.0801,-4.0664,-4.0371,-3.9805,-3.9336,-3.8789,-3.7969,-3.7285,-3.6934,-3.7305,-3.7363,-3.7773,-3.9004,-3.9785,-4.0469,-4.1094,-4.1016,-4.0801,-4.0547,-4.0527,-4.043,-4.0195,-4.0391,-4.043,-4.0195,-3.9922,-3.9707,-3.9512,-3.9082,-3.8848,-3.8848,-3.8848,-3.8848,-3.8848,-3.8672,-3.8574,-3.8574,-3.8574,-3.8574,-3.8574,-3.8574,-3.8574,-3.8574,-3.8574,-3.8574,-3.8574,-3.8574,-3.8437,-3.8184,-3.8008,-3.7773,-3.7519,-3.709,-3.6953,-3.6914,-3.666,-3.6465,-3.6269,-3.6094,-3.6016,-3.5976,-3.5742,-3.5664,-3.5605,-3.5351,-3.5273,-3.5273,-3.5273,-3.5137,-3.5,-3.5,-3.4844,-3.4629,-3.4394,-3.3597,-3.2533,-3.1331,-3.0319,-2.9344,-2.8361,-2.8163,-2.8097,-2.7834,-2.7801,-2.7716,-2.7407,-2.7815,-2.739,-2.534,-2.5122,-2.5059,-2.4978,-2.4962,-2.4962,-2.4962,-2.4962,-2.4224,-2.2591,-2.2529,-2.2041,-2.1109,-2.1109,-2.1109,-2.1109,-2.1109,-2.1109,-2.1109,-2.1109,-2.1176,-4.0566,-4.0937,-4.1172,-4.1172,-4.0879,-4.0254,-3.8887,-3.8281,-3.7637,-3.6289,-3.5684,-3.5664,-3.6582,-3.6758,-3.7305,-3.9023,-3.9687,-4.0254,-4.1055,-4.084,-4.0605,-4.0605,-4.0605,-4.0605,-4.0605,-4.0605,-4.0605,-4.0605,-4.0605,-4.0391,-3.9922,-3.9512,-3.9297,-3.9297,-3.9238,-3.9238,-3.9297,-3.8809,-3.8613,-3.8652,-3.8613,-3.8574,-3.8574,-3.8574,-3.8574,-3.8574,-3.8574,-3.8574,-3.8574,-3.8574,-3.8574,-3.8535,-3.8164,-3.8008,-3.7969,-3.7539,-3.7383,-3.7363,-3.7324,-3.7051,-3.668,-3.625,-3.6074,-3.6016,-3.6016,-3.6016,-3.5947,-3.5743,-3.5655,-3.5587,-3.5314,-3.4958,-3.4777,-3.5047,-3.4604,-3.4164,-3.439,-3.2691,-3.0425,-2.8378,-2.798,-2.7898,-2.7584,-2.7584,-2.7567,-2.7519,-2.7503,-2.6877,-2.5062,-2.5906,-2.5881,-2.3966,-2.3745,-2.3627,-2.3411,-2.3396,-2.3396,-2.3396,-2.3396,-2.272,-2.1293,-2.1229,-2.1229,-2.1229,-2.1229,-2.1229,-2.1229,-2.1229,-2.1229,-2.1229,-2.1229,-2.1363,-4.1367,-4.1387,-4.1172,-4.1172,-4.1113,-4.0625,-3.8965,-3.8516,-3.8008,-3.6348,-3.5684,-3.5762,-3.6973,-3.7187,-3.7754,-3.9492,-4.0137,-4.0586,-4.1094,-4.1113,-4.1055,-4.1055,-4.1055,-4.1055,-4.1055,-4.1055,-4.1055,-4.1055,-4.1055,-4.0723,-3.9941,-3.9824,-3.9766,-3.9766,-3.9394,-3.9394,-3.9766,-3.8984,-3.875,-3.9082,-3.875,-3.8574,-3.8574,-3.8574,-3.8574,-3.8574,-3.8574,-3.8574,-3.8574,-3.8574,-3.8574,-3.8574,-3.8496,-3.8457,-3.8418,-3.7969,-3.7812,-3.7773,-3.7422,-3.7246,-3.7129,-3.6699,-3.6309,-3.6016,-3.6016,-3.6016,-3.5655,-3.4089,-3.3674,-3.3309,-3.1738,-3.1265,-3.1564,-3.32,-3.2296,-3.1374,-3.2607,-3.1042,-2.8848,-2.7085,-2.674,-2.618,-2.4441,-2.4122,-2.4108,-2.383,-2.3788,-2.3706,-2.3324,-2.4561,-2.4633,-2.258,-2.2356,-2.2329,-2.2288,-2.2274,-2.2274,-2.2274,-2.2274,-2.2157,-2.183,-2.183,-2.183,-2.183,-2.183,-2.183,-2.183,-2.183,-2.183,-2.183,-2.183,-2.1857,-4.1953,-4.1973,-4.1777,-4.1562,-4.1328,-4.0605,-3.8418,-3.7734,-3.7031,-3.5078,-3.4512,-3.4687,-3.5742,-3.6152,-3.6797,-3.8301,-3.8887,-3.9492,-4.0391,-4.0508,-4.0684,-4.1113,-4.1172,-4.1172,-4.1172,-4.1172,-4.1172,-4.1172,-4.1172,-4.0996,-4.0586,-4.0351,-4.0117,-3.9902,-3.9453,-3.9316,-3.9531,-3.8887,-3.8672,-3.8867,-3.8672,-3.8574,-3.8574,-3.8574,-3.8574,-3.8574,-3.8574,-3.8574,-3.8574,-3.8574,-3.8574,-3.8574,-3.8574,-3.8574,-3.8462,-3.7118,-3.6659,-3.6494,-3.5248,-3.5358,-3.6021,-3.5834,-3.5346,-3.484,-3.484,-3.3959,-3.2874,-3.1948,-3.1667,-3.1456,-3.0522,-3.031,-3.0522,-3.1456,-3.0946,-3.0211,-2.9708,-2.8729,-2.7384,-2.544,-2.5074,-2.4749,-2.3722,-2.3554,-2.346,-2.3153,-2.31,-2.3046,-2.2954,-2.3541,-2.3521,-2.2311,-2.2205,-2.2151,-2.2004,-2.1991,-2.1991,-2.1991,-2.1991,-2.1991,-2.1991,-2.1991,-2.1991,-2.1991,-2.1991,-2.1991,-2.1991,-2.1991,-2.1991,-2.1991,-2.1991,-2.2071,-4.2383,-4.25,-4.2324,-4.1894,-4.1484,-4.0488,-3.7891,-3.6973,-3.6055,-3.3867,-3.3418,-3.3691,-3.4551,-3.5078,-3.5801,-3.709,-3.7656,-3.8379,-3.9707,-3.9902,-4.0215,-4.1074,-4.1172,-4.1172,-4.1172,-4.1172,-4.1172,-4.1172,-4.1172,-4.1172,-4.1172,-4.084,-4.0508,-4.0176,-3.9726,-3.9492,-3.9492,-3.8965,-3.8711,-3.8711,-3.8613,-3.8574,-3.8574,-3.8574,-3.8574,-3.8574,-3.8574,-3.8574,-3.8574,-3.8574,-3.8574,-3.8574,-3.8574,-3.8574,-3.8336,-3.6275,-3.5497,-3.5199,-3.3171,-3.3361,-3.4383,-3.4383,-3.4143,-3.3874,-3.3874,-3.2275,-3.0398,-2.9968,-2.9896,-2.9808,-2.9314,-2.9226,-2.9194,-2.9131,-2.9401,-2.9107,-2.6932,-2.653,-2.597,-2.4269,-2.3955,-2.3941,-2.3875,-2.3861,-2.3768,-2.3474,-2.3367,-2.3233,-2.2993,-2.2968,-2.2779,-2.2539,-2.2512,-2.2418,-2.2191,-2.2178,-2.2178,-2.2178,-2.2178,-2.2178,-2.2178,-2.2178,-2.2178,-2.2178,-2.2178,-2.2178,-2.2178,-2.2178,-2.2178,-2.2178,-2.2178,-2.2298,-4.2578,-4.2734,-4.2324,-4.1894,-4.1484,-4.0488,-3.7891,-3.6973,-3.6055,-3.3867,-3.3418,-3.3691,-3.4551,-3.5078,-3.5801,-3.709,-3.7656,-3.8379,-3.9707,-3.9902,-4.0215,-4.1074,-4.1172,-4.1172,-4.1172,-4.1172,-4.1172,-4.1172,-4.1172,-4.1172,-4.1172,-4.1133,-4.1094,-4.1055,-4.0625,-4.041,-4.041,-3.957,-3.9141,-3.9141,-3.875,-3.8574,-3.8574,-3.8574,-3.8574,-3.8574,-3.8574,-3.8574,-3.8574,-3.8574,-3.8574,-3.8574,-3.8574,-3.8574,-3.8336,-3.6275,-3.5497,-3.5199,-3.3171,-3.2641,-3.2759,-3.2759,-3.3357,-3.4127,-3.4127,-3.2702,-3.0787,-2.9043,-2.8537,-2.8104,-2.6126,-2.5548,-2.548,-2.5207,-2.6502,-2.7201,-2.5245,-2.4804,-2.473,-2.4556,-2.4556,-2.4476,-2.4209,-2.4168,-2.4062,-2.3768,-2.35,-2.3313,-2.3287,-2.3033,-2.2914,-2.2887,-2.2819,-2.2806,-2.2847,-2.2847,-2.2847,-2.2847,-2.2847,-2.2847,-2.2847,-2.2847,-2.2847,-2.2847,-2.2847,-2.2847,-2.2847,-2.2847,-2.2847,-2.2847,-2.2847,-2.2792,-4.2617,-4.3144,-4.2969,-4.2031,-4.168,-4.0742,-3.7637,-3.6797,-3.6055,-3.3867,-3.3418,-3.3535,-3.3867,-3.4082,-3.4531,-3.5566,-3.5879,-3.6621,-3.8457,-3.8945,-3.9512,-4.0644,-4.1016,-4.1172,-4.1172,-4.1172,-4.1172,-4.1172,-4.1172,-4.1172,-4.1172,-4.1172,-4.1055,-4.0781,-4.0605,-4.0273,-3.9726,-3.9375,-3.9082,-3.8828,-3.8652,-3.8574,-3.8574,-3.8574,-3.8574,-3.8574,-3.8574,-3.8574,-3.8574,-3.8574,-3.8574,-3.8574,-3.8574,-3.7805,-3.6497,-3.4451,-3.2944,-3.1558,-2.9526,-2.9604,-3.0669,-3.0669,-3.0925,-3.1259,-3.1124,-2.9498,-2.7575,-2.6847,-2.662,-2.6454,-2.5599,-2.5211,-2.501,-2.4703,-2.5212,-2.5566,-2.4784,-2.4636,-2.4636,-2.4636,-2.4636,-2.4596,-2.4489,-2.4462,-2.4369,-2.4075,-2.3928,-2.3794,-2.3621,-2.3487,-2.3407,-2.3407,-2.3155,-2.2928,-2.2928,-2.2928,-2.2928,-2.2928,-2.2928,-2.2928,-2.2928,-2.2928,-2.2928,-2.2928,-2.2928,-2.2928,-2.2928,-2.2928,-2.2928,-2.2928,-2.2928,-2.2966,-4.2539,-4.3379,-4.3457,-4.2441,-4.1797,-4.0664,-3.7715,-3.666,-3.5781,-3.3984,-3.3516,-3.3457,-3.3594,-3.3613,-3.3848,-3.459,-3.4922,-3.5703,-3.748,-3.8105,-3.8769,-3.9824,-4.0332,-4.0644,-4.0781,-4.1016,-4.1172,-4.1172,-4.1172,-4.1172,-4.1172,-4.1172,-4.1035,-4.0723,-4.0723,-4.0293,-3.9414,-3.9414,-3.9121,-3.8574,-3.8574,-3.8574,-3.8574,-3.8574,-3.8574,-3.8574,-3.8574,-3.8574,-3.8574,-3.8574,-3.8574,-3.8574,-3.8574,-3.7345,-3.5274,-3.3247,-3.1207,-2.9138,-2.7083,-2.7305,-2.853,-2.853,-2.853,-2.8487,-2.8269,-2.7066,-2.5772,-2.5772,-2.5705,-2.5638,-2.5638,-2.5424,-2.513,-2.4836,-2.477,-2.4743,-2.4649,-2.4636,-2.4636,-2.4636,-2.4636,-2.4636,-2.4636,-2.4636,-2.4569,-2.4369,-2.4262,-2.4128,-2.3928,-2.3821,-2.3768,-2.3768,-2.338,-2.3196,-2.3196,-2.3196,-2.3196,-2.3196,-2.3196,-2.3196,-2.3196,-2.3196,-2.3196,-2.3196,-2.3196,-2.3196,-2.3196,-2.3196,-2.3196,-2.3196,-2.3196,-2.3247,-4.2363,-4.3379,-4.3594,-4.3183,-4.1797,-4.0078,-3.832,-3.6621,-3.5156,-3.4258,-3.373,-3.3555,-3.3984,-3.4062,-3.4199,-3.4629,-3.543,-3.6309,-3.7187,-3.7676,-3.8086,-3.8535,-3.8965,-3.9394,-3.9863,-4.0684,-4.1172,-4.1172,-4.1172,-4.1172,-4.1172,-4.1172,-4.1172,-4.1172,-4.1172,-4.0762,-3.9902,-3.9883,-3.9453,-3.8574,-3.8574,-3.8574,-3.8574,-3.8574,-3.8574,-3.8574,-3.8574,-3.8574,-3.8574,-3.8574,-3.8574,-3.8574,-3.8574,-3.7345,-3.5274,-3.3247,-3.1207,-2.9138,-2.7083,-2.6386,-2.6465,-2.6465,-2.6465,-2.6465,-2.6465,-2.6386,-2.6386,-2.6386,-2.6172,-2.5959,-2.5959,-2.5732,-2.5438,-2.5144,-2.5077,-2.4997,-2.4703,-2.4636,-2.4636,-2.4636,-2.4636,-2.4636,-2.4636,-2.4636,-2.4636,-2.4636,-2.4382,-2.4209,-2.4195,-2.3941,-2.3768,-2.3768,-2.3768,-2.3754,-2.3754,-2.3754,-2.3754,-2.3754,-2.3754,-2.3754,-2.3754,-2.3754,-2.3754,-2.3754,-2.3754,-2.3754,-2.3754,-2.3754,-2.3754,-2.3754,-2.3754,-2.3768,-3.9883,-4.0762,-4.0918,-4.0195,-3.9805,-3.9101,-3.709,-3.6445,-3.5937,-3.4746,-3.416,-3.3906,-3.4043,-3.3828,-3.3965,-3.5,-3.541,-3.5996,-3.7129,-3.791,-3.8418,-3.8555,-3.9473,-4.0273,-4.0723,-4.1016,-4.1172,-4.1172,-4.1172,-4.1172,-4.1172,-4.0898,-4.0859,-4.1172,-4.0879,-4.0469,-3.9902,-3.957,-3.9141,-3.8574,-3.8574,-3.8574,-3.8574,-3.8574,-3.8574,-3.8574,-3.8574,-3.8574,-3.8574,-3.8574,-3.8574,-3.8501,-3.7032,-3.5217,-3.3171,-3.1115,-2.906,-2.7227,-2.6623,-2.6386,-2.6386,-2.6386,-2.6386,-2.6386,-2.6386,-2.6386,-2.6386,-2.6386,-2.6319,-2.6199,-2.609,-2.5892,-2.5745,-2.5451,-2.5371,-2.5291,-2.4997,-2.4943,-2.4877,-2.4676,-2.4636,-2.4636,-2.4636,-2.4636,-2.4636,-2.4636,-2.4556,-2.4502,-2.4502,-2.4422,-2.4369,-2.4369,-2.4369,-2.4209,-2.3808,-2.3768,-2.3768,-2.3768,-2.3768,-2.3768,-2.3768,-2.3768,-2.3768,-2.3768,-2.3768,-2.3768,-2.3768,-2.3768,-2.3768,-2.3768,-2.3968,-2.4062,-3.8555,-3.9551,-3.9766,-3.9219,-3.8906,-3.834,-3.6836,-3.6348,-3.5898,-3.4902,-3.4355,-3.4082,-3.4082,-3.3848,-3.3945,-3.4766,-3.5449,-3.6035,-3.6523,-3.7578,-3.8398,-3.8555,-3.9434,-4.0254,-4.0859,-4.1074,-4.1172,-4.1172,-4.1172,-4.1172,-4.1172,-4.0762,-4.0644,-4.0918,-4.0508,-4.0078,-3.9629,-3.9355,-3.8984,-3.8574,-3.8574,-3.8574,-3.8574,-3.8574,-3.8574,-3.8574,-3.8574,-3.8574,0.0,-3.8574,-3.8574,-3.8409,-3.6349,-3.4301,-3.2277,-3.0207,-2.814,-2.6386,-2.6386,-2.6386,-2.6386,-2.6386,-2.6386,-2.6386,-2.6386,-2.6386,-2.6386,-2.6386,-2.6386,-2.6346,-2.6159,-2.6119,-2.6039,-2.5745,-2.5678,-2.5598,-2.5304,-2.5157,-2.5024,-2.4836,-2.4716,-2.4636,-2.4636,-2.4636,-2.4636,-2.4636,-2.4636,-2.4636,-2.4636,-2.4636,-2.4636,-2.4636,-2.4636,-2.4489,-2.4128,-2.4102,-2.4102,-2.4102,-2.4102,-2.4102,-2.4102,-2.4102,-2.4102,-2.4102,-2.4102,-2.4102,-2.4102,-2.4102,-2.4102,-2.4102,-2.4289,-2.4369,0.0,-3.9258,-3.959,-3.9609,-3.8691,-3.7695,-3.7305,-3.6269,0.0,-3.4844,-3.4394,-3.4082,-3.4082,-3.4043,-3.4043,-3.4101,-3.5508,-3.6309,-3.5508,-3.6836,-3.8086,-3.8613,-3.9043,-3.9629,-4.0488,-4.0937,-4.1172,-4.1133,-4.1133,-4.1133,-4.1133,-4.0684,-4.0469,-4.0527,-4.0059,-3.9609,-3.9199,-3.918,-3.8965,-3.8574,-3.8574,-3.8574,-3.8574,-3.8574,-3.8574,-3.8574,-3.8574,-3.8574,-3.8574,-3.8574,-3.8501,-3.819,-3.6127,-3.4076,-3.2048,-2.9975,-2.7997,-2.6386,-2.6386,-2.6386,-2.6386,-2.6386,-2.6386,-2.6386,-2.6386,-2.6386,-2.6386,-2.6386,-2.6386,-2.6386,-2.6386,-2.6386,-2.6319,-2.613,-2.6063,-2.5905,-2.5611,-2.5331,-2.513,-2.5117,-2.489,-2.4629,-2.4629,-2.4629,-2.4629,-2.4629,-2.4629,-2.4629,-2.4629,-2.4676,-2.4676,-2.4676,-2.4649,-2.4636,-2.4636,-2.4636,-2.4636,-2.4636,-2.4636,-2.4636,-2.4636,-2.4636,-2.4636,-2.4636,-2.4636,-2.4636,-2.4636,-2.4636,-2.4636,-2.4636,-2.4636,-2.4636,-3.5879,0.0,-3.6523,-3.6855,-3.6699,-3.6445,0.0,-3.584,-3.5371,-3.5254,-3.4609,-3.4082,-3.4082,-3.3809,-3.3789,-3.4453,-3.5195,-3.5625,-3.543,-3.6582,-3.7988,-3.9414,-3.9961,-4.043,-4.0976,-4.1113,-4.1035,-4.0703,-4.0684,-4.0684,-4.0684,-3.9941,-3.9824,-4.0508,-3.9453,-3.8984,-3.9199,-3.8887,-3.8672,-3.8574,-3.8574,-3.8574,-3.8574,-3.8574,-3.8574,-3.8574,-3.8574,-3.8574,-3.8574,-3.8574,-3.7639,-3.6035,-3.4001,-3.1956,-2.9898,-2.7841,-2.6768,-2.6386,-2.6386,-2.6386,-2.6386,-2.6386,-2.6386,-2.6386,-2.6386,-2.6386,-2.6386,-2.6386,-2.6386,-2.6386,-2.6386,-2.6386,-2.6373,-2.6306,-2.6293,-2.6213,-2.5919,-2.5798,-2.5678,-2.5451,-2.5358,-2.5304,-2.5304,-2.5304,-2.5304,-2.5304,-2.5304,-2.5304,-2.5304,-2.5117,-2.497,-2.497,-2.477,-2.4636,-2.4636,-2.4636,-2.4636,-2.4636,-2.4636,-2.4636,-2.4636,-2.4636,-2.4636,-2.4636,-2.4636,-2.4636,-2.4636,-2.4636,-2.4636,-2.4636,-2.4636,-2.4636,-3.4609,-3.5234,-3.5742,-3.5957,-3.6016,-3.5976,-3.5781,-3.5391,-3.5019,-3.4824,-3.4414,-3.4004,-3.3809,-3.3574,-3.3574,-3.4043,-3.4648,-3.5351,-3.6152,-3.7031,-3.8164,-3.9707,-4.0273,-4.0684,-4.1133,-4.1172,-4.1074,-4.084,-4.082,-4.082,-4.082,-4.0176,-4.0019,-4.0508,-3.9453,-3.8965,-3.9199,-3.8789,-3.8574,-3.8574,-3.8574,-3.8574,-3.8574,-3.8574,-3.8574,-3.8574,-3.8574,-3.8574,-3.8574,-3.8574,-3.7951,-3.6664,-3.3641,-3.1819,-3.0438,-2.7462,-2.6386,-2.6386,-2.6386,-2.6386,-2.6386,-2.6386,-2.6386,-2.6386,-2.6386,-2.6386,-2.6386,-2.6386,-2.6386,-2.6386,-2.6386,-2.6386,-2.6386,-2.6386,-2.6386,-2.6346,-2.6186,-2.613,-2.5983,-2.5745,-2.5611,-2.5518,-2.5518,-2.5518,-2.5518,-2.5518,-2.5518,-2.5518,-2.5518,-2.5371,-2.5277,-2.5277,-2.513,-2.5037,-2.5037,-2.5037,-2.493,-2.4649,-2.4636,-2.4636,-2.4636,-2.4636,-2.4703,-2.4836,-2.4703,-2.477,-2.5037,-2.4903,-2.4903,-2.5037,-2.5037,-2.5037,-3.4043,-3.5078,-3.5996,-3.5937,-3.5918,-3.584,-3.5469,-3.498,-3.4492,-3.4141,-3.4023,-3.3867,-3.3496,-3.3476,-3.3535,-3.3613,-3.4336,-3.5488,-3.7168,-3.7754,-3.8496,-3.9746,-4.0332,-4.0762,-4.1133,-4.1172,-4.1152,-4.1074,-4.1074,-4.1074,-4.1074,-4.0664,-4.0488,-4.0625,-3.9687,-3.9238,-3.9316,-3.8828,-3.8613,-3.8672,-3.8672,-3.8711,-3.8769,-3.8769,-3.873,-3.8672,-3.8672,-3.8633,-3.8574,-3.8574,-3.8263,-3.7364,-3.3868,-3.2125,-3.113,-2.7698,-2.6386,-2.6386,-2.6386,-2.6386,-2.6386,-2.6386,-2.6386,-2.6386,-2.6386,-2.6386,-2.6386,-2.6386,-2.6386,-2.6386,-2.6386,-2.6386,-2.6386,-2.6386,-2.6386,-2.6386,-2.6386,-2.6199,-2.6026,-2.6026,-2.5812,-2.5651,-2.5651,-2.5651,-2.5651,-2.5651,-2.5651,-2.5651,-2.5651,-2.5611,-2.5585,-2.5585,-2.5545,-2.5518,-2.5518,-2.5518,-2.5304,-2.4796,-2.477,-2.477,-2.477,-2.477,-2.489,-2.5144,-2.4903,-2.501,-2.5518,-2.5264,-2.5277,-2.5518,-2.5518,-2.5518,-3.4394,-3.5293,-3.5937,-3.5586,-3.5488,-3.5469,-3.541,-3.4746,-3.416,-3.4082,-3.3769,-3.3496,-3.3437,-3.373,-3.4082,-3.4453,-3.5234,-3.6289,-3.7637,-3.8203,-3.8828,-3.9785,-4.0586,-4.1094,-4.1172,-4.1172,-4.1016,-4.0644,-4.0625,-4.0625,-4.0625,-4.0215,-4.0332,-4.1055,-3.9863,-3.9394,-3.9785,-3.8984,-3.875,-3.9101,-3.9101,-3.9316,-3.9687,-3.9687,-3.9473,-3.9101,-3.9101,-3.8906,-3.8574,-3.8574,-3.659,-3.3339,-3.2733,-3.0361,-2.724,-2.6623,-2.6386,-2.6386,-2.6386,-2.6386,-2.6386,-2.6386,-2.6386,-2.6386,-2.6386,-2.6386,-2.6386,-2.6386,-2.6386,-2.6386,-2.6386,-2.6386,-2.6386,-2.6386,-2.6386,-2.6386,-2.6386,-2.636,-2.6319,-2.6319,-2.6293,-2.6253,-2.6253,-2.6253,-2.6253,-2.6253,-2.6253,-2.6253,-2.6253,-2.6039,-2.5892,-2.5892,-2.5665,-2.5518,-2.5518,-2.5518,-2.5478,-2.5384,-2.5371,-2.5371,-2.5371,-2.5371,-2.5398,-2.5451,-2.5398,-2.5424,-2.5518,-2.5464,-2.5464,-2.5518,-2.5518,-2.5518,-3.3906,-3.4473,-3.5098,-3.5605,-3.5898,-3.5957,-3.5508,-3.4707,-3.4082,-3.4082,-3.373,-3.3418,-3.3418,-3.3965,-3.4629,-3.5312,-3.5957,-3.666,-3.748,-3.8359,-3.916,-3.9824,-4.0644,-4.1172,-4.1172,-4.0957,-4.084,-4.0879,-4.0664,-4.0625,-4.0859,-4.0684,-4.0762,-4.1172,-4.0351,-4.0019,-4.0234,-3.9609,-3.9258,-3.9199,-3.9453,-3.9687,-3.9902,-3.9902,-3.9648,-3.9125,-3.8045,-3.7352,-3.683,-3.5899,-3.4388,-3.2632,-3.1492,-2.9952,-2.816,-2.6836,-2.6386,-2.6386,-2.6386,-2.6386,-2.6386,-2.6386,-2.6386,-2.6386,-2.6386,-2.6386,-2.6386,-2.6386,-2.6386,-2.6386,-2.6386,-2.6386,-2.6386,-2.6386,-2.6386,-2.6386,-2.6386,-2.6386,-2.6386,-2.6386,-2.6386,-2.6386,-2.6386,-2.6386,-2.6386,-2.6386,-2.6386,-2.6386,-2.6386,-2.6279,-2.6186,-2.6186,-2.6066,-2.5985,-2.5985,-2.5985,-2.5852,-2.5531,-2.5518,-2.5518,-2.5518,-2.5518,-2.5585,-2.5745,-2.5598,-2.5665,-2.5985,-2.5825,-2.5838,-2.5985,-2.5985,-2.5985,-3.3535,-3.3887,-3.4512,-3.5723,-3.6191,-3.6269,-3.5918,-3.5156,-3.4512,-3.4394,-3.4023,-3.3691,-3.3594,-3.4355,-3.5254,-3.6055,-3.6699,-3.7226,-3.7559,-3.8516,-3.9375,-3.9844,-4.0566,-4.1016,-4.1016,-4.0723,-4.0625,-4.0859,-4.0664,-4.0664,-4.0996,-4.1113,-4.1172,-4.1172,-4.0742,-4.0527,-4.0527,-4.0195,-3.9863,-3.9512,-3.9863,-4.0098,-4.0195,-3.9604,-3.9087,-3.8496,-3.65,-3.5339,-3.4759,-3.3456,-3.2696,-3.2138,-3.0432,-2.9567,-2.8979,-2.7264,-2.66,-2.66,-2.66,-2.6547,-2.6493,-2.6493,-2.644,-2.6386,-2.6386,-2.644,-2.6493,-2.6493,-2.6493,-2.648,-2.6413,-2.6386,-2.6386,-2.6386,-2.6386,-2.6386,-2.6386,-2.6386,-2.6386,-2.6386,-2.6386,-2.6386,-2.6386,-2.6386,-2.6386,-2.6386,-2.6386,-2.6386,-2.6386,-2.6386,-2.6386,-2.6386,-2.6386,-2.6386,-2.6386,-2.6386,-2.6199,-2.5745,-2.5718,-2.5718,-2.5718,-2.5718,-2.5825,-2.6052,-2.5838,-2.5945,-2.6386,-2.6159,-2.6172,-2.6386,-2.6386,-2.6386,-3.3906,-3.4336,-3.4863,-3.5801,-3.5742,-3.5781,-3.6914,-3.6504,-3.5762,-3.5371,-3.4922,-3.4492,-3.4101,-3.5078,-3.6074,-3.6543,-3.7637,-3.8457,-3.8476,-3.8906,-3.9375,-3.9844,-4.0293,-4.0566,-4.0566,-4.0547,-4.0371,-4.0019,-4.0312,-4.0527,-4.0566,-4.0957,-4.1172,-4.1172,-4.0742,-4.0527,-4.0527,-4.0488,-4.0469,-4.043,-4.0469,-4.0684,-4.1074,-3.8732,-3.7454,-3.6841,-3.4718,-3.3486,-3.3078,-3.294,-3.1983,-3.041,-2.9718,-2.8432,-2.7001,-2.7189,-2.7201,-2.7201,-2.7201,-2.7028,-2.6787,-2.6787,-2.6613,-2.6386,-2.6386,-2.6573,-2.6787,-2.6787,-2.6787,-2.6734,-2.6453,-2.6386,-2.6386,-2.6386,-2.6386,-2.6386,-2.6386,-2.6386,-2.6386,-2.6386,-2.6386,-2.6386,-2.6386,-2.6386,-2.6386,-2.6386,-2.6386,-2.6386,-2.6386,-2.6386,-2.6386,-2.6386,-2.6386,-2.6386,-2.6386,-2.6386,-2.6373,-2.6333,-2.6333,-2.6333,-2.6333,-2.6333,-2.6333,-2.636,-2.6333,-2.6346,-2.6386,-2.6373,-2.6373,-2.6386,-2.6386,-2.6386,-3.3301,-3.2918,-3.3086,-3.5452,-3.4348,-3.3269,-3.5209,-3.5052,-3.4496,-3.4519,-3.4089,-3.3996,-3.5093,-3.5684,-3.625,-3.6953,-3.791,-3.8574,-3.8574,-3.8945,-3.9258,-3.9453,-3.9863,-4.0137,-4.0137,-3.9863,-3.9746,-3.9883,-4.0039,-4.0254,-4.0508,-4.0937,-4.1172,-4.1172,-4.1016,-4.0918,-4.0918,-4.0918,-4.0918,-4.0918,-4.0918,-4.1016,-4.1172,-4.02,-3.8828,-3.6988,-3.4698,-3.2789,-3.1163,-2.97,-2.891,-2.8632,-2.8395,-2.7865,-2.7108,-2.7228,-2.7268,-2.7268,-2.7268,-2.7188,-2.7094,-2.7094,-2.7028,-2.6934,-2.6934,-2.6881,-2.6854,-2.7041,-2.6961,-2.68,-2.6694,-2.6533,-2.6386,-2.6386,-2.6386,-2.6386,-2.6386,-2.6386,-2.6386,-2.6386,-2.6386,-2.6386,-2.6386,-2.6386,-2.6386,-2.6386,-2.6386,-2.6386,-2.6386,-2.6386,-2.6386,-2.6386,-2.6386,-2.6386,-2.6386,-2.6386,-2.6386,-2.6386,-2.6386,-2.6386,-2.6386,-2.6386,-2.6386,-2.6386,-2.6386,-2.6386,-2.6386,-2.6386,-2.6386,-2.6386,-2.6386,-2.6386,-3.2401,-3.2046,-3.2198,-3.3576,-3.2808,-3.1946,-3.2702,-3.315,-3.3398,-3.3343,-3.2646,-3.2838,-3.5345,-3.5538,-3.5697,-3.6922,-3.793,-3.8574,-3.8574,-3.8828,-3.9062,-3.918,-3.9492,-3.9668,-3.9668,-3.9394,-3.9336,-3.9648,-3.9824,-4.0078,-4.0508,-4.0937,-4.1172,-4.1172,-4.1172,-4.1172,-4.1172,-4.1172,-4.1172,-4.1172,-4.1172,-4.1172,-4.1152,-3.9599,-3.7933,-3.6167,-3.3094,-3.082,-2.9229,-2.7703,-2.7281,-2.7575,-2.7762,-2.7655,-2.7415,-2.7591,-2.7549,-2.7549,-2.7549,-2.7482,-2.7402,-2.7402,-2.7348,-2.7268,-2.7268,-2.7188,-2.7134,-2.7348,-2.7255,-2.7094,-2.7094,-2.6881,-2.664,-2.6547,-2.6533,-2.6507,-2.6413,-2.6386,-2.6386,-2.6386,-2.6386,-2.6386,-2.6386,-2.6386,-2.6386,-2.6386,-2.6386,-2.6386,-2.6386,-2.6466,-2.656,-2.6653,-2.6667,-2.6667,-2.6667,-2.6667,-2.6667,-2.6667,-2.6573,-2.648,-2.6386,-2.6386,-2.6386,-2.6386,-2.6386,-2.6386,-2.6386,-2.6386,-2.6386,-2.6386,-2.6386,-2.6386,-3.1286,-3.2027,-3.2701,-3.0071,-3.1185,-3.2278,-2.9637,-3.0993,-3.2665,-3.1959,-3.094,-3.1213,-3.4777,-3.4527,-3.4489,-3.6383,-3.7754,-3.8574,-3.8574,-3.8574,-3.873,-3.9141,-3.9199,-3.9199,-3.9199,-3.9199,-3.9199,-3.9199,-3.9629,-4.0078,-4.0508,-4.0937,-4.1172,-4.1172,-4.1172,-4.1172,-4.1172,-4.1172,-4.1172,-4.1172,-4.1172,-4.1172,-4.1055,-3.6053,-3.3934,-3.393,-2.9306,-2.735,-2.7295,-2.7575,-2.7522,-2.7321,-2.7993,-2.7963,-2.7736,-2.8114,-2.8221,-2.8221,-2.8221,-2.7949,-2.7696,-2.7696,-2.7509,-2.7268,-2.7268,-2.7468,-2.7696,-2.7696,-2.7696,-2.7696,-2.7696,-2.7495,-2.7201,-2.6894,-2.6827,-2.6747,-2.6466,-2.64,-2.64,-2.64,-2.64,-2.64,-2.64,-2.64,-2.64,-2.64,-2.64,-2.64,-2.64,-2.6653,-2.6934,-2.7228,-2.7268,-2.7268,-2.7268,-2.7268,-2.7268,-2.7268,-2.6987,-2.6694,-2.64,-2.6386,-2.6386,-2.6386,-2.6386,-2.6386,-2.6386,-2.6386,-2.6386,-2.6386,-2.6386,-2.6386,-3.0277,-2.9895,-3.0052,-2.9375,-2.8831,-2.8482,-2.9162,-2.9913,-3.0763,-3.1994,-3.2623,-3.3732,-3.6251,-3.6495,-3.6438,-3.7039,-3.793,-3.8574,-3.8574,-3.8574,-3.8613,-3.875,-3.8769,-3.8769,-3.8769,-3.8769,-3.8887,-3.918,-3.9629,-4.0078,-4.0508,-4.0937,-4.1172,-4.1172,-4.1172,-4.1172,-4.1172,-4.1172,-4.1172,-4.1172,-4.0859,-4.0879,-4.1074,-3.8074,-3.5925,-3.4373,-3.0982,-2.8804,-2.7575,-2.7669,-2.7522,-2.7321,-2.7993,-2.8167,-2.8016,-2.8194,-2.8221,-2.8221,-2.8221,-2.8167,-2.8003,-2.8003,-2.8033,-2.7966,-2.7966,-2.7802,-2.7749,-2.7949,-2.7856,-2.7749,-2.7963,-2.8033,-2.7832,-2.7255,-2.7134,-2.7108,-2.7028,-2.7001,-2.7001,-2.7001,-2.7001,-2.7001,-2.7001,-2.7001,-2.7001,-2.7001,-2.7001,-2.7001,-2.7001,-2.7081,-2.7175,-2.7255,-2.7268,-2.7268,-2.7268,-2.7268,-2.7268,-2.7268,-2.7188,-2.7001,-2.6707,-2.6493,-2.6386,-2.6386,-2.6386,-2.6386,-2.6386,-2.6386,-2.6386,-2.6386,-2.6386,-2.6386,-2.9892,-2.9759,-2.9943,-2.7865,-2.7347,-2.7535,-2.836,-2.8404,-2.8764,-3.0823,-3.1125,-3.1835,-3.4577,-3.4504,-3.4214,-3.4957,-3.6382,-3.7345,-3.7345,-3.8117,-3.8574,-3.8574,-3.8574,-3.8574,-3.8574,-3.8574,-3.8828,-3.9434,-3.9746,-4.0156,-4.0742,-4.1035,-4.1172,-4.1172,-4.1172,-4.1172,-4.1172,-4.0996,-4.0918,-4.0918,-3.9663,-3.9203,-3.9372,-3.7191,-3.5583,-3.4323,-3.059,-2.8434,-2.7522,-2.7402,-2.7388,-2.7468,-2.7829,-2.8043,-2.8221,-2.8221,-2.8221,-2.8221,-2.8221,-2.8221,-2.8221,-2.8221,-2.8221,-2.8221,-2.8221,-2.81,-2.7909,-2.8181,-2.8016,-2.7923,-2.8181,-2.8221,-2.81,-2.7549,-2.7442,-2.7402,-2.7295,-2.7268,-2.7268,-2.7268,-2.7268,-2.7268,-2.7268,-2.7268,-2.7268,-2.7268,-2.7268,-2.7308,-2.7428,-2.7442,-2.7482,-2.7602,-2.7698,-2.7698,-2.7698,-2.7698,-2.7698,-2.7698,-2.7495,-2.7362,-2.7175,-2.6894,-2.6734,-2.6734,-2.6734,-2.6734,-2.6734,-2.6734,-2.6734,-2.6734,-2.6734,-2.668,-2.98,-3.065,-3.1243,-2.6003,-2.6584,-2.8259,-2.7446,-2.6841,-2.7086,-2.9071,-2.7841,-2.7474,-3.1232,-3.0461,-2.9899,-3.156,-3.3776,-3.5199,-3.5199,-3.6885,-3.8117,-3.8263,-3.8336,-3.8428,-3.8633,-3.8633,-3.9004,-3.9883,-3.9961,-4.0312,-4.1133,-4.1133,-4.1113,-4.1113,-4.1113,-4.1094,-4.1055,-4.0703,-4.0508,-4.0392,-3.7963,-3.6764,-3.6723,-3.4362,-3.3411,-3.3258,-2.8773,-2.6961,-2.7161,-2.6921,-2.7148,-2.7669,-2.7682,-2.7883,-2.8221,-2.8221,-2.8221,-2.8221,-2.8221,-2.8221,-2.8221,-2.8221,-2.8221,-2.8221,-2.8221,-2.8221,-2.8221,-2.8221,-2.8221,-2.8221,-2.8221,-2.8221,-2.8154,-2.7802,-2.7736,-2.7669,-2.7402,-2.7348,-2.7348,-2.7348,-2.7348,-2.7348,-2.7348,-2.7348,-2.7348,-2.7348,-2.7348,-2.7442,-2.7709,-2.7736,-2.7843,-2.8194,-2.8221,-2.8221,-2.8221,-2.8221,-2.8221,-2.8221,-2.7883,-2.7736,-2.7736,-2.7442,-2.7268,-2.7268,-2.7268,-2.7268,-2.7268,-2.7268,-2.7268,-2.7268,-2.7268,-2.7121,-2.8859,-2.844,-2.8129,-2.5855,-2.6459,-2.7445,-2.7001,-2.7001,-2.7702,-2.9668,-2.9562,-2.9811,-3.2187,-3.219,-3.1858,-3.2314,-3.2835,-3.3171,-3.3171,-3.3566,-3.4394,-3.5961,-3.6183,-3.6923,-3.8876,-3.9062,-3.9434,-4.0332,-4.0391,-4.0605,-4.1152,-4.084,-4.0664,-4.0664,-4.0664,-4.0508,-4.0176,-4.041,-4.0351,-4.0019,-3.7479,-3.6511,-3.6646,-3.2854,-3.0156,-2.833,-2.7269,-2.6734,-2.6587,-2.6747,-2.7041,-2.7375,-2.7602,-2.7883,-2.8221,-2.8221,-2.8221,-2.8221,-2.8221,-2.8221,-2.8221,-2.8221,-2.8221,-2.8221,-2.8221,-2.8221,-2.8221,-2.8221,-2.8221,-2.8221,-2.8221,-2.8221,-2.8207,-2.814,-2.8127,-2.8114,-2.8047,-2.8033,-2.8033,-2.8033,-2.8033,-2.8033,-2.8033,-2.8033,-2.8033,-2.8033,-2.8033,-2.806,-2.8127,-2.8127,-2.8154,-2.8221,-2.8221,-2.8221,-2.8221,-2.8221,-2.8221,-2.8221,-2.8167,-2.8127,-2.8127,-2.7549,-2.7268,-2.7268,-2.7268,-2.7268,-2.7268,-2.7268,-2.7268,-2.7268,-2.7268,-2.7228,-2.9059,-2.8317,-2.7742,-2.6629,-2.6814,-2.7268,-2.7241,-2.7362,-2.7797,-2.8821,-2.8698,-2.877,-2.9784,-2.9871,-2.9706,-2.9634,-3.05,-3.1166,-3.1069,-3.1896,-3.3247,-3.5274,-3.5515,-3.6367,-3.872,-3.9082,-3.9492,-4.0176,-4.041,-4.0625,-4.084,-4.0644,-4.043,-4.0234,-4.0215,-4.0117,-3.9902,-3.9902,-3.9314,-3.8085,-3.5584,-3.3499,-3.1824,-3.0739,-2.9007,-2.6814,-2.668,-2.6533,-2.6413,-2.6707,-2.7001,-2.7295,-2.7589,-2.7883,-2.8221,-2.8221,-2.8221,-2.8221,-2.8221,-2.8221,-2.8221,-2.8221,-2.8221,-2.8221,-2.8221,-2.8221,-2.8221,-2.8221,-2.8221,-2.8221,-2.8221,-2.8221,-2.8221,-2.8221,-2.8221,-2.8221,-2.8221,-2.8221,-2.8221,-2.8221,-2.8221,-2.8221,-2.8221,-2.8221,-2.8221,-2.8221,-2.8221,-2.8221,-2.8221,-2.8221,-2.8221,-2.8221,-2.8221,-2.8221,-2.8221,-2.8221,-2.8221,-2.8221,-2.8221,-2.8221,-2.8221,-2.7926,-2.7765,-2.7765,-2.7765,-2.7765,-2.7765,-2.7765,-2.7765,-2.7765,-2.7765,-2.7602,-2.9454,-2.8738,-2.8081,-2.7418,-2.7308,-2.7468,-2.7655,-2.7736,-2.7776,-2.7776,-2.7348,-2.6974,-2.6974,-2.6934,-2.6814,-2.6573,-2.8142,-2.936,-2.9037,-3.0454,-3.225,-3.4226,-3.4469,-3.5438,-3.8015,-3.8564,-3.9138,-4.0078,-4.0449,-4.0605,-4.0527,-4.0449,-4.0215,-3.9785,-3.9766,-3.9746,-3.9668,-3.9355,-3.8175,-3.602,-3.3247,-2.9991,-2.6479,-2.849,-2.846,-2.6734,-2.6493,-2.6386,-2.6413,-2.6707,-2.7001,-2.7295,-2.7589,-2.7883,-2.8221,-2.8221,-2.8221,-2.8221,-2.8221,-2.8221,-2.8221,-2.8221,-2.8221,-2.8221,-2.8221,-2.8221,-2.8221,-2.8221,-2.8221,-2.8221,-2.8221,-2.8221,-2.8221,-2.8221,-2.8221,-2.8221,-2.8221,-2.8221,-2.8221,-2.8221,-2.8221,-2.8221,-2.8221,-2.8221,-2.8221,-2.8221,-2.8221,-2.8221,-2.8221,-2.8221,-2.8221,-2.8221,-2.8221,-2.8221,-2.8221,-2.8221,-2.8221,-2.8221,-2.8221,-2.8221,-2.8221,-2.8221,-2.8221,-2.8221,-2.8221,-2.8221,-2.8221,-2.8221,-2.8221,-2.8221,-2.8221,-2.8003,-2.9073,-2.797,-2.7,-2.6921,-2.7455,-2.7963,-2.7749,-2.7896,-2.8167,-2.8167,-2.7816,-2.7575,-2.7575,-2.7375,-2.7188,-2.7161,-2.7419,-2.75,-2.7202,-2.7387,-2.8216,-3.0006,-3.0207,-3.2046,-3.6565,-3.7075,-3.821,-4.086,-4.1055,-4.0918,-4.0547,-4.0176,-3.9766,-3.9316,-3.9297,-3.9121,-3.875,-3.9043,-3.8004,-3.5587,-3.1666,-2.8608,-2.6386,-2.6729,-2.6756,-2.644,-2.6413,-2.6386,-2.6413,-2.6707,-2.7001,-2.7295,-2.7589,-2.7883,-2.8221,-2.8221,-2.8221,-2.8221,-2.8221,-2.8221,-2.8221,-2.8221,-2.8221,-2.8221,-2.8221,-2.8221,-2.8221,-2.8221,-2.8221,-2.8221,-2.8221,-2.8221,-2.8221,-2.8221,-2.8221,-2.8221,-2.8221,-2.8221,-2.8221,-2.8221,-2.8221,-2.8221,-2.8221,-2.8221,-2.8221,-2.8221,-2.8221,-2.8221,-2.8221,-2.8221,-2.8221,-2.8221,-2.8221,-2.8221,-2.8221,-2.8221,-2.8221,-2.8221,-2.8221,-2.8221,-2.8221,-2.8221,-2.8221,-2.8221,-2.8221,-2.8221,-2.8221,-2.8221,-2.8221,-2.8221,-2.8221,-2.8207,-2.9275,-2.797,-2.6893,-2.8396,-2.8358,-2.7856,-2.7722,-2.7923,-2.8181,-2.7923,-2.7923,-2.7896,-2.7722,-2.7589,-2.7455,-2.7295,-2.7402,-2.7402,-2.7108,-2.6921,-2.7547,-2.9434,-2.9475,-3.0779,-3.4316,-3.4865,-3.6086,-3.8825,-3.9243,-3.958,-4.0119,-4.0,-3.957,-3.8867,-3.8848,-3.8217,-3.6885,-3.7053,-3.5453,-3.2016,-2.9138,-2.7227,-2.6386,-2.6386,-2.6386,-2.6386,-2.6386,-2.6386,-2.6426,-2.6881,-2.7148,-2.7308,-2.7762,-2.8114,-2.8221,-2.8221,-2.8221,-2.8221,-2.8221,-2.8221,-2.8221,-2.8221,-2.8221,-2.8221,-2.8221,-2.8221,-2.8221,-2.8221,-2.8221,-2.8221,-2.8221,-2.8221,-2.8221,-2.8221,-2.8221,-2.8221,-2.8221,-2.8221,-2.8221,-2.8221,-2.8221,-2.8221,-2.8221,-2.8221,-2.8221,-2.8221,-2.8221,-2.8221,-2.8221,-2.8221,-2.8221,-2.8221,-2.8221,-2.8221,-2.8221,-2.8221,-2.8221,-2.8221,-2.8221,-2.8221,-2.8221,-2.8221,-2.8221,-2.8221,-2.8221,-2.8221,-2.8221,-2.8221,-2.8221,-2.8221,-2.8221,-2.8221,-2.9563,-2.8133,-2.6954,-2.9096,-2.8452,-2.7402,-2.7549,-2.7816,-2.8073,-2.7843,-2.8073,-2.8154,-2.7856,-2.7816,-2.7736,-2.7522,-2.7669,-2.7709,-2.7415,-2.7121,-2.7457,-2.8943,-2.8797,-2.9613,-3.2044,-3.263,-3.3839,-3.6465,-3.6835,-3.7602,-3.8975,-3.852,-3.8047,-3.7824,-3.7345,-3.6275,-3.4751,-3.4209,-3.2396,-2.9371,-2.7384,-2.6386,-2.6386,-2.6386,-2.6386,-2.6386,-2.6466,-2.6453,-2.644,-2.7028,-2.7268,-2.7321,-2.7829,-2.8154,-2.8221,-2.8221,-2.8221,-2.8221,-2.8221,-2.8221,-2.8221,-2.8221,-2.8221,-2.8221,-2.8221,-2.8221,-2.8221,-2.8221,-2.8221,-2.8221,-2.8221,-2.8221,-2.8221,-2.8221,-2.8221,-2.8221,-2.8221,-2.8221,-2.8221,-2.8221,-2.8221,-2.8221,-2.8221,-2.8221,-2.8221,-2.8221,-2.8221,-2.8221,-2.8221,-2.8221,-2.8221,-2.8221,-2.8221,-2.8221,-2.8221,-2.8221,-2.8221,-2.8221,-2.8221,-2.8221,-2.8221,-2.8221,-2.8221,-2.8221,-2.8221,-2.8221,-2.8221,-2.8221,-2.8221,-2.8221,-2.8221,-2.8221,-2.9651,-2.8183,-2.6763,-2.7482,-2.7018,-2.66,-2.7161,-2.7509,-2.7802,-2.8154,-2.8221,-2.8221,-2.8207,-2.8207,-2.8194,-2.8181,-2.8194,-2.81,-2.7722,-2.7428,-2.7216,-2.7015,-2.6719,-2.762,-3.0331,-3.0645,-3.1802,-3.465,-3.4562,-3.5083,-3.6664,-3.4642,-3.4111,-3.5589,-3.3775,-3.2809,-3.2657,-3.0731,-2.9589,-2.9371,-2.7384,-2.6386,-2.6386,-2.6386,-2.6386,-2.64,-2.668,-2.664,-2.644,-2.7028,-2.7268,-2.7295,-2.7602,-2.7896,-2.8221,-2.8221,-2.8221,-2.8221,-2.8221,-2.8221,-2.8221,-2.8221,-2.8221,-2.8221,-2.8221,-2.8221,-2.8221,-2.8221,-2.8221,-2.8221,-2.8221,-2.8221,-2.8221,-2.8221,-2.8221,-2.8221,-2.8221,-2.8221,-2.8221,-2.8221,-2.8221,-2.8221,-2.8221,-2.8221,-2.8221,-2.8221,-2.8221,-2.8221,-2.8221,-2.8221,-2.8221,-2.8221,-2.8221,-2.8221,-2.8221,-2.8221,-2.8221,-2.8221,-2.8221,-2.8221,-2.8221,-2.8221,-2.8221,-2.8221,-2.8221,-2.8221,-2.8221,-2.8221,-2.8221,-2.8221,-2.8221,-2.8221,-3.1252,-2.8924,-2.6564,-2.8638,-2.7347,-2.5758,-2.6533,-2.7081,-2.7509,-2.7802,-2.8003,-2.8221,-2.8221,-2.8221,-2.8221,-2.8221,-2.8221,-2.8194,-2.8003,-2.7736,-2.7509,-2.7402,-2.7134,-2.7419,-2.8618,-2.8741,-2.9799,-3.2433,-3.2301,-3.2922,-3.4613,-3.3697,-3.3252,-3.3566,-3.2868,-3.1896,-3.0515,-2.8452,-2.7462,-2.7462,-2.6768,-2.6386,-2.6386,-2.6386,-2.6493,-2.668,-2.6974,-2.6934,-2.6694,-2.7094,-2.7375,-2.7575,-2.7869,-2.8043,-2.8221,-2.8221,-2.8221,-2.8221,-2.8221,-2.8221,-2.8221,-2.8221,-2.8221,-2.8221,-2.8221,-2.8221,-2.8221,-2.8221,-2.8221,-2.8221,-2.8221,-2.8221,-2.8221,-2.8221,-2.8297,-2.8444,-2.8444,-2.8283,-2.8221,-2.8221,-2.8221,-2.8221,-2.8221,-2.8221,-2.8167,-2.7883,-2.8016,-2.8154,-2.7883,-2.8114,-2.8221,-2.8221,-2.8221,-2.8221,-2.8221,-2.8221,-2.8221,-2.8221,-2.8221,-2.8221,-2.8221,-2.8221,-2.8221,-2.8221,-2.8221,-2.8221,-2.8221,-2.8221,-2.8221,-2.8221,-2.8221,-2.8221,-3.1767,-2.958,-2.7368,-2.973,-2.7768,-2.5658,-2.6954,-2.701,-2.6987,-2.7575,-2.7856,-2.8114,-2.8207,-2.8221,-2.8221,-2.8221,-2.8221,-2.8221,-2.8221,-2.7883,-2.7696,-2.7696,-2.7442,-2.7375,-2.7669,-2.7696,-2.8468,-3.0148,-2.9953,-3.0579,-3.2412,-3.1481,-3.0748,-3.0454,-3.0438,-2.9759,-2.8374,-2.7083,-2.6386,-2.6386,-2.6386,-2.6386,-2.6386,-2.6493,-2.664,-2.6841,-2.7134,-2.7148,-2.7001,-2.7295,-2.7522,-2.7722,-2.7923,-2.814,-2.8221,-2.8221,-2.8221,-2.8221,-2.8221,-2.8221,-2.8221,-2.8221,-2.8221,-2.8221,-2.8221,-2.8221,-2.8221,-2.8221,-2.8301,-2.8297,-2.8297,-2.8377,-2.8444,-2.8444,-2.8604,-2.8751,-2.8751,-2.8591,-2.8444,-2.8444,-2.8444,-2.8444,-2.8444,-2.8444,-2.8377,-2.8177,-2.8323,-2.8377,-2.8177,-2.8323,-2.8444,-2.8444,-2.8444,-2.8444,-2.8444,-2.8444,-2.8444,-2.8444,-2.8444,-2.8404,-2.831,-2.8297,-2.8243,-2.8234,-2.8221,-2.8221,-2.8221,-2.8221,-2.8221,-2.8221,-2.8221,-2.8221,0.0,0.0,0.0,-3.0237,-2.8179,-2.6349,-2.8282,-2.7318,-2.6318,-2.7415,-2.7669,-2.7762,-2.8167,-2.8221,-2.8221,-2.8221,-2.8221,-2.8221,-2.8221,-2.7896,-2.7709,-2.7709,-2.7468,-2.7402,-2.7682,-2.7709,-2.7829,-2.8207,-2.7685,-2.8151,-3.01,-2.7796,-2.6386,-2.6386,-2.6386,-2.6386,-2.6386,-2.6386,-2.6386,-2.6386,-2.6386,-2.6386,-2.64,-2.6694,-2.6827,-2.6854,-2.7148,-2.7281,-2.7308,-2.7589,-2.7709,-2.7709,-2.7709,-2.7883,-2.8221,-2.8221,-2.8221,-2.8221,-2.8221,-2.8221,-2.8221,-2.8221,-2.8221,-2.8221,-2.8221,-2.8234,-2.8248,-2.8248,-2.8377,-2.8617,-2.8617,-2.8831,-2.9045,-2.9045,-2.9045,-2.8971,-2.8971,-2.9058,-2.9058,-2.9045,-2.9045,-2.9045,-2.9045,-2.9045,-2.9032,-2.9032,-2.9032,-2.9032,-2.9032,-2.9032,-2.9032,-2.9045,-2.9045,-2.9045,-2.9045,-2.9045,-2.9045,-2.9045,-2.9045,-2.8911,-2.8631,-2.8604,-2.847,-2.8248,-2.8234,-2.8221,-2.8221,-2.8221,-2.8221,-2.8221,-2.8221,-2.8221,-3.0898,0.0,0.0,0.0,0.0,0.0,-2.6604,-2.656,-2.6517,-2.6691,-2.6921,-2.7281,-2.81,-2.8221,-2.8221,-2.8221,-2.8221,-2.8221,-2.8221,-2.8154,-2.8016,-2.8016,-2.8033,-2.802,-2.8016,-2.8016,-2.814,-2.8221,-2.7789,-2.7729,-2.8151,-2.7013,-2.6386,-2.6386,-2.6386,-2.6386,-2.6386,-2.6386,-2.6386,-2.6386,-2.6386,-2.6386,-2.64,-2.6694,-2.6934,-2.7161,-2.7455,-2.7696,-2.798,-2.7749,-2.7829,-2.8016,-2.8016,-2.8154,-2.8221,-2.8221,-2.8221,-2.8221,-2.8221,-2.8221,-2.8221,-2.8221,-2.8221,-2.8221,-2.8221,-2.8297,-2.8484,-2.8484,-2.8684,-2.8925,-2.8925,-2.8978,-2.9045,-2.9045,-2.9205,-2.9366,-2.9366,-2.9526,-2.9553,-2.9125,-2.9045,-2.9045,-2.9045,-2.9045,-2.8965,-2.8764,-2.8724,-2.8724,-2.8724,-2.8724,-2.8804,-2.9018,-2.9045,-2.9045,-2.9045,-2.9045,-2.9045,-2.9045,-2.9045,-2.9005,-2.8925,-2.8724,-2.8564,-2.8484,-2.8341,-2.8221,-2.8221,-2.8221,-2.8221,-2.8221,-2.8221,-2.8221,-3.0898,0.0,0.0,-3.0139,0.0,0.0,-2.8402,-2.7539,-2.6808,-2.7438,-2.7062,-2.6867,-2.7725,-2.7859,-2.7899,-2.7936,-2.814,-2.8274,-2.8323,-2.8315,-2.8315,-2.8484,-2.8382,-2.8274,-2.8323,-2.8301,-2.8221,-2.8221,-2.7869,-2.7522,-2.7108,-2.676,-2.652,-2.6386,-2.6386,-2.6386,-2.6386,-2.6386,-2.6386,-2.6386,-2.6386,-2.6453,-2.6587,-2.6867,-2.7175,-2.7468,-2.7762,-2.7989,-2.8207,-2.7949,-2.7989,-2.8221,-2.8221,-2.8221,-2.8221,-2.8221,-2.8221,-2.8221,-2.8221,-2.8221,-2.8248,-2.8297,-2.8337,-2.8364,-2.8484,-2.8644,-2.8791,-2.8791,-2.9005,-2.9259,-2.9379,-2.9406,-2.9406,-2.9406,-2.9539,-2.9659,-2.9659,-2.9793,-2.982,-2.9472,-2.9406,-2.9406,-2.9406,-2.9406,-2.9352,-2.9179,-2.9152,-2.9152,-2.9152,-2.9152,-2.9219,-2.9392,-2.9406,-2.9406,-2.9406,-2.9406,-2.9406,-2.9406,-2.9406,-2.9352,-2.9232,-2.9058,-2.8858,-2.8604,-2.843,-2.827,-2.8221,-2.8221,-2.8221,-2.8221,-2.8221,-2.8221,-3.0898,-3.0898,0.0,-3.1836,-3.0596,0.0,-3.1474,-2.9313,-2.7304,-2.8639,-2.7558,-2.6569,-2.7042,-2.7094,-2.7201,-2.7415,-2.7789,-2.8261,-2.8551,-2.8364,-2.8404,-2.8965,-2.8564,-2.8337,-2.8577,-2.835,-2.8261,-2.8234,-2.7869,-2.7468,-2.6947,-2.6894,-2.6734,-2.6453,-2.644,-2.6426,-2.6386,-2.6386,-2.6386,-2.6386,-2.6426,-2.6573,-2.6827,-2.7161,-2.7455,-2.7709,-2.8016,-2.8221,-2.8221,-2.8221,-2.8221,-2.8221,-2.8221,-2.8221,-2.8221,-2.8221,-2.8221,-2.8234,-2.8261,-2.8274,-2.8328,-2.8551,-2.8657,-2.8711,-2.8965,-2.9058,-2.9098,-2.9125,-2.9325,-2.9593,-2.9847,-2.9913,-2.9913,-2.9913,-2.9913,-2.9913,-2.9913,-2.9913,-2.9913,-2.9913,-2.9913,-2.9913,-2.9913,-2.9913,-2.9913,-2.9913,-2.9887,-2.9887,-2.9913,-2.9887,-2.9887,-2.9913,-2.9913,-2.9913,-2.9913,-2.9913,-2.9913,-2.9913,-2.9913,-2.9806,-2.9539,-2.9499,-2.9245,-2.8711,-2.8644,-2.8457,-2.8221,-2.8221,-2.8221,-2.8221,-2.8221,-2.8221,-3.0898,-3.0898,-3.0937,-3.1094,-3.0839,0.0,-2.973,-2.9249,-2.8555,-2.707,-2.6777,-2.6512,-2.5922,-2.6052,-2.6146,-2.5972,-2.6787,-2.7709,-2.8497,-2.8551,-2.8644,-2.8991,-2.8938,-2.8791,-2.8631,-2.8551,-2.8417,-2.8248,-2.7869,-2.7642,-2.7535,-2.7308,-2.7041,-2.6747,-2.6734,-2.6627,-2.6386,-2.6386,-2.6386,-2.6386,-2.6627,-2.6774,-2.6841,-2.7375,-2.7642,-2.7709,-2.8016,-2.8221,-2.8221,-2.8221,-2.8221,-2.8221,-2.8221,-2.8221,-2.8221,-2.8221,-2.8221,-2.8261,-2.843,-2.8524,-2.8564,-2.8858,-2.8951,-2.8965,-2.9018,-2.9205,-2.9446,-2.9673,-2.978,-2.9847,-2.99,-2.9913,-2.9913,-2.9913,-2.9913,-2.9913,-2.9913,-2.9913,-2.9913,-2.9913,-2.9913,-2.9913,-2.9913,-2.9913,-2.9913,-2.9913,-2.9713,-2.9659,-2.9887,-2.9713,-2.9659,-2.9887,-2.9913,-2.9913,-2.9913,-2.9913,-2.9913,-2.9913,-2.9913,-2.9887,-2.9833,-2.9606,-2.9432,-2.9312,-2.8845,-2.8457,-2.8221,-2.8221,-2.8221,-2.8221,-2.8221,-2.8221,-3.0898,-3.0898,-3.0898,-3.0898,-3.0898,0.0,0.0,-3.005,-2.9386,-2.8741,-2.7338,-2.622,-2.5864,-2.5335,-2.4957,-2.5251,-2.6159,-2.7094,-2.7829,-2.8323,-2.8764,-2.9205,-2.9125,-2.9045,-2.9045,-2.8778,-2.8484,-2.8248,-2.8003,-2.7856,-2.7709,-2.7428,-2.7134,-2.6827,-2.668,-2.6533,-2.6386,-2.6386,-2.6386,-2.6386,-2.668,-2.6894,-2.7054,-2.7495,-2.7776,-2.7923,-2.8167,-2.8221,-2.8221,-2.8221,-2.8221,-2.8221,-2.8221,-2.8221,-2.8221,-2.8221,-2.8221,-2.8274,-2.8497,-2.8604,-2.8684,-2.9125,-2.9259,-2.9285,-2.9432,-2.9579,-2.9726,-2.9873,-2.9913,-2.9913,-2.9913,-2.9913,-2.9913,-2.9913,-2.9913,-2.9913,-2.9913,-2.9913,-2.9913,-2.9913,-2.9913,-2.9913,-2.9913,-2.9913,-2.9913,-2.9913,-2.9793,-2.9753,-2.99,-2.9793,-2.9753,-2.99,-2.9913,-2.9913,-2.9913,-2.9913,-2.9913,-2.9913,-2.9913,-2.9913,-2.9913,-2.978,-2.9633,-2.9486,-2.9045,-2.8751,-2.8591,-2.8591,-2.843,-2.8221,-2.8221,-2.8221,-3.1133,-3.1074,-3.1016,-3.1016,-3.0957,-3.1074,0.0,0.0,0.0,-3.0549,-2.8411,-2.6411,-2.5933,-2.4818,-2.4154,-2.4522,-2.5358,-2.6146,-2.668,-2.7575,-2.8457,-2.9219,-2.9152,-2.9138,-2.9379,-2.8858,-2.8444,-2.8328,-2.8207,-2.7949,-2.7709,-2.7468,-2.7188,-2.6827,-2.66,-2.6453,-2.6386,-2.6386,-2.6413,-2.648,-2.6774,-2.7068,-2.7362,-2.7655,-2.7909,-2.8221,-2.8221,-2.8221,-2.8221,-2.8221,-2.8221,-2.8221,-2.8221,-2.8221,-2.8221,-2.8221,-2.8261,-2.8355,-2.8577,-2.8724,-2.8858,-2.9392,-2.9566,-2.9606,-2.9847,-2.9913,-2.9913,-2.9913,-2.9913,-2.9913,-2.9913,-2.9913,-2.9913,-2.9913,-2.9913,-2.9913,-2.9913,-2.9913,-2.9913,-2.9913,-2.9913,-2.9913,-2.9913,-2.9913,-2.9913,-2.9913,-2.9913,-2.9913,-2.9913,-2.9913,-2.9913,-2.9913,-2.9913,-2.9913,-2.9913,-2.9913,-2.9913,-2.9913,-2.9913,-2.9913,-2.9913,-2.9913,-2.978,-2.9486,-2.9245,-2.9098,-2.9045,-2.9045,-2.8791,-2.831,-2.831,-2.831,-3.2031,-3.1738,-3.1445,-3.1445,-3.1172,-3.0918,-3.1016,0.0,-3.0879,-2.9458,0.0,-2.8162,-2.513,0.0,0.0,-2.2903,-2.3688,-2.4569,-2.489,-2.5919,-2.7161,-2.8537,-2.8898,-2.8971,-2.9085,-2.8551,-2.8297,-2.8537,-2.8056,-2.7736,-2.7696,-2.7669,-2.7402,-2.6841,-2.6787,-2.6653,-2.6386,-2.6386,-2.652,-2.6774,-2.7068,-2.7375,-2.7655,-2.7963,-2.8194,-2.8221,-2.8221,-2.8221,-2.8221,-2.8221,-2.8221,-2.8221,-2.8221,-2.8221,-2.8221,-2.8221,-2.8323,-2.8591,-2.8885,-2.9165,-2.9446,-2.9766,-2.986,-2.9873,-2.99,-2.9913,-2.9913,-2.9913,-2.9913,-2.9913,-2.9913,-2.9913,-2.9913,-2.9913,-2.9913,-2.9913,-2.9913,-2.9913,-2.9913,-2.9913,-2.9913,-2.9913,-2.9913,-2.9913,-2.9913,-2.9913,-2.9913,-2.9913,-2.9913,-2.9913,-2.9913,-2.9913,-2.9913,-2.9913,-2.9913,-2.9913,-2.9913,-2.9913,-2.9913,-2.9913,-2.9913,-2.9913,-2.978,-2.9486,-2.9446,-2.9299,-2.9045,-2.9045,-2.9005,-2.8938,-2.8938,-2.8938,-3.2229,-3.2031,-3.1836,-3.1582,-3.1387,-3.1191,-3.0937,-3.1035,-3.0976,-3.0227,0.0,0.0,0.0,0.0,0.0,0.0,-2.39,-2.4048,-2.4342,-2.5251,-2.6306,-2.7442,-2.7682,-2.7749,-2.7749,-2.7829,-2.7936,-2.807,-2.7682,-2.7522,-2.7696,-2.7375,-2.7081,-2.6827,-2.6653,-2.66,-2.664,-2.664,-2.6787,-2.7081,-2.7375,-2.7575,-2.7709,-2.8087,-2.8221,-2.8221,-2.8221,-2.8221,-2.8221,-2.8221,-2.8221,-2.8221,-2.8221,-2.8221,-2.8248,-2.835,-2.8497,-2.8671,-2.9138,-2.9379,-2.9526,-2.982,-2.9913,-2.9913,-2.9913,-2.9913,-2.9913,-2.9913,-2.9913,-2.9913,-2.9913,-2.9913,-2.9913,-2.9913,-2.9913,-2.9913,-2.9913,-2.9913,-2.9913,-2.9913,-2.9913,-2.9913,-2.9913,-2.9913,-2.9913,-2.9913,-2.9913,-2.9913,-2.9913,-2.9913,-2.9913,-2.9913,-2.9913,-2.9913,-2.9913,-2.9913,-2.9913,-2.9913,-2.9913,-2.9913,-2.9913,-2.9913,-2.986,-2.974,-2.974,-2.9673,-2.9553,-2.9553,-2.9553,-2.9539,-2.9192,-2.9045,-3.2656,-3.2519,-3.2266,-3.1953,-3.1699,-3.1406,-3.0996,-3.0976,-3.1055,-3.1055,-3.0227,0.0,0.0,0.0,-2.5564,-2.5655,0.0,-2.4287,-2.4674,-2.4796,-2.5264,-2.6226,-2.656,-2.6734,-2.6814,-2.7134,-2.7402,-2.7562,-2.7241,-2.7148,-2.7442,-2.7134,-2.6907,-2.6827,-2.6613,-2.6613,-2.6814,-2.6827,-2.6974,-2.7268,-2.7562,-2.7749,-2.7829,-2.8127,-2.8221,-2.8221,-2.8221,-2.8221,-2.8221,-2.8221,-2.8221,-2.8221,-2.8221,-2.8274,-2.8297,-2.8524,-2.8657,-2.8804,-2.9312,-2.9539,-2.9633,-2.9847,-2.9913,-2.9913,-2.9913,-2.9913,-2.9913,-2.9913,-2.9913,-2.9913,-2.9913,-2.9913,-2.9913,-2.9913,-2.9913,-2.9913,-2.9913,-2.9913,-2.9913,-2.9913,-2.9913,-2.9913,-2.9913,-2.9913,-2.9913,-2.9913,-2.9913,-2.9913,-2.9913,-2.9913,-2.9913,-2.9913,-2.9913,-2.9913,-2.9913,-2.9913,-2.9913,-2.9913,-2.9913,-2.9913,-2.9913,-2.9913,-2.9913,-2.9913,-2.9913,-2.9913,-2.9913,-2.9913,-2.9913,-2.99,-2.9472,-2.9285,-3.3906,-3.3398,-3.2773,-3.2754,-3.2129,-3.1406,-3.0996,-3.1211,-3.1504,-3.1504,-3.1776,-3.1604,-2.9934,-2.9563,0.0,0.0,-2.6155,0.0,0.0,-2.4456,-2.3834,-2.4997,-2.5892,-2.6507,-2.6787,-2.6587,-2.6667,-2.7241,-2.6747,-2.6547,-2.6827,-2.7108,-2.7121,-2.6827,-2.6814,-2.6814,-2.6827,-2.6827,-2.6974,-2.7268,-2.7562,-2.7856,-2.8207,-2.8221,-2.8221,-2.8221,-2.8221,-2.8221,-2.8221,-2.8221,-2.8221,-2.8221,-2.8221,-2.8323,-2.8591,-2.8604,-2.8778,-2.9072,-2.9379,-2.9673,-2.99,-2.9913,-2.9913,-2.9913,-2.9913,-2.9913,-2.9913,-2.9913,-2.9913,-2.9913,-2.9913,-2.9913,-2.9913,-2.9913,-2.9913,-2.9913,-2.9913,-2.9913,-2.9913,-2.9913,-2.9913,-2.9913,-2.9913,-2.9913,-2.9913,-2.9913,-2.9913,-2.9913,-2.9913,-2.9913,-2.9913,-2.9913,-2.9913,-2.9913,-2.9913,-2.9913,-2.9913,-2.9913,-2.9913,-2.9913,-2.9913,-2.9913,-2.9913,-2.9913,-2.9913,-2.9913,-2.9913,-2.9913,-2.9913,-2.9913,-2.99,-2.9887,-3.4023,-3.3867,-3.3574,-3.3281,-3.2578,-3.1836,-3.1406,-3.1406,-3.1601,-3.1894,-3.207,-3.2124,-3.1803,-3.0828,0.0,0.0,0.0,0.0,0.0,-2.416,-2.3313,-2.4115,-2.481,-2.5264,-2.5371,-2.5638,-2.5972,-2.6373,-2.6039,-2.6026,-2.6507,-2.6627,-2.672,-2.6814,-2.7014,-2.7215,-2.7402,-2.7402,-2.7549,-2.7926,-2.8033,-2.8127,-2.8221,-2.8221,-2.8221,-2.8221,-2.8221,-2.8221,-2.8221,-2.8221,-2.8221,-2.8221,-2.8221,-2.8337,-2.8631,-2.8818,-2.9085,-2.9379,-2.9673,-2.9833,-2.9913,-2.9913,-2.9913,-2.9913,-2.9913,-2.9913,-2.9913,-2.9913,-2.9913,-2.9913,-2.9913,-2.9913,-2.9913,-2.9913,-2.9913,-2.9913,-2.9913,-2.9913,-2.9913,-2.9913,-2.9913,-2.9913,-2.9913,-2.9913,-2.9913,-2.9913,-2.9913,-2.9913,-2.9913,-2.9913,-2.9913,-2.9913,-2.9913,-2.9913,-2.9913,-2.9913,-2.9913,-2.9913,-2.9913,-2.9913,-2.9913,-2.9913,-2.9913,-2.9913,-2.9913,-2.9913,-2.9913,-2.9913,-2.9913,-2.9913,-2.9913,-2.9913,-3.4492,-3.4414,-3.4238,-3.3945,-3.3359,-3.2734,-3.2285,-3.2324,-3.2539,-3.2988,-3.2949,-3.3027,-3.3613,-3.2416,-3.1355,0.0,0.0,0.0,0.0,-2.409,-2.3207,-2.3714,-2.4102,-2.4449,-2.4756,-2.4943,-2.5251,-2.5758,-2.5424,-2.5451,-2.6052,-2.6373,-2.6627,-2.6814,-2.7215,-2.7509,-2.7696,-2.7696,-2.7789,-2.7989,-2.8181,-2.8221,-2.8221,-2.8221,-2.8221,-2.8221,-2.8221,-2.8221,-2.8221,-2.8221,-2.8221,-2.8234,-2.8355,-2.8497,-2.8778,-2.8965,-2.9299,-2.9659,-2.9847,-2.9913,-2.9913,-2.9913,-2.9913,-2.9913,-2.9913,-2.9913,-2.9913,-2.9913,-2.9913,-2.9913,-2.9913,-2.9913,-2.9913,-2.9913,-2.9913,-2.9913,-2.9913,-2.9913,-2.9913,-2.9913,-2.9913,-2.9913,-2.9913,-2.9913,-2.9913,-2.9913,-2.9913,-2.9913,-2.9913,-2.9913,-2.9913,-2.9913,-2.9913,-2.9913,-2.9913,-2.9913,-2.9913,-2.9913,-2.9913,-2.9913,-2.9913,-2.9913,-2.9913,-2.9913,-2.9913,-2.9913,-2.9913,-2.9913,-2.9913,-2.9913,-2.9913,-2.9913]},{"header":{"parameterUnit":"m.s-1","parameterCategory":1,"la1":30.6,"la2":29.2853,"lo1":-89.7004,"lo2":-87.6739,"dy":0.0162,"dx":0.0183,"nx":112,"ny":82,"refTime":"2026-04-18T12:00:00:Z","depth":0,"parameterNumber":3,"parameterNumberName":"V-component_of_WINDS"},"data":[0.0,0.0,0.0,0.0,0.0,0.0,0.0,0.0,0.0,0.0,0.0,0.0,0.0,0.0,0.0,0.0,0.0,0.0,0.0,0.0,0.0,0.0,0.0,0.0,0.0,0.0,0.0,0.0,0.0,0.0,0.0,0.0,0.0,0.0,0.0,0.0,0.0,0.0,0.0,0.0,0.0,0.0,0.0,0.0,0.0,0.0,0.0,0.0,0.0,0.0,0.0,0.0,0.0,0.0,0.0,0.0,0.0,0.0,0.0,0.0,0.0,0.0,0.0,0.0,0.0,0.0,0.0,0.0,0.0,0.0,0.0,0.0,0.0,0.0,0.0,0.0,0.0,0.0,0.0,0.0,0.0,0.0,0.0,0.0,0.0,0.0,0.0,0.0,0.0,0.0,2.7947,2.683,2.5755,2.5126,2.5294,2.6213,2.6743,2.6771,0.0,0.0,0.0,0.0,0.0,0.0,0.0,0.0,0.0,0.0,0.0,0.0,0.0,0.0,0.0,0.0,0.0,0.0,0.0,0.0,0.0,0.0,0.0,0.0,0.0,0.0,0.0,0.0,0.0,0.0,0.0,0.0,0.0,0.0,0.0,0.0,0.0,0.0,0.0,0.0,0.0,0.0,0.0,0.0,0.0,0.0,0.0,0.0,0.0,0.0,0.0,0.0,0.0,0.0,0.0,0.0,0.0,0.0,0.0,0.0,0.0,0.0,0.0,0.0,0.0,0.0,0.0,0.0,0.0,0.0,0.0,0.0,0.0,0.0,0.0,0.0,0.0,0.0,0.0,0.0,0.0,0.0,0.0,0.0,0.0,0.0,0.0,0.0,0.0,0.0,0.0,0.0,0.0,0.0,0.0,0.0,0.0,0.0,0.0,0.0,0.0,0.0,0.0,0.0,2.9106,2.7964,2.6871,2.6625,2.7522,2.7763,2.7852,2.7878,0.0,0.0,0.0,0.0,0.0,0.0,0.0,0.0,0.0,0.0,0.0,0.0,0.0,0.0,0.0,0.0,0.0,0.0,0.0,0.0,0.0,0.0,0.0,0.0,0.0,0.0,0.0,0.0,0.0,0.0,0.0,0.0,0.0,0.0,0.0,0.0,0.0,0.0,0.0,0.0,0.0,0.0,0.0,0.0,0.0,0.0,0.0,0.0,0.0,0.0,0.0,0.0,0.0,0.0,0.0,0.0,0.0,0.0,0.0,0.0,0.0,0.0,0.0,0.0,0.0,0.0,0.0,0.0,0.0,0.0,0.0,0.0,0.0,0.0,0.0,0.0,0.0,0.0,0.0,0.0,0.0,0.0,0.0,0.0,0.0,0.0,0.0,0.0,0.0,0.0,0.0,0.0,0.0,0.0,0.0,0.0,0.0,0.0,0.0,0.0,0.0,0.0,0.0,2.9804,2.9365,2.8227,2.7643,2.7562,2.8044,2.8084,2.8207,2.8525,2.9327,0.0,0.0,0.0,0.0,0.0,0.0,0.0,0.0,0.0,0.0,0.0,0.0,0.0,0.0,0.0,0.0,0.0,0.0,0.0,0.0,0.0,0.0,0.0,0.0,0.0,0.0,0.0,0.0,0.0,0.0,0.0,0.0,0.0,0.0,0.0,0.0,0.0,0.0,0.0,0.0,0.0,0.0,0.0,0.0,0.0,0.0,0.0,0.0,0.0,0.0,0.0,0.0,0.0,0.0,0.0,0.0,0.0,0.0,0.0,0.0,0.0,0.0,0.0,0.0,0.0,0.0,0.0,0.0,0.0,0.0,0.0,0.0,0.0,0.0,0.0,0.0,0.0,0.0,0.0,0.0,0.0,0.0,0.0,0.0,0.0,0.0,0.0,0.0,0.0,0.0,0.0,0.0,0.0,0.0,0.0,0.0,0.0,0.0,0.0,0.0,0.0,0.0,2.9804,2.9443,2.8585,2.8505,2.8505,2.8505,2.8505,2.8626,2.8875,2.9478,0.0,0.0,0.0,0.0,0.0,0.0,0.0,0.0,0.0,0.0,0.0,0.0,0.0,0.0,0.0,0.0,0.0,0.0,0.0,0.0,0.0,0.0,0.0,0.0,0.0,0.0,0.0,0.0,0.0,0.0,0.0,0.0,0.0,0.0,0.0,0.0,0.0,0.0,0.0,0.0,0.0,0.0,0.0,0.0,0.0,0.0,0.0,0.0,0.0,0.0,0.0,0.0,0.0,0.0,0.0,0.0,0.0,0.0,0.0,0.0,0.0,0.0,0.0,0.0,0.0,0.0,0.0,0.0,0.0,0.0,0.0,0.0,0.0,0.0,0.0,0.0,0.0,0.0,0.0,0.0,0.0,0.0,0.0,0.0,0.0,0.0,0.0,0.0,0.0,0.0,0.0,0.0,0.0,0.0,0.0,0.0,0.0,0.0,0.0,0.0,0.0,0.0,2.9804,2.974,2.9702,2.9663,2.9663,2.9663,2.9663,2.9451,2.8938,2.9478,0.0,0.0,0.0,0.0,0.0,0.0,0.0,0.0,0.0,0.0,0.0,0.0,0.0,0.0,0.0,0.0,0.0,0.0,0.0,0.0,0.0,0.0,0.0,0.0,0.0,0.0,0.0,0.0,0.0,0.0,0.0,0.0,0.0,0.0,0.0,0.0,0.0,0.0,0.0,0.0,0.0,0.0,0.0,0.0,0.0,0.0,0.0,0.0,0.0,0.0,0.0,0.0,0.0,0.0,0.0,0.0,0.0,0.0,0.0,0.0,0.0,0.0,0.0,0.0,0.0,0.0,0.0,0.0,0.0,0.0,0.0,0.0,0.0,0.0,0.0,0.0,0.0,0.0,0.0,0.0,0.0,0.0,0.0,0.0,0.0,0.0,0.0,0.0,0.0,0.0,0.0,0.0,0.0,0.0,0.0,0.0,0.0,0.0,0.0,0.0,0.0,0.0,2.9804,2.9804,2.9804,2.9804,2.9804,2.9804,2.9804,2.9704,2.9478,0.0,0.0,0.0,0.0,0.0,0.0,0.0,0.0,0.0,0.0,0.0,0.0,0.0,0.0,0.0,0.0,0.0,0.0,0.0,0.0,0.0,0.0,0.0,0.0,0.0,0.0,0.0,0.0,0.0,0.0,0.0,0.0,0.0,0.0,0.0,0.0,0.0,0.0,0.0,0.0,0.0,0.0,0.0,0.0,0.0,0.0,0.0,0.0,0.0,0.0,0.0,0.0,0.0,0.0,0.0,0.0,0.0,0.0,0.0,0.0,0.0,0.0,0.0,0.0,0.0,0.0,0.0,0.0,0.0,0.0,0.0,0.0,0.0,0.0,0.0,0.0,0.0,0.0,0.0,0.0,0.0,0.0,0.0,0.0,0.0,0.0,0.0,0.0,0.0,0.0,0.0,0.0,0.0,0.0,0.0,0.0,0.0,0.0,0.0,0.0,0.0,0.0,2.9804,2.9804,2.9854,3.003,3.0055,3.0105,3.0281,3.0156,2.998,2.9804,0.0,0.0,0.0,0.0,0.0,0.0,0.0,0.0,0.0,0.0,0.0,0.0,0.0,0.0,0.0,0.0,0.0,0.0,0.0,0.0,0.0,0.0,0.0,0.0,0.0,0.0,0.0,0.0,0.0,0.0,0.0,0.0,0.0,0.0,0.0,0.0,0.0,0.0,0.0,0.0,0.0,0.0,0.0,0.0,0.0,0.0,0.0,0.0,0.0,0.0,0.0,0.0,0.0,0.0,0.0,0.0,0.0,0.0,0.0,0.0,0.0,0.0,0.0,0.0,0.0,0.0,0.0,0.0,0.0,0.0,0.0,0.0,0.0,0.0,0.0,0.0,0.0,0.0,0.0,0.0,0.0,0.0,0.0,0.0,0.0,0.0,0.0,0.0,0.0,0.0,0.0,0.0,0.0,0.0,0.0,0.0,0.0,0.0,0.0,0.0,0.0,0.0,2.9804,2.9804,3.0005,3.0557,3.0633,3.0834,3.1336,3.0909,3.0382,0.0,0.0,0.0,0.0,0.0,0.0,0.0,0.0,0.0,0.0,0.0,0.0,0.0,0.0,0.0,0.0,0.0,0.0,0.0,0.0,0.0,0.0,0.0,0.0,0.0,0.0,0.0,0.0,0.0,0.0,0.0,0.0,0.0,0.0,0.0,0.0,0.0,0.0,0.0,0.0,0.0,0.0,0.0,0.0,0.0,0.0,0.0,0.0,0.0,0.0,0.0,0.0,0.0,0.0,0.0,0.0,0.0,0.0,0.0,0.0,0.0,0.0,0.0,0.0,0.0,0.0,0.0,0.0,0.0,0.0,0.0,0.0,0.0,0.0,0.0,0.0,0.0,0.0,0.0,0.0,0.0,0.0,0.0,0.0,0.0,0.0,0.0,0.0,0.0,0.0,0.0,0.0,0.0,0.0,0.0,0.0,0.0,0.0,0.0,0.0,0.0,0.0,0.0,3.0435,3.133,3.1836,3.1216,3.116,3.1235,3.1386,3.0909,3.0382,2.9829,0.0,0.0,0.0,0.0,0.0,0.0,0.0,0.0,0.0,0.0,0.0,0.0,0.0,0.0,0.0,0.0,0.0,0.0,0.0,0.0,0.0,0.0,0.0,0.0,0.0,0.0,0.0,0.0,0.0,0.0,0.0,0.0,0.0,0.0,0.0,0.0,0.0,0.0,0.0,0.0,0.0,0.0,0.0,0.0,0.0,0.0,0.0,0.0,0.0,0.0,0.0,0.0,0.0,0.0,0.0,0.0,0.0,0.0,0.0,0.0,0.0,0.0,0.0,0.0,0.0,0.0,0.0,0.0,0.0,0.0,0.0,0.0,0.0,0.0,0.0,0.0,0.0,0.0,0.0,0.0,0.0,0.0,0.0,0.0,0.0,0.0,0.0,0.0,0.0,0.0,0.0,0.0,0.0,0.0,0.0,0.0,0.0,0.0,0.0,0.0,0.0,0.0,3.1873,3.2874,3.3483,3.3053,3.3,3.3078,3.3288,3.2817,3.2162,3.1389,0.0,0.0,0.0,0.0,0.0,0.0,0.0,0.0,0.0,0.0,0.0,0.0,0.0,0.0,0.0,0.0,0.0,0.0,0.0,0.0,0.0,0.0,0.0,0.0,0.0,0.0,0.0,0.0,0.0,0.0,0.0,0.0,0.0,0.0,0.0,0.0,0.0,0.0,0.0,0.0,0.0,0.0,0.0,0.0,0.0,0.0,0.0,0.0,0.0,0.0,0.0,0.0,0.0,0.0,0.0,0.0,0.0,0.0,0.0,0.0,0.0,0.0,0.0,0.0,0.0,0.0,0.0,0.0,0.0,0.0,0.0,0.0,0.0,0.0,0.0,0.0,0.0,0.0,0.0,0.0,0.0,0.0,0.0,0.0,0.0,0.0,0.0,0.0,0.0,0.0,0.0,0.0,0.0,0.0,0.0,0.0,0.0,0.0,0.0,0.0,0.0,0.0,3.3697,3.4381,3.5058,3.546,3.5477,3.567,3.6156,3.5726,3.4906,3.3697,0.0,0.0,0.0,0.0,0.0,0.0,0.0,0.0,0.0,0.0,0.0,0.0,0.0,0.0,0.0,0.0,0.0,0.0,0.0,0.0,0.0,0.0,0.0,0.0,0.0,0.0,0.0,0.0,0.0,0.0,0.0,0.0,0.0,0.0,0.0,0.0,0.0,0.0,0.0,0.0,0.0,0.0,0.0,0.0,0.0,0.0,0.0,0.0,0.0,0.0,0.0,0.0,0.0,0.0,0.0,0.0,0.0,0.0,0.0,0.0,4.2623,4.139,0.0,0.0,0.0,0.0,0.0,0.0,0.0,0.0,0.0,0.0,0.0,0.0,0.0,0.0,0.0,0.0,0.0,0.0,0.0,0.0,0.0,0.0,0.0,0.0,0.0,0.0,0.0,0.0,0.0,0.0,0.0,0.0,0.0,0.0,0.0,0.0,0.0,0.0,0.0,0.0,3.4335,3.5911,3.6835,3.6136,3.6018,3.6073,3.6184,3.5726,3.4906,3.3697,3.296,0.0,0.0,0.0,0.0,0.0,0.0,0.0,0.0,0.0,0.0,0.0,0.0,0.0,0.0,0.0,0.0,0.0,0.0,0.0,0.0,0.0,0.0,0.0,0.0,0.0,0.0,0.0,0.0,0.0,0.0,0.0,0.0,0.0,0.0,0.0,0.0,0.0,0.0,0.0,0.0,0.0,0.0,0.0,0.0,0.0,0.0,0.0,0.0,0.0,0.0,0.0,0.0,0.0,0.0,0.0,0.0,0.0,0.0,0.0,4.4915,4.3609,0.0,0.0,0.0,0.0,0.0,0.0,0.0,0.0,0.0,0.0,0.0,0.0,0.0,0.0,0.0,0.0,0.0,0.0,0.0,0.0,0.0,0.0,0.0,0.0,0.0,0.0,0.0,0.0,0.0,0.0,0.0,0.0,0.0,0.0,0.0,0.0,0.0,0.0,0.0,0.0,3.6353,3.7907,3.8835,3.8275,3.8208,3.8093,3.7738,3.7489,3.6921,3.5978,3.5021,0.0,0.0,0.0,0.0,0.0,0.0,0.0,0.0,0.0,0.0,0.0,0.0,0.0,0.0,0.0,0.0,0.0,0.0,0.0,0.0,0.0,0.0,0.0,0.0,0.0,0.0,0.0,0.0,0.0,0.0,0.0,0.0,0.0,0.0,0.0,0.0,0.0,0.0,0.0,0.0,0.0,0.0,0.0,0.0,0.0,0.0,0.0,0.0,0.0,0.0,0.0,0.0,0.0,4.9629,4.9988,4.9988,4.9988,4.9988,4.9868,4.7489,4.6232,4.5723,4.4646,0.0,0.0,0.0,0.0,0.0,0.0,0.0,0.0,0.0,0.0,0.0,0.0,0.0,0.0,0.0,0.0,0.0,0.0,0.0,0.0,0.0,0.0,4.1765,4.1802,4.2136,4.1954,4.0163,0.0,0.0,0.0,0.0,0.0,0.0,0.0,0.0,0.0,0.0,0.0,3.8452,3.9649,4.0457,4.0546,4.0576,4.0337,3.9798,3.9768,3.9409,3.8631,3.7464,3.6477,0.0,0.0,0.0,0.0,0.0,0.0,0.0,0.0,0.0,0.0,0.0,0.0,0.0,0.0,0.0,0.0,0.0,0.0,0.0,0.0,0.0,0.0,0.0,0.0,0.0,0.0,0.0,0.0,0.0,0.0,0.0,0.0,4.6591,4.5424,0.0,0.0,0.0,0.0,0.0,0.0,0.0,0.0,0.0,0.0,0.0,0.0,0.0,4.8356,4.906,5.0212,5.084,5.084,5.2067,5.2714,5.2714,5.2714,5.2714,5.2606,5.1678,0.0,4.7878,4.7698,0.0,0.0,0.0,0.0,0.0,0.0,0.0,0.0,0.0,0.0,0.0,0.0,0.0,0.0,0.0,0.0,0.0,0.0,0.0,0.0,0.0,0.0,4.7252,4.7325,4.6907,4.6303,4.5448,4.2191,3.917,3.8302,3.8212,3.7853,0.0,0.0,0.0,0.0,0.0,0.0,3.911,3.9948,4.0606,4.1242,4.1302,4.1205,4.1115,4.1115,4.0606,3.9379,3.8571,3.7614,3.6417,3.5102,0.0,0.0,0.0,0.0,0.0,0.0,0.0,0.0,0.0,0.0,0.0,0.0,0.0,0.0,0.0,0.0,0.0,0.0,0.0,0.0,0.0,0.0,0.0,0.0,0.0,0.0,0.0,0.0,0.0,4.7878,4.8327,4.6621,4.8177,4.8356,0.0,0.0,0.0,0.0,0.0,0.0,0.0,0.0,0.0,5.2539,5.2602,5.3059,5.4121,5.5031,5.5297,5.4923,5.5875,5.6373,5.6373,5.6373,5.6373,5.6342,5.5625,5.4456,5.281,5.0031,4.8421,4.7668,0.0,0.0,0.0,0.0,4.7136,4.7183,4.909,4.9047,4.8152,4.822,0.0,0.0,0.0,0.0,0.0,0.0,0.0,4.4894,4.5978,4.6724,4.7301,4.7649,4.7201,4.6593,4.634,4.4654,4.2656,4.0708,3.9864,3.899,3.7285,3.7315,0.0,0.0,0.0,3.8452,3.9798,4.0546,4.1205,4.1901,4.1961,4.1811,4.1414,4.1422,4.1145,4.0546,3.9888,3.911,3.8182,3.7195,3.636,0.0,0.0,0.0,0.0,0.0,0.0,0.0,0.0,0.0,0.0,0.0,0.0,0.0,0.0,0.0,0.0,0.0,0.0,0.0,0.0,0.0,0.0,0.0,0.0,0.0,0.0,0.0,0.0,4.9284,4.9942,4.7818,4.9704,5.0185,0.0,0.0,0.0,0.0,0.0,0.0,5.1821,5.3314,5.4952,5.6606,5.667,5.7205,5.8414,5.871,5.8614,5.8057,5.8556,5.8812,5.8812,5.8812,5.8812,5.878,5.8089,5.748,5.6678,5.2608,5.0586,5.0006,4.9475,4.9363,4.9491,4.9752,4.99,5.02,5.2167,5.208,5.1112,5.1112,4.9336,4.6923,4.5275,0.0,0.0,0.0,0.0,4.6441,4.7487,4.7816,4.7946,4.8394,4.8007,4.7422,4.7227,4.673,4.5576,4.3151,4.2098,4.0913,3.8663,3.8689,0.0,3.7203,3.7793,3.8871,4.0217,4.0816,4.1422,4.2081,4.2291,4.2201,4.1722,4.1773,4.1803,4.1692,4.122,4.0704,4.0039,3.9595,3.8818,3.7689,0.0,0.0,0.0,0.0,0.0,0.0,0.0,0.0,0.0,0.0,0.0,0.0,0.0,0.0,0.0,0.0,0.0,0.0,0.0,0.0,0.0,0.0,0.0,0.0,0.0,0.0,0.0,0.0,0.0,4.8536,5.1408,0.0,0.0,0.0,0.0,5.4475,5.513,5.5836,5.652,5.727,5.7964,5.8722,5.8754,5.9062,5.9799,5.9132,5.8812,5.8748,5.878,5.8812,5.8812,5.8812,5.8812,5.878,5.8089,5.778,5.7652,5.6007,5.4569,5.3373,5.33,5.2933,5.2523,5.3455,5.3827,5.4076,5.5895,5.6014,5.5407,5.5407,5.2834,4.9553,4.876,4.7463,0.0,0.0,4.8595,4.916,5.1396,5.1999,5.1999,5.2032,5.1493,5.075,5.0042,4.8158,4.6291,4.5225,4.4987,4.4042,4.1146,0.0,4.0143,3.8567,3.8362,3.8871,4.0217,4.0427,4.0696,4.1392,4.2021,4.2381,4.2351,4.288,4.297,4.2381,4.2487,4.2252,4.1608,4.1778,4.1534,4.0799,4.0861,0.0,0.0,0.0,0.0,0.0,0.0,0.0,0.0,0.0,0.0,0.0,0.0,0.0,0.0,0.0,0.0,0.0,0.0,0.0,0.0,0.0,0.0,0.0,0.0,0.0,0.0,0.0,0.0,5.2051,5.5323,0.0,5.5165,5.5655,5.6316,5.6873,5.818,5.9081,5.9343,6.0266,6.1094,6.1858,6.1891,6.1949,6.2215,6.1983,6.1617,6.1119,6.1119,6.1119,6.1119,6.1119,6.1119,6.1119,6.0853,6.0455,5.999,5.9491,5.774,5.5194,5.477,5.4569,5.4612,5.4974,5.542,5.5926,5.659,5.663,5.619,5.4769,5.2977,5.1329,5.0558,4.9925,4.9593,5.019,5.0692,5.1127,5.1524,5.1961,5.2198,5.1725,5.1048,5.0405,5.0135,4.907,4.8048,4.7697,4.632,4.4571,4.2644,4.2639,4.2284,4.0347,4.0438,4.1064,4.1969,4.2094,4.231,4.2997,4.331,4.3434,4.3434,4.3617,4.3867,4.4127,4.3784,4.3453,4.3234,4.3352,4.2879,4.1725,4.271,4.2302,0.0,0.0,0.0,0.0,0.0,0.0,0.0,0.0,0.0,0.0,0.0,0.0,0.0,0.0,0.0,0.0,0.0,0.0,0.0,0.0,0.0,0.0,0.0,0.0,0.0,5.5473,5.7279,5.5738,5.8927,6.0712,5.9188,5.9324,5.9788,6.0551,6.1243,6.1883,6.2349,6.3067,6.3599,6.3869,6.3869,6.3768,6.3531,6.326,6.2888,6.2381,6.2381,6.2381,6.2381,6.2381,6.2381,6.2381,6.2381,6.211,6.1637,6.14,5.9967,5.7809,5.6806,5.6452,5.6461,5.6461,5.6765,5.7171,5.7171,5.7002,5.6528,5.4803,5.3721,5.2942,5.2198,5.1995,5.1995,5.1995,5.2334,5.2604,5.2097,5.2334,5.2503,5.1758,5.1183,5.071,5.0202,4.9729,4.9289,4.9052,4.7633,4.5995,4.4529,4.4625,4.43,4.2398,4.227,4.2526,4.2973,4.2845,4.2845,4.3259,4.3515,4.3674,4.3674,4.3864,4.4218,4.4697,4.4327,4.4106,4.4171,4.4464,4.4069,4.2986,4.3701,4.334,4.1938,0.0,0.0,0.0,0.0,0.0,0.0,0.0,0.0,0.0,0.0,0.0,0.0,0.0,0.0,0.0,0.0,0.0,0.0,0.0,0.0,0.0,0.0,0.0,5.6349,5.8429,5.9974,5.9464,6.2112,6.3738,6.3176,6.2762,6.3463,6.5595,6.441,6.4208,6.5595,6.5662,6.5324,6.4613,6.458,6.4241,6.3531,6.2753,6.2381,6.2381,6.2381,6.2381,6.2381,6.2381,6.2381,6.2381,6.2381,6.2381,6.2347,6.1637,6.1332,6.1163,5.9607,5.8558,5.7915,5.7915,5.7881,5.7881,5.7881,5.7408,5.6697,5.5987,5.5209,5.4465,5.3754,5.3518,5.3518,5.3518,5.3518,5.3518,5.3518,5.3518,5.3315,5.2536,5.2334,5.1894,5.0473,5.0135,4.9864,4.9187,4.9018,4.85,4.6908,4.6647,4.6093,4.4524,4.3651,0.0,4.3233,4.2591,4.2174,4.2174,4.2718,4.3102,4.3102,4.3677,4.4061,4.4093,4.4235,4.4313,4.4346,4.5198,4.5365,4.4682,4.3876,4.3443,4.3443,0.0,0.0,0.0,0.0,0.0,0.0,0.0,0.0,0.0,0.0,0.0,0.0,0.0,0.0,0.0,0.0,0.0,0.0,0.0,0.0,0.0,5.9136,6.1109,5.9956,6.1847,6.3484,6.386,6.6115,6.7598,6.7396,6.6778,6.6643,6.7252,6.5933,6.5256,6.5662,6.5189,6.4816,6.4613,6.4106,6.3734,6.3531,6.2753,6.2381,6.2381,6.2381,6.2381,6.2381,6.2381,6.2381,6.2381,6.2381,6.2381,6.2381,6.2178,6.1772,6.1163,5.9607,5.8896,5.8626,5.8084,5.7881,5.7881,5.7881,5.7408,5.6765,5.6562,5.5649,5.4566,5.4363,5.3923,5.3518,5.3518,5.3518,5.3518,5.3518,5.3518,5.345,5.3213,5.2739,5.2198,5.1792,5.0845,5.0033,4.983,4.9357,4.8686,4.7698,4.7533,4.7203,4.6219,4.5888,4.5754,4.5754,4.5587,4.5487,4.5487,4.5654,4.5757,4.5757,4.5427,4.546,4.6024,4.5068,4.4778,4.5287,4.5587,4.5872,4.6177,4.4925,4.4248,0.0,0.0,0.0,0.0,0.0,0.0,0.0,0.0,0.0,0.0,0.0,0.0,0.0,0.0,0.0,0.0,0.0,0.0,0.0,0.0,0.0,0.0,6.166,6.3835,6.4038,6.5459,6.6508,6.6609,6.8368,6.9316,6.8673,6.7895,6.7455,6.7455,6.6339,6.5831,6.6136,6.5764,6.5392,6.5053,6.4647,6.4275,6.3971,6.3226,6.2854,6.2854,6.255,6.2381,6.2381,6.2381,6.2381,6.2381,6.2381,6.2381,6.2381,6.2381,6.2144,6.1637,0.0,0.0,0.0,0.0,5.8152,5.7881,5.7881,5.7611,5.7205,5.69,5.6021,5.5006,5.4668,5.4093,5.3518,5.3518,5.3518,5.3518,5.3518,5.3518,5.3518,5.3518,5.3145,5.2706,5.2367,5.1623,5.0845,5.0202,4.9729,0.0,4.8511,4.8376,4.824,4.78,4.7462,4.7259,4.7259,4.6989,4.6786,4.6786,4.6786,4.6786,4.6786,4.6413,0.0,0.0,0.0,4.5094,4.5229,4.5229,0.0,0.0,0.0,0.0,0.0,4.3701,0.0,0.0,4.3234,4.3098,0.0,0.0,0.0,0.0,0.0,0.0,0.0,0.0,0.0,0.0,0.0,0.0,0.0,0.0,0.0,0.0,6.4275,6.6237,6.7489,6.8504,6.8842,6.8132,6.9248,6.9519,6.8166,6.7354,6.6948,6.6948,6.6237,6.6102,6.6779,6.6812,0.0,0.0,0.0,6.5392,6.4715,6.4005,6.3632,6.3632,6.2956,6.2584,6.2516,6.2516,6.2482,6.2381,6.2381,6.2381,6.2381,6.2381,6.2381,6.2313,6.1603,6.0757,5.9911,5.9268,5.8524,5.7881,5.7881,0.0,0.0,5.7137,5.6427,5.5716,5.504,5.4329,5.3754,5.3653,5.3619,5.3619,5.3518,5.3518,5.3518,5.3518,5.3518,5.3315,5.2604,5.2367,5.1894,5.0608,5.027,4.9999,4.9357,4.912,4.9018,4.9018,4.8443,4.8007,4.8007,4.7462,4.7056,4.7056,4.7056,0.0,4.7056,4.6955,4.665,4.6007,4.5872,4.5534,4.4886,4.4852,4.4852,4.4852,4.4852,4.4852,4.4852,4.4852,4.4852,4.4818,4.3335,4.3031,0.0,0.0,0.0,0.0,0.0,0.0,0.0,0.0,0.0,0.0,0.0,0.0,0.0,0.0,0.0,6.1434,6.4377,6.6474,6.617,6.7827,6.9045,6.8876,6.9113,6.9214,6.891,6.8166,6.7692,6.7692,6.7015,6.6643,6.6812,6.6812,6.6745,6.6609,6.6,6.5628,6.5493,6.4749,6.4377,6.4377,6.4241,0.0,6.3294,6.3294,6.2956,6.2381,6.2381,6.2381,6.2381,6.2381,6.2381,6.2313,6.1603,6.0452,5.9201,5.9066,5.8524,5.7881,5.7881,5.7881,5.7881,5.7712,5.7171,5.6562,5.6427,5.5852,0.0,5.4532,5.4397,5.4262,5.3653,5.3518,5.3518,5.3518,5.3518,5.345,5.3315,5.2773,5.2232,5.1928,5.1386,5.0947,5.0811,4.9796,4.9018,4.9018,4.8883,4.8781,4.8781,4.8646,4.8578,4.8578,4.8578,4.8578,4.8578,4.8037,4.7631,4.7466,4.6921,4.6515,4.638,4.6346,4.6346,4.6346,4.6346,4.6346,4.6346,4.6346,4.6346,4.6346,4.5466,4.5128,0.0,0.0,0.0,0.0,0.0,0.0,0.0,0.0,0.0,0.0,0.0,5.9235,6.0013,0.0,6.2651,6.3396,6.5358,6.6812,6.6812,6.7793,6.8368,6.7996,6.8267,6.8368,6.7996,6.759,6.7354,6.7354,6.7015,6.6812,6.6812,6.6812,6.6812,6.6812,6.644,6.6237,6.6237,6.5527,6.5155,6.5155,6.4783,6.441,6.4038,6.3666,6.3294,6.2922,6.255,6.2381,6.2381,6.2381,6.2381,6.2347,6.1975,6.1163,6.0148,6.0148,5.9438,5.8457,5.8457,5.822,5.7881,5.7881,5.7408,5.6799,5.6799,5.6292,5.5649,5.5243,5.5141,5.5074,5.4702,5.4329,5.4059,5.4059,5.3788,5.3518,5.3518,5.3179,5.2773,5.2367,5.1995,5.1657,5.1285,5.0608,4.9999,4.9593,4.9255,4.9018,4.9018,4.9018,4.9018,4.9018,4.9018,4.9018,4.9018,4.8342,4.7906,4.7906,4.7225,4.6786,4.6786,4.6786,4.6786,4.6786,4.6786,4.6786,4.6786,4.6786,4.6786,4.6786,4.6819,4.6616,0.0,0.0,0.0,0.0,0.0,0.0,0.0,5.9201,5.9336,6.052,6.052,6.0825,6.2516,6.3565,6.4546,6.573,6.6677,6.7455,6.8064,6.8132,6.7929,6.732,6.776,6.7827,6.7117,6.7015,6.6948,6.6812,6.6812,6.6812,6.6812,6.6812,6.6812,6.6812,6.6812,6.6812,6.6812,6.6203,6.5899,6.5899,6.5324,6.4952,6.4783,6.4208,6.3869,6.3666,6.2922,6.2516,6.2381,6.2381,6.2381,6.2381,6.2381,6.2042,6.1501,6.1366,6.0419,5.9201,5.9066,5.8626,5.8084,5.7949,5.7476,5.7002,5.7002,5.6596,5.6122,5.5953,5.5919,5.5886,5.575,5.5277,5.4803,5.4803,5.4262,5.3721,5.3721,5.3619,5.3315,5.2672,5.2536,5.2334,5.1758,5.1522,5.1183,5.0405,4.9695,4.9221,4.9221,4.9086,4.9018,4.9018,4.9018,4.9018,4.9018,4.8477,4.8108,4.8108,4.7564,4.7225,4.7225,4.7225,4.7225,4.7225,4.7225,4.7225,4.7225,4.7225,4.728,4.7427,4.801,4.7848,5.5277,5.5006,5.575,5.6494,5.7746,5.9167,0.0,6.2009,6.2922,6.3091,6.4106,6.4816,6.441,6.5493,6.6508,6.6677,6.7895,6.8876,6.8944,6.8977,6.8944,6.8842,6.891,6.8639,6.7861,6.7793,6.7523,6.688,6.6812,6.6812,6.6812,6.6812,6.6812,6.6812,6.6812,6.6812,6.6812,6.6745,6.6677,6.6677,6.6609,6.6203,6.5561,6.5493,6.5087,6.4444,6.37,6.3024,6.2381,6.2381,6.2381,6.2381,6.2381,6.2347,6.2178,6.1535,6.0757,5.9877,5.9235,5.8964,5.8795,5.8118,5.7814,5.778,5.778,5.7712,5.7509,5.6867,5.6697,5.6528,5.5886,5.5649,5.5581,5.5581,5.5006,5.4465,5.4465,5.3957,5.3484,5.3382,5.3382,5.3348,5.3281,5.2672,5.1928,5.1217,5.0439,4.9965,4.9965,4.939,4.9018,4.9018,4.9018,4.9018,4.9018,4.8917,4.8883,4.8883,4.8815,4.8748,4.8748,4.8748,4.8748,4.8748,4.8748,4.8748,4.8748,4.8748,4.9078,4.9648,4.9752,4.9032,5.6833,5.6731,5.7476,5.9539,6.0858,6.2144,6.4072,6.4647,6.5155,6.6508,6.688,6.7015,6.7184,6.7726,6.8132,6.8132,6.8673,6.9248,6.9688,6.9722,6.9722,6.9722,6.9722,6.9451,6.8673,6.8605,6.8267,6.7489,6.7455,6.7252,6.6846,6.6812,6.6812,6.6812,6.6812,6.6812,6.6812,6.6812,6.6812,6.6812,6.6812,6.6643,6.6339,6.5899,6.529,6.458,6.4275,6.3734,6.3057,6.3057,6.2787,6.2381,6.2381,6.2381,6.2347,6.2042,6.1467,6.0757,6.0452,5.9776,5.8964,5.866,5.8254,5.7881,5.7881,5.7881,5.7814,5.7509,5.7442,5.7374,5.707,5.6664,5.6359,5.6359,5.5784,5.5108,5.4668,5.4363,5.4025,5.3585,5.3518,5.3518,5.3518,5.3213,5.2909,5.2604,5.1522,5.0744,5.0744,5.0473,5.0304,5.0304,4.9898,4.9627,4.9627,4.9255,4.9018,4.9018,4.9018,4.9018,4.9018,4.9018,4.9018,4.9018,4.9372,4.9576,4.9576,5.0004,5.0369,5.0635,5.0635,5.0297,5.7645,5.8355,5.9708,6.211,6.3565,6.4884,6.6711,6.6677,6.6846,6.8707,6.8639,6.8402,6.8977,6.9282,6.9417,6.9417,6.9586,6.9891,7.0432,7.05,7.0432,7.0195,7.0195,6.9891,6.918,6.9113,6.8876,6.8267,6.803,6.7658,6.7151,6.6914,6.6812,6.6812,6.6812,6.6812,6.6812,6.6812,6.6812,6.6812,6.6812,6.6812,6.6779,6.6237,6.5595,6.4884,6.4884,6.4377,6.3531,6.3531,6.3057,6.2381,6.2381,6.2381,6.2381,6.2381,6.2042,6.1569,6.1366,6.0588,5.9607,5.9404,5.8795,5.8186,5.8186,5.8051,5.7881,5.7881,5.7881,5.7881,5.7881,5.7476,5.7103,5.7103,5.6562,5.5852,5.531,5.504,5.4702,5.3957,5.3788,5.3754,5.3551,5.3518,5.3518,5.3518,5.257,5.1758,5.1555,5.1352,5.1185,5.1185,5.0744,5.0405,5.0405,4.9932,4.9627,4.9627,4.9627,4.9627,4.9627,4.9627,4.9718,4.993,5.04,5.0771,5.0962,5.1511,5.1854,5.207,5.207,5.2172,5.7036,5.9471,6.2448,6.3294,6.5121,6.6914,6.7692,6.7861,6.8064,6.891,6.9079,6.9079,6.9113,6.9688,7.0161,7.0161,7.077,7.1244,7.1278,7.1278,7.1007,7.0263,7.0195,6.9891,6.918,6.9113,6.9079,6.9079,6.8335,6.7895,6.7861,6.7184,6.6812,6.6812,6.6812,6.6812,6.6812,6.6812,6.6812,6.6812,6.6812,6.6812,6.6812,6.6779,6.6373,6.5662,6.5662,6.485,6.3531,6.3531,6.3057,6.2381,6.2381,6.2381,6.2381,6.2381,6.2381,6.2245,6.1535,6.1264,6.1095,6.0317,5.9573,5.8998,5.8998,5.8457,5.7881,5.7881,5.7881,5.7881,5.7881,5.7881,5.7848,5.7848,5.7306,5.6765,5.6731,5.619,5.5446,5.4702,5.4566,5.4329,5.3619,5.3518,5.3518,5.3518,5.345,5.3145,5.2367,5.1657,5.1185,5.1185,5.1151,5.1183,5.1183,5.1151,5.1117,5.1117,5.1117,5.1117,5.1117,5.1117,5.1529,5.228,5.231,5.2682,5.337,5.3433,5.3778,5.4494,5.4494,5.4833,6.0047,6.2144,6.4275,6.6,6.6981,6.7861,6.9147,6.9045,6.891,6.9654,6.9451,6.8944,6.8402,6.8944,6.9451,6.9451,7.05,7.1312,7.1312,7.1312,7.0838,6.962,6.9451,6.9147,6.8368,6.9214,6.962,6.9147,6.8842,6.847,6.7929,6.7218,6.6812,6.6812,6.6812,6.6812,6.6812,6.6812,6.6812,6.6812,6.6812,6.6812,6.6812,6.6812,6.6677,6.644,6.644,6.5865,6.4952,6.4952,6.4241,6.3125,6.3125,6.2821,6.2381,6.2381,6.2381,6.2347,6.211,6.1704,6.1264,6.0994,6.0385,5.9641,5.9167,5.8829,5.8524,5.8017,5.7881,5.7881,5.7881,5.7881,5.7881,5.7881,5.7712,5.7408,5.69,5.6596,5.6224,5.548,5.5344,5.5243,5.5006,5.4972,5.4803,5.4296,5.3822,5.3416,5.3145,5.2875,5.2739,5.2739,5.2266,5.1928,5.1928,5.1488,5.1185,5.1185,5.1185,5.1439,5.1963,5.1993,5.2349,5.312,5.3584,5.3989,5.422,5.4677,5.5023,5.5268,5.5268,5.5395,6.2584,6.4681,6.6609,6.8301,6.8504,6.8639,6.9891,6.9417,6.8876,6.9654,6.9214,6.8504,6.7996,6.8098,6.847,6.9011,6.9891,7.0703,7.1244,7.1075,7.0466,6.9248,6.9113,6.8774,6.7996,6.9045,6.962,6.9147,6.9113,6.8741,6.7929,6.7218,6.6812,6.6812,6.6812,6.6812,6.6812,6.6812,6.6812,6.6812,6.6812,6.6812,6.6812,6.6812,6.6812,6.6812,6.6812,6.6373,6.5696,6.5696,6.4986,6.3869,6.3632,6.3226,6.2753,6.2482,6.2381,6.2381,6.2381,6.2076,6.167,6.167,6.1163,6.0452,5.9979,5.9641,5.9302,5.8829,5.8693,5.8693,5.8693,5.849,5.8287,5.8287,5.8084,5.7746,5.7306,5.7171,5.6968,5.6258,5.6089,5.6021,5.575,5.5681,5.5547,5.5074,5.46,5.4093,5.3585,5.3518,5.3618,5.3848,5.3403,5.3096,5.3096,5.2686,5.2413,5.2413,5.2413,5.2754,5.3562,5.3591,5.3929,5.4706,5.5184,5.5546,5.5825,5.6237,5.6455,5.6455,5.6455,5.6455,6.4546,6.6914,6.9316,7.0026,6.9654,6.935,7.0026,6.9045,6.8166,6.8876,6.8368,6.7793,6.7793,6.7218,6.7252,6.8808,6.9113,6.9654,7.1109,7.0703,6.9958,6.9248,6.9147,6.8842,6.803,6.8707,6.9147,6.9113,6.9079,6.8707,6.7929,6.7218,6.6812,6.6812,6.6812,6.6812,6.6812,6.6812,6.6812,6.6812,6.6812,6.6812,6.6812,6.6812,6.6812,6.6812,6.6812,6.6406,6.5764,6.5764,6.5324,6.458,6.3903,6.3599,6.3497,6.2719,6.2448,6.2448,6.2415,6.2381,6.2381,6.2381,6.1907,6.1366,6.1332,6.0757,6.0148,6.0114,6.0114,6.0114,6.0114,5.9573,5.9066,5.9066,5.8524,5.7983,5.7949,5.7949,5.7746,5.7002,5.6902,5.6701,5.6025,5.5958,5.5924,5.589,5.589,5.5313,5.3822,5.3619,5.3883,5.4575,5.4634,5.4634,5.4634,5.4634,5.4634,5.4634,5.4634,5.4999,5.5752,5.578,5.6114,5.6938,5.6964,5.7302,5.7997,5.7997,5.7997,5.7997,5.7997,5.7997,6.6576,6.847,6.9958,7.0128,7.006,6.9958,7.0161,6.9451,6.8673,6.8301,6.7151,6.6237,6.6237,6.6102,6.6474,6.7963,6.9147,7.0229,7.1176,7.1142,7.0737,6.9992,6.9925,6.962,6.8876,6.9485,6.9688,6.9147,6.8538,6.8132,6.7895,6.7218,6.6812,6.6812,6.6812,6.6812,6.6812,6.6812,6.6812,6.6812,6.6812,6.6812,6.6812,6.6812,6.6812,6.6812,6.6812,6.6711,6.6542,6.6542,6.6068,6.5392,6.5189,6.4783,6.4241,6.3497,6.3226,6.3159,6.2584,6.2381,6.2381,6.2381,6.2245,6.2009,6.1467,6.1163,6.0858,6.0283,6.0114,6.0114,6.0114,5.9945,5.981,5.981,5.9674,5.9404,5.8863,5.8727,5.849,5.7746,5.8114,5.8665,5.9114,5.9207,5.9032,5.8468,5.8363,5.7618,5.5426,5.5157,5.5199,5.542,5.5437,5.5437,5.5437,5.5437,5.5437,5.5437,5.5437,5.578,5.6563,5.6589,5.6927,5.7703,5.7726,5.7797,5.7997,5.7997,5.7997,5.7997,5.7997,5.7997,6.847,6.9789,7.0669,7.0669,7.0432,6.9925,6.8944,6.8132,6.7184,6.5764,6.458,6.3971,6.4613,6.4715,6.5425,6.7557,6.891,7.0094,7.1176,7.1041,7.0669,7.0229,7.0195,7.0026,6.962,6.9958,7.0026,6.962,6.9147,6.8774,6.8436,6.7692,6.7286,6.7286,6.7286,6.7286,6.7286,6.6981,6.6812,6.6812,6.6812,6.6812,6.6812,6.6812,6.6812,6.6812,6.6812,6.6812,6.6812,6.6812,6.6576,6.6136,6.5831,6.5425,6.4986,6.4241,6.4005,6.3937,6.3497,6.3159,6.2821,6.2516,6.2381,6.2313,6.1907,6.1772,6.167,6.1231,6.1095,6.1095,6.1095,6.0858,6.0622,6.0622,6.0351,5.9979,5.9573,5.9534,5.9454,5.9081,5.9344,5.9832,6.0304,6.0397,6.0255,5.9861,5.979,5.9269,5.7947,5.7188,5.6786,5.6748,5.6759,5.6616,5.6267,5.6232,5.6232,5.6232,5.6232,5.6554,5.7351,5.7376,5.7607,5.7997,5.7997,5.7997,5.7997,5.7997,5.7997,5.7997,5.7997,5.818,7.0263,7.0906,7.1312,7.1312,7.0804,6.9722,6.7354,6.6305,6.5189,6.2854,6.1806,6.1772,6.3362,6.3666,6.4613,6.759,6.8741,6.9722,7.1109,7.0737,7.0331,7.0331,7.0331,7.0331,7.0331,7.0331,7.0331,7.0331,7.0331,6.9958,6.9147,6.8436,6.8064,6.8064,6.7963,6.7963,6.8064,6.7218,6.688,6.6948,6.688,6.6812,6.6812,6.6812,6.6812,6.6812,6.6812,6.6812,6.6812,6.6812,6.6812,6.6745,6.6102,6.5831,6.5764,6.5019,6.4749,6.4715,6.4647,6.4174,6.3531,6.2787,6.2482,6.2381,6.2381,6.2381,6.242,6.2537,6.2542,6.2581,6.2736,6.2263,6.1783,6.163,6.1163,6.0693,6.0476,6.0524,6.0691,6.0857,6.0869,6.0864,6.0878,6.0878,6.0843,6.0736,6.07,6.0724,6.0693,5.9401,5.8473,5.8398,5.8404,5.8115,5.7402,5.7366,5.7366,5.7366,5.7366,5.7678,5.8304,5.8327,5.8327,5.8327,5.8327,5.8327,5.8327,5.8327,5.8327,5.8327,5.8327,5.8694,7.165,7.1684,7.1312,7.1312,7.121,7.0364,6.7489,6.6711,6.5831,6.2956,6.1806,6.1941,6.4038,6.441,6.5392,6.8402,6.9519,7.0297,7.1176,7.121,7.1109,7.1109,7.1109,7.1109,7.1109,7.1109,7.1109,7.1109,7.1109,7.0534,6.918,6.8977,6.8876,6.8876,6.8233,6.8233,6.8876,6.7523,6.7117,6.7692,6.7117,6.6812,6.6812,6.6812,6.6812,6.6812,6.6812,6.6812,6.6812,6.6812,6.6812,6.6812,6.6677,6.6609,6.6542,6.5764,6.5493,6.5425,6.4816,6.4512,6.4309,6.3565,6.2888,6.2381,6.2381,6.2381,6.2542,6.3277,6.3498,6.3647,6.4357,6.4458,6.4182,6.3439,6.3729,6.3796,6.2471,6.2261,6.2577,6.3232,6.3379,6.3401,6.3464,6.346,6.3215,6.2485,6.2376,6.2365,6.2384,6.0982,6.0025,5.9993,5.9993,5.992,5.981,5.9774,5.9774,5.9774,5.9774,5.9859,5.9979,5.9979,5.9979,5.9979,5.9979,5.9979,5.9979,5.9979,5.9979,5.9979,5.9979,6.0052,7.2665,7.2699,7.236,7.1988,7.1582,7.0331,6.6542,6.5358,6.414,6.0757,5.9776,6.008,6.1907,6.2618,6.3734,6.6339,6.7354,6.8402,6.9958,7.0161,7.0466,7.121,7.1312,7.1312,7.1312,7.1312,7.1312,7.1312,7.1312,7.1007,7.0297,6.9891,6.9485,6.9113,6.8335,6.8098,6.847,6.7354,6.6981,6.732,6.6981,6.6812,6.6812,6.6812,6.6812,6.6812,6.6812,6.6812,6.6812,6.6812,6.6812,6.6812,6.6812,6.6812,6.6787,6.6963,6.6993,6.7039,6.7173,6.6673,6.5828,6.5485,6.4594,6.3669,6.3669,6.3701,6.3829,6.4253,6.4392,6.4495,6.49,6.4999,6.49,6.4495,6.4698,6.4787,6.4073,6.3961,6.4124,6.4584,6.4685,6.4685,6.4736,6.4714,6.4457,6.3613,6.3466,6.3319,6.2853,6.2135,6.1474,6.1092,6.1006,6.086,6.0456,6.0419,6.0419,6.0419,6.0419,6.0419,6.0419,6.0419,6.0419,6.0419,6.0419,6.0419,6.0419,6.0419,6.0419,6.0419,6.0419,6.0639,7.3409,7.3612,7.3308,7.2563,7.1853,7.0128,6.5628,6.4038,6.2448,5.866,5.7881,5.8355,5.9844,6.0757,6.2009,6.4241,6.5222,6.6474,6.8774,6.9113,6.9654,7.1142,7.1312,7.1312,7.1312,7.1312,7.1312,7.1312,7.1312,7.1312,7.1312,7.0737,7.0161,6.9586,6.8808,6.8402,6.8402,6.7489,6.7049,6.7049,6.688,6.6812,6.6812,6.6812,6.6812,6.6812,6.6812,6.6812,6.6812,6.6812,6.6812,6.6812,6.6812,6.6812,6.6904,6.7866,6.8189,6.8343,6.935,6.8781,6.7663,6.7663,6.647,6.507,6.507,6.5268,6.5561,6.5759,6.5791,6.5788,6.5839,6.5836,6.5764,6.5621,6.5458,6.5375,6.5626,6.5663,6.5719,6.5783,6.5815,6.5778,6.5595,6.5558,6.5301,6.4494,6.42,6.3833,6.3172,6.289,6.2585,6.1924,6.1851,6.1594,6.097,6.0933,6.0933,6.0933,6.0933,6.0933,6.0933,6.0933,6.0933,6.0933,6.0933,6.0933,6.0933,6.0933,6.0933,6.0933,6.0933,6.1263,7.3747,7.4018,7.3308,7.2563,7.1853,7.0128,6.5628,6.4038,6.2448,5.866,5.7881,5.8355,5.9844,6.0757,6.2009,6.4241,6.5222,6.6474,6.8774,6.9113,6.9654,7.1142,7.1312,7.1312,7.1312,7.1312,7.1312,7.1312,7.1312,7.1312,7.1312,7.1244,7.1176,7.1109,7.0364,6.9992,6.9992,6.8538,6.7793,6.7793,6.7117,6.6812,6.6812,6.6812,6.6812,6.6812,6.6812,6.6812,6.6812,6.6812,6.6812,6.6812,6.6812,6.6812,6.6904,6.7866,6.8189,6.8343,6.935,6.9601,6.9459,6.9459,6.7827,6.5907,6.5907,6.6495,6.736,6.8215,6.8471,6.8481,6.8507,6.8558,6.8375,6.7643,6.6852,6.6487,6.7296,6.7459,6.7486,6.7467,6.7467,6.7247,6.6512,6.6402,6.6109,6.5301,6.4567,6.4053,6.398,6.3282,6.2743,6.267,6.2695,6.2658,6.256,6.256,6.256,6.256,6.256,6.256,6.256,6.256,6.256,6.256,6.256,6.256,6.256,6.256,6.256,6.256,6.256,6.2622,7.3815,7.4728,7.4424,7.28,7.2191,7.0567,6.5189,6.3734,6.2448,5.866,5.7881,5.8084,5.866,5.9032,5.981,6.1603,6.2144,6.3429,6.6609,6.7455,6.8436,7.0398,7.1041,7.1312,7.1312,7.1312,7.1312,7.1312,7.1312,7.1312,7.1312,7.1312,7.1109,7.0635,7.0331,6.9755,6.8808,6.8199,6.7692,6.7252,6.6948,6.6812,6.6812,6.6812,6.6812,6.6812,6.6812,6.6812,6.6812,6.6812,6.6812,6.6812,6.6812,6.7161,6.7747,6.8723,6.9458,7.0056,7.1063,7.1031,7.0535,7.0535,6.9868,6.8991,6.8494,6.8658,6.9116,6.9486,6.9573,6.9595,6.9623,6.9265,6.8715,6.7871,6.7433,6.7258,6.7633,6.7687,6.7687,6.7687,6.7687,6.7577,6.7283,6.721,6.6953,6.6145,6.5742,6.5375,6.4897,6.453,6.431,6.431,6.3404,6.278,6.278,6.278,6.278,6.278,6.278,6.278,6.278,6.278,6.278,6.278,6.278,6.278,6.278,6.278,6.278,6.278,6.278,6.3099,7.368,7.5134,7.527,7.351,7.2394,7.0432,6.5324,6.3497,6.1975,5.8863,5.8051,5.7949,5.8186,5.822,5.8626,5.9911,6.0486,6.1839,6.4918,6.6,6.7151,6.8977,6.9857,7.0398,7.0635,7.1041,7.1312,7.1312,7.1312,7.1312,7.1312,7.1312,7.1075,7.0534,7.0534,6.9789,6.8267,6.8267,6.776,6.6812,6.6812,6.6812,6.6812,6.6812,6.6812,6.6812,6.6812,6.6812,6.6812,6.6812,6.6812,6.6812,6.6812,6.7373,6.8305,6.9314,7.0298,7.1223,7.2197,7.2071,7.1511,7.1511,7.1511,7.1402,7.0858,7.0741,7.0807,7.0807,7.0624,7.044,7.044,6.9853,6.9045,6.8238,6.8054,6.7981,6.7724,6.7687,6.7687,6.7687,6.7687,6.7687,6.7687,6.7687,6.7504,6.6953,6.6659,6.6292,6.5742,6.5448,6.5301,6.5301,6.4237,6.3514,6.3514,6.3514,6.3514,6.3514,6.3514,6.3514,6.3514,6.3514,6.3514,6.3514,6.3514,6.3514,6.3514,6.3514,6.3514,6.3514,6.3514,6.387,7.3375,7.5134,7.5506,7.4796,7.2394,6.9417,6.6373,6.3429,6.0892,5.9336,5.8423,5.8118,5.8863,5.8998,5.9235,5.9979,6.1366,6.2888,6.441,6.5256,6.5967,6.6745,6.7489,6.8233,6.9045,7.0466,7.1312,7.1312,7.1312,7.1312,7.1312,7.1312,7.1312,7.1312,7.1312,7.0601,6.9113,6.9079,6.8335,6.6812,6.6812,6.6812,6.6812,6.6812,6.6812,6.6812,6.6812,6.6812,6.6812,6.6812,6.6812,6.6812,6.6812,6.7373,6.8305,6.9314,7.0298,7.1223,7.2197,7.2496,7.2467,7.2467,7.2467,7.2467,7.2467,7.2496,7.2496,7.2496,7.1908,7.1321,7.1321,7.0697,6.9889,6.9082,6.8898,6.8678,6.7871,6.7687,6.7687,6.7687,6.7687,6.7687,6.7687,6.7687,6.7687,6.7687,6.699,6.6512,6.6476,6.5778,6.5301,6.5301,6.5301,6.5264,6.5264,6.5264,6.5264,6.5264,6.5264,6.5264,6.5264,6.5264,6.5264,6.5264,6.5264,6.5264,6.5264,6.5264,6.5264,6.5264,6.5264,6.5301,6.9079,7.0601,7.0872,6.962,6.8944,6.7726,6.4241,6.3125,6.2245,6.0182,5.9167,5.8727,5.8964,5.8592,5.8829,6.0622,6.1332,6.2347,6.4309,6.5662,6.6542,6.6779,6.8368,6.9755,7.0534,7.1041,7.1312,7.1312,7.1312,7.1312,7.1312,7.0838,7.077,7.1312,7.0804,7.0094,6.9113,6.8538,6.7793,6.6812,6.6812,6.6812,6.6812,6.6812,6.6812,6.6812,6.6812,6.6812,6.6812,6.6812,6.6812,6.6854,6.7501,6.8378,6.935,7.0297,7.1255,7.2101,7.2409,7.2496,7.2496,7.2496,7.2496,7.2496,7.2496,7.2496,7.2496,7.2496,7.2312,7.1982,7.1439,7.1138,7.0734,6.9926,6.9706,6.9486,6.8678,6.8531,6.8348,6.7797,6.7687,6.7687,6.7687,6.7687,6.7687,6.7687,6.7467,6.732,6.732,6.71,6.6953,6.6953,6.6953,6.6512,6.5411,6.5301,6.5301,6.5301,6.5301,6.5301,6.5301,6.5301,6.5301,6.5301,6.5301,6.5301,6.5301,6.5301,6.5301,6.5301,6.5852,6.6109,6.6779,6.8504,6.8876,6.7929,6.7387,6.6406,6.3802,6.2956,6.2178,6.0452,5.9505,5.9032,5.9032,5.8626,5.8795,6.0216,6.14,6.2415,6.326,6.5087,6.6508,6.6779,6.8301,6.9722,7.077,7.1142,7.1312,7.1312,7.1312,7.1312,7.1312,7.0601,7.0398,7.0872,7.0161,6.9417,6.8639,6.8166,6.7523,6.6812,6.6812,6.6812,6.6812,6.6812,6.6812,6.6812,6.6812,6.6812,0.0,6.6812,6.6812,6.6862,6.7827,6.8798,6.9814,7.0734,7.1665,7.2496,7.2496,7.2496,7.2496,7.2496,7.2496,7.2496,7.2496,7.2496,7.2496,7.2496,7.2496,7.2386,7.1872,7.1762,7.1541,7.0734,7.055,7.033,6.9522,6.9119,6.8752,6.8238,6.7907,6.7687,6.7687,6.7687,6.7687,6.7687,6.7687,6.7687,6.7687,6.7687,6.7687,6.7687,6.7687,6.7283,6.6292,6.6219,6.6219,6.6219,6.6219,6.6219,6.6219,6.6219,6.6219,6.6219,6.6219,6.6219,6.6219,6.6219,6.6219,6.6219,6.6733,6.6953,0.0,6.7996,6.8571,6.8605,6.7015,6.529,6.4613,6.2821,0.0,6.0351,5.9573,5.9032,5.9032,5.8964,5.8964,5.9066,6.1501,6.2888,6.1501,6.3802,6.5967,6.688,6.7624,6.8639,7.0128,7.0906,7.1312,7.1244,7.1244,7.1244,7.1244,7.0466,7.0094,7.0195,6.9383,6.8605,6.7895,6.7861,6.7489,6.6812,6.6812,6.6812,6.6812,6.6812,6.6812,6.6812,6.6812,6.6812,6.6812,6.6812,6.6854,6.6988,6.7945,6.891,6.9919,7.0832,7.1763,7.2496,7.2496,7.2496,7.2496,7.2496,7.2496,7.2496,7.2496,7.2496,7.2496,7.2496,7.2496,7.2496,7.2496,7.2496,7.2312,7.155,7.1366,7.1174,7.0367,6.9596,6.9045,6.9009,6.8385,6.7898,6.7898,6.7898,6.7898,6.7898,6.7898,6.7898,6.7898,6.7797,6.7797,6.7797,6.7724,6.7687,6.7687,6.7687,6.7687,6.7687,6.7687,6.7687,6.7687,6.7687,6.7687,6.7687,6.7687,6.7687,6.7687,6.7687,6.7687,6.7687,6.7687,6.7687,6.2144,0.0,6.326,6.3835,6.3565,6.3125,0.0,6.2076,6.1264,6.1061,5.9945,5.9032,5.9032,5.8558,5.8524,5.9674,6.096,6.1704,6.1366,6.3362,6.5797,6.8267,6.9214,7.0026,7.0973,7.121,7.1075,7.05,7.0466,7.0466,7.0466,6.918,6.8977,7.0161,6.8335,6.7523,6.7895,6.7354,6.6981,6.6812,6.6812,6.6812,6.6812,6.6812,6.6812,6.6812,6.6812,6.6812,6.6812,6.6812,6.7209,6.795,6.8947,6.9918,7.0865,7.1824,7.2314,7.2496,7.2496,7.2496,7.2496,7.2496,7.2496,7.2496,7.2496,7.2496,7.2496,7.2496,7.2496,7.2496,7.2496,7.2496,7.2459,7.2275,7.2239,7.2018,7.1211,7.0881,7.055,6.9926,6.9669,6.9522,6.9522,6.9522,6.9522,6.9522,6.9522,6.9522,6.9522,6.9009,6.8605,6.8605,6.8054,6.7687,6.7687,6.7687,6.7687,6.7687,6.7687,6.7687,6.7687,6.7687,6.7687,6.7687,6.7687,6.7687,6.7687,6.7687,6.7687,6.7687,6.7687,6.7687,5.9945,6.1028,6.1907,6.2279,6.2381,6.2313,6.1975,6.1298,6.0655,6.0317,5.9607,5.8896,5.8558,5.8152,5.8152,5.8964,6.0013,6.1231,6.2618,6.414,6.6102,6.8774,6.9755,7.0466,7.1244,7.1312,7.1142,7.0737,7.0703,7.0703,7.0703,6.9586,6.9316,7.0161,6.8335,6.7489,6.7895,6.7184,6.6812,6.6812,6.6812,6.6812,6.6812,6.6812,6.6812,6.6812,6.6812,6.6812,6.6812,6.6812,6.7078,6.7702,6.9166,7.0023,7.0635,7.2011,7.2496,7.2496,7.2496,7.2496,7.2496,7.2496,7.2496,7.2496,7.2496,7.2496,7.2496,7.2496,7.2496,7.2496,7.2496,7.2496,7.2496,7.2496,7.2496,7.2386,7.1945,7.155,7.1146,7.0734,7.0367,7.011,7.011,7.011,7.011,7.011,7.011,7.011,7.011,6.9706,6.9449,6.9449,6.9045,6.8788,6.8788,6.8788,6.8495,6.7724,6.7687,6.7687,6.7687,6.7687,6.7871,6.8238,6.7871,6.8054,6.8788,6.8421,6.8421,6.8788,6.8788,6.8788,5.8964,6.0757,6.2347,6.2245,6.2212,6.2076,6.1434,6.0588,5.9742,5.9133,5.893,5.866,5.8017,5.7983,5.8084,5.822,5.9471,6.1467,6.4377,6.5392,6.6677,6.8842,6.9857,7.0601,7.1244,7.1312,7.1278,7.1142,7.1142,7.1142,7.1142,7.0432,7.0128,7.0364,6.8741,6.7963,6.8098,6.7252,6.688,6.6981,6.6981,6.7049,6.7151,6.7151,6.7083,6.6981,6.6981,6.6914,6.6812,6.6812,6.6946,6.7407,6.9056,6.9884,7.0332,7.1921,7.2496,7.2496,7.2496,7.2496,7.2496,7.2496,7.2496,7.2496,7.2496,7.2496,7.2496,7.2496,7.2496,7.2496,7.2496,7.2496,7.2496,7.2496,7.2496,7.2496,7.2496,7.1982,7.1505,7.1505,7.0917,7.0477,7.0477,7.0477,7.0477,7.0477,7.0477,7.0477,7.0477,7.0367,7.0293,7.0293,7.0183,7.011,7.011,7.011,6.9522,6.8128,6.8054,6.8054,6.8054,6.8054,6.8385,6.9082,6.8421,6.8715,7.011,6.9412,6.9449,7.011,7.011,7.011,5.9573,6.1129,6.2245,6.1637,6.1467,6.1434,6.1332,6.0182,5.9167,5.9032,5.849,5.8017,5.7915,5.8423,5.9032,5.9674,6.1028,6.2854,6.5189,6.617,6.7252,6.891,7.0297,7.1176,7.1312,7.1312,7.1041,7.0398,7.0364,7.0364,7.0364,6.9654,6.9857,7.1109,6.9045,6.8233,6.891,6.7523,6.7117,6.7726,6.7726,6.8098,6.8741,6.8741,6.8368,6.7726,6.7726,6.7387,6.6812,6.6812,6.7742,6.9313,6.9601,7.0668,7.2137,7.2409,7.2496,7.2496,7.2496,7.2496,7.2496,7.2496,7.2496,7.2496,7.2496,7.2496,7.2496,7.2496,7.2496,7.2496,7.2496,7.2496,7.2496,7.2496,7.2496,7.2496,7.2496,7.2422,7.2312,7.2312,7.2239,7.2129,7.2129,7.2129,7.2129,7.2129,7.2129,7.2129,7.2129,7.1541,7.1138,7.1138,7.0513,7.011,7.011,7.011,7.0,6.9743,6.9706,6.9706,6.9706,6.9706,6.9779,6.9926,6.9779,6.9853,7.011,6.9963,6.9963,7.011,7.011,7.011,5.8727,5.9708,6.0791,6.167,6.2178,6.2279,6.1501,6.0114,5.9032,5.9032,5.8423,5.7881,5.7881,5.8829,5.9979,6.1163,6.2279,6.3497,6.4918,6.644,6.7827,6.8977,7.0398,7.1312,7.1312,7.0939,7.0737,7.0804,7.0432,7.0364,7.077,7.0466,7.0601,7.1312,6.9891,6.9316,6.9688,6.8605,6.7996,6.7895,6.8335,6.8741,6.9113,6.9113,6.8673,6.7938,6.8459,6.8261,6.7656,6.8596,6.954,7.0381,7.0941,7.1647,7.2412,7.2497,7.2496,7.2496,7.2496,7.2496,7.2496,7.2496,7.2496,7.2496,7.2496,7.2496,7.2496,7.2496,7.2496,7.2496,7.2496,7.2496,7.2496,7.2496,7.2496,7.2496,7.2496,7.2496,7.2496,7.2496,7.2496,7.2496,7.2496,7.2496,7.2496,7.2496,7.2496,7.2496,7.2496,7.2202,7.1945,7.1945,7.1615,7.1394,7.1394,7.1394,7.1027,7.0146,7.011,7.011,7.011,7.011,7.0293,7.0734,7.033,7.0513,7.1394,7.0954,7.0991,7.1394,7.1394,7.1394,5.8084,5.8693,5.9776,6.1873,6.2685,6.2821,6.2212,6.0892,5.9776,5.9573,5.893,5.8355,5.8186,5.9505,6.1061,6.2448,6.3565,6.4478,6.5053,6.6711,6.8199,6.9011,7.0263,7.1041,7.1041,7.0534,7.0364,7.077,7.0432,7.0432,7.1007,7.121,7.1312,7.1312,7.0567,7.0195,7.0195,6.962,6.9045,6.8436,6.9045,6.9451,6.962,6.9644,6.9263,6.8565,6.956,6.9544,6.8962,7.0339,7.1126,7.1551,7.1912,7.2272,7.2636,7.2921,7.3083,7.3083,7.3083,7.2936,7.2789,7.2789,7.2642,7.2496,7.2496,7.2642,7.2789,7.2789,7.2789,7.2753,7.2569,7.2496,7.2496,7.2496,7.2496,7.2496,7.2496,7.2496,7.2496,7.2496,7.2496,7.2496,7.2496,7.2496,7.2496,7.2496,7.2496,7.2496,7.2496,7.2496,7.2496,7.2496,7.2496,7.2496,7.2496,7.2496,7.1982,7.0734,7.066,7.066,7.066,7.066,7.0954,7.1578,7.0991,7.1284,7.2496,7.1872,7.1908,7.2496,7.2496,7.2496,5.8727,5.9471,6.0385,6.2009,6.1907,6.1975,6.3937,6.3226,6.1941,6.1264,6.0486,5.9742,5.9066,6.0757,6.2482,6.3294,6.5189,6.6609,6.6643,6.7387,6.8199,6.9011,6.9789,7.0263,7.0263,7.0229,6.9925,6.9316,6.9823,7.0195,7.0263,7.0939,7.1312,7.1312,7.0567,7.0195,7.0195,7.0128,7.0094,7.0026,7.0094,7.0466,7.1142,7.1335,7.1,7.0395,7.138,7.1405,7.0734,7.0841,7.1834,7.3191,7.1745,7.218,7.3685,7.4448,7.4735,7.4735,7.4735,7.4258,7.3597,7.3597,7.312,7.2496,7.2496,7.301,7.3597,7.3597,7.3597,7.345,7.2679,7.2496,7.2496,7.2496,7.2496,7.2496,7.2496,7.2496,7.2496,7.2496,7.2496,7.2496,7.2496,7.2496,7.2496,7.2496,7.2496,7.2496,7.2496,7.2496,7.2496,7.2496,7.2496,7.2496,7.2496,7.2496,7.2459,7.2349,7.2349,7.2349,7.2349,7.2349,7.2349,7.2422,7.2349,7.2386,7.2496,7.2459,7.2459,7.2496,7.2496,7.2496,5.7679,5.8929,6.0621,6.2029,6.3758,6.5294,6.6045,6.5065,6.4033,6.4243,6.3277,6.2127,6.1244,6.1806,6.2787,6.4005,6.5662,6.6812,6.6812,6.7455,6.7996,6.8335,6.9045,6.9519,6.9519,6.9045,6.8842,6.9079,6.935,6.9722,7.0161,7.0906,7.1312,7.1312,7.1041,7.0872,7.0872,7.0872,7.0872,7.0872,7.0872,7.1041,7.1312,7.1416,7.1327,7.1244,7.1736,7.2157,7.2534,7.2597,7.3629,7.5077,7.4457,7.4281,7.4478,7.4808,7.4918,7.4918,7.4918,7.4698,7.4441,7.4441,7.4258,7.4001,7.4001,7.3854,7.378,7.4294,7.4074,7.3634,7.334,7.2899,7.2496,7.2496,7.2496,7.2496,7.2496,7.2496,7.2496,7.2496,7.2496,7.2496,7.2496,7.2496,7.2496,7.2496,7.2496,7.2496,7.2496,7.2496,7.2496,7.2496,7.2496,7.2496,7.2496,7.2496,7.2496,7.2496,7.2496,7.2496,7.2496,7.2496,7.2496,7.2496,7.2496,7.2496,7.2496,7.2496,7.2496,7.2496,7.2496,7.2496,5.7562,5.8563,6.008,6.2,6.4389,6.6602,6.7798,6.7407,6.6804,6.6875,6.5477,6.3759,6.2314,6.2654,6.3417,6.4113,6.5696,6.6812,6.6812,6.7252,6.7658,6.7861,6.8402,6.8707,6.8707,6.8233,6.8132,6.8673,6.8977,6.9417,7.0161,7.0906,7.1312,7.1312,7.1312,7.1312,7.1312,7.1312,7.1312,7.1312,7.1312,7.1312,7.1278,7.1438,7.1719,7.2145,7.2619,7.3274,7.3965,7.4342,7.4955,7.5763,7.6276,7.5983,7.5322,7.5549,7.5689,7.5689,7.5689,7.5506,7.5285,7.5285,7.5139,7.4918,7.4918,7.4698,7.4551,7.5139,7.4882,7.4441,7.4441,7.3854,7.3193,7.2936,7.2899,7.2826,7.2569,7.2496,7.2496,7.2496,7.2496,7.2496,7.2496,7.2496,7.2496,7.2496,7.2496,7.2496,7.2496,7.2716,7.2973,7.323,7.3266,7.3266,7.3266,7.3266,7.3266,7.3266,7.301,7.2753,7.2496,7.2496,7.2496,7.2496,7.2496,7.2496,7.2496,7.2496,7.2496,7.2496,7.2496,7.2496,5.884,5.8529,5.8692,6.1825,6.3236,6.4918,6.8981,7.0436,7.0452,6.8928,6.6731,6.4353,6.1783,6.3261,6.4525,6.3656,6.5392,6.6812,6.6812,6.6812,6.7083,6.7793,6.7895,6.7895,6.7895,6.7895,6.7895,6.7895,6.8639,6.9417,7.0161,7.0906,7.1312,7.1312,7.1312,7.1312,7.1312,7.1312,7.1312,7.1312,7.1312,7.1312,7.1289,7.1722,7.236,7.318,7.4397,7.4888,7.4992,7.5763,7.5616,7.5065,7.665,7.6827,7.6203,7.698,7.7273,7.7273,7.7273,7.679,7.6093,7.6093,7.5579,7.4918,7.4918,7.5469,7.6093,7.6093,7.6093,7.6093,7.6093,7.5542,7.4735,7.3891,7.3707,7.3487,7.2716,7.2532,7.2532,7.2532,7.2532,7.2532,7.2532,7.2532,7.2532,7.2532,7.2532,7.2532,7.2532,7.323,7.4001,7.4808,7.4918,7.4918,7.4918,7.4918,7.4918,7.4918,7.4147,7.334,7.2532,7.2496,7.2496,7.2496,7.2496,7.2496,7.2496,7.2496,7.2496,7.2496,7.2496,7.2496,5.6943,5.899,6.1616,6.2461,6.6308,7.0056,7.0622,7.0901,7.075,6.96,6.7446,6.532,6.3911,6.4177,6.4568,6.4316,6.5696,6.6812,6.6812,6.6812,6.688,6.7117,6.7151,6.7151,6.7151,6.7151,6.7354,6.7861,6.8639,6.9417,7.0161,7.0906,7.1312,7.1312,7.1312,7.1312,7.1312,7.1312,7.1312,7.1312,7.077,7.0804,7.1323,7.2175,7.305,7.3923,7.3884,7.4551,7.5763,7.6019,7.5616,7.5065,7.665,7.7127,7.6974,7.72,7.7273,7.7273,7.7273,7.7127,7.6937,7.6937,7.676,7.6576,7.6576,7.6387,7.624,7.679,7.6533,7.624,7.6827,7.676,7.6209,7.4882,7.4551,7.4478,7.4258,7.4184,7.4184,7.4184,7.4184,7.4184,7.4184,7.4184,7.4184,7.4184,7.4184,7.4184,7.4184,7.4404,7.4661,7.4882,7.4918,7.4918,7.4918,7.4918,7.4918,7.4918,7.4698,7.4184,7.3377,7.2789,7.2496,7.2496,7.2496,7.2496,7.2496,7.2496,7.2496,7.2496,7.2496,7.2496,5.8509,6.0847,6.3488,6.447,6.8114,7.1732,7.246,7.2107,7.1417,7.0468,6.9094,6.7692,6.6422,6.6459,6.6609,6.6267,6.6833,6.7373,6.7373,6.7029,6.6812,6.6812,6.6812,6.6812,6.6812,6.6812,6.7252,6.8301,6.8842,6.9553,7.0567,7.1075,7.1312,7.1312,7.1312,7.1312,7.1312,7.1007,7.0872,7.0872,7.0463,7.0542,7.1029,7.2018,7.2957,7.3816,7.3624,7.4316,7.5616,7.5285,7.5249,7.5469,7.646,7.7047,7.7273,7.7273,7.7273,7.7273,7.7273,7.7273,7.7273,7.7273,7.7273,7.7273,7.7273,7.6943,7.668,7.7163,7.6974,7.6717,7.7163,7.7273,7.6943,7.5689,7.5395,7.5285,7.4992,7.4918,7.4918,7.4918,7.4918,7.4918,7.4918,7.4918,7.4918,7.4918,7.4918,7.5028,7.5359,7.5395,7.5506,7.5836,7.5842,7.5842,7.5842,7.5842,7.5842,7.5842,7.5542,7.5175,7.4661,7.3891,7.345,7.345,7.345,7.345,7.345,7.345,7.345,7.345,7.345,7.3303,6.1955,6.3367,6.4773,6.73,6.9253,7.1282,7.4146,7.3744,7.2446,7.1504,7.1363,7.0877,6.9132,6.9432,6.9591,6.8854,6.8491,6.8343,6.8343,6.7582,6.7029,6.6946,6.6904,6.6896,6.6914,6.6914,6.7557,6.9079,6.9214,6.9823,7.1244,7.1244,7.121,7.121,7.121,7.1176,7.1109,7.05,7.0161,7.0138,7.0285,7.0436,7.0545,7.1638,7.2474,7.3189,7.3515,7.4074,7.4625,7.3964,7.4588,7.6019,7.6056,7.6607,7.7273,7.7273,7.7273,7.7273,7.7273,7.7273,7.7273,7.7273,7.7273,7.7273,7.7273,7.7273,7.7273,7.7273,7.7273,7.7273,7.7273,7.7273,7.709,7.6387,7.6203,7.6019,7.5285,7.5139,7.5139,7.5139,7.5139,7.5139,7.5139,7.5139,7.5139,7.5139,7.5139,7.5395,7.613,7.6203,7.6497,7.72,7.7273,7.7273,7.7273,7.7273,7.7273,7.7273,7.6607,7.6203,7.6203,7.5395,7.4918,7.4918,7.4918,7.4918,7.4918,7.4918,7.4918,7.4918,7.4918,7.4515,6.0846,6.3877,6.7286,6.9153,7.172,7.3896,7.3935,7.4184,7.4092,7.3201,7.2485,7.1748,7.0628,7.0026,6.9705,6.9495,6.9423,6.935,6.935,6.9203,6.8795,6.799,6.7871,6.7828,6.7675,6.7658,6.8301,6.9857,6.9958,7.0331,7.1278,7.0737,7.0432,7.0432,7.0432,7.0161,6.9586,6.9992,6.9891,6.9316,6.957,6.9951,7.0585,7.2299,7.3254,7.3561,7.3669,7.345,7.3046,7.3487,7.4294,7.5212,7.5836,7.6607,7.7273,7.7273,7.7273,7.7273,7.7273,7.7273,7.7273,7.7273,7.7273,7.7273,7.7273,7.7273,7.7273,7.7273,7.7273,7.7273,7.7273,7.7273,7.7237,7.7053,7.7017,7.698,7.6796,7.676,7.676,7.676,7.676,7.676,7.676,7.676,7.676,7.676,7.676,7.6833,7.7017,7.7017,7.709,7.7273,7.7273,7.7273,7.7273,7.7273,7.7273,7.7273,7.7127,7.7017,7.7017,7.5689,7.4918,7.4918,7.4918,7.4918,7.4918,7.4918,7.4918,7.4918,7.4918,7.4808,6.1789,6.5125,6.8881,7.1699,7.367,7.4918,7.4845,7.5175,7.5348,7.4837,7.3796,7.2803,7.2351,7.1893,7.1496,7.1103,7.0991,7.0829,7.0402,6.9989,6.9314,6.8305,6.8223,6.8039,6.7404,6.7692,6.8402,6.9586,6.9992,7.0364,7.0737,7.0398,7.0026,6.9688,6.9654,6.9485,6.9113,6.9113,6.9135,6.924,6.9463,7.0232,7.1478,7.2418,7.3171,7.367,7.3303,7.2899,7.2569,7.3377,7.4184,7.4992,7.5799,7.6607,7.7273,7.7273,7.7273,7.7273,7.7273,7.7273,7.7273,7.7273,7.7273,7.7273,7.7273,7.7273,7.7273,7.7273,7.7273,7.7273,7.7273,7.7273,7.7273,7.7273,7.7273,7.7273,7.7273,7.7273,7.7273,7.7273,7.7273,7.7273,7.7273,7.7273,7.7273,7.7273,7.7273,7.7273,7.7273,7.7273,7.7273,7.7273,7.7273,7.7273,7.7273,7.7273,7.7273,7.7273,7.7273,7.7273,7.7273,7.6466,7.6026,7.6026,7.6026,7.6026,7.6026,7.6026,7.6026,7.6026,7.6026,7.5836,6.2984,6.6689,7.0386,7.3823,7.5028,7.5469,7.5983,7.6203,7.6313,7.6313,7.5139,7.4111,7.4111,7.4001,7.367,7.301,7.2838,7.244,7.1644,7.0883,6.9955,6.8835,6.8758,6.844,6.7536,6.7988,6.8651,6.9417,7.006,7.0331,7.0195,7.006,6.9654,6.891,6.8876,6.8842,6.8707,6.8166,6.8342,6.9194,6.9703,7.0868,7.2504,7.2325,7.2715,7.345,7.2789,7.2496,7.2569,7.3377,7.4184,7.4992,7.5799,7.6607,7.7273,7.7273,7.7273,7.7273,7.7273,7.7273,7.7273,7.7273,7.7273,7.7273,7.7273,7.7273,7.7273,7.7273,7.7273,7.7273,7.7273,7.7273,7.7273,7.7273,7.7273,7.7273,7.7273,7.7273,7.7273,7.7273,7.7273,7.7273,7.7273,7.7273,7.7273,7.7273,7.7273,7.7273,7.7273,7.7273,7.7273,7.7273,7.7273,7.7273,7.7273,7.7273,7.7273,7.7273,7.7273,7.7273,7.7273,7.7273,7.7273,7.7273,7.7273,7.7273,7.7273,7.7273,7.7273,7.7273,7.7273,7.6937,6.2171,6.7945,7.3186,7.3714,7.5432,7.6827,7.624,7.6644,7.7127,7.7127,7.6423,7.5763,7.5763,7.5212,7.4698,7.4625,7.4572,7.4292,7.3486,7.3251,7.2558,7.0904,7.0734,7.0521,7.0055,7.0096,7.0374,7.095,7.1109,7.0872,7.0229,6.9586,6.8876,6.8098,6.8064,6.776,6.7117,6.7624,6.8035,6.8362,7.0093,7.148,7.2496,7.2453,7.2526,7.2642,7.2569,7.2496,7.2569,7.3377,7.4184,7.4992,7.5799,7.6607,7.7273,7.7273,7.7273,7.7273,7.7273,7.7273,7.7273,7.7273,7.7273,7.7273,7.7273,7.7273,7.7273,7.7273,7.7273,7.7273,7.7273,7.7273,7.7273,7.7273,7.7273,7.7273,7.7273,7.7273,7.7273,7.7273,7.7273,7.7273,7.7273,7.7273,7.7273,7.7273,7.7273,7.7273,7.7273,7.7273,7.7273,7.7273,7.7273,7.7273,7.7273,7.7273,7.7273,7.7273,7.7273,7.7273,7.7273,7.7273,7.7273,7.7273,7.7273,7.7273,7.7273,7.7273,7.7273,7.7273,7.7273,7.7237,6.2248,6.8156,7.3142,7.3494,7.5097,7.6533,7.6166,7.6717,7.7163,7.6717,7.6717,7.6644,7.6166,7.5799,7.5432,7.4992,7.5285,7.5285,7.4478,7.3964,7.3191,7.1946,7.138,7.0998,7.075,7.109,7.1399,7.1507,7.1902,7.1404,6.9664,6.9282,6.8538,6.732,6.7286,6.7377,6.7582,6.789,6.8652,6.9848,7.1223,7.2101,7.2496,7.2496,7.2496,7.2496,7.2496,7.2496,7.2606,7.3854,7.4588,7.5028,7.6276,7.698,7.7273,7.7273,7.7273,7.7273,7.7273,7.7273,7.7273,7.7273,7.7273,7.7273,7.7273,7.7273,7.7273,7.7273,7.7273,7.7273,7.7273,7.7273,7.7273,7.7273,7.7273,7.7273,7.7273,7.7273,7.7273,7.7273,7.7273,7.7273,7.7273,7.7273,7.7273,7.7273,7.7273,7.7273,7.7273,7.7273,7.7273,7.7273,7.7273,7.7273,7.7273,7.7273,7.7273,7.7273,7.7273,7.7273,7.7273,7.7273,7.7273,7.7273,7.7273,7.7273,7.7273,7.7273,7.7273,7.7273,7.7273,7.7273,6.129,6.648,7.0909,7.1789,7.364,7.5285,7.5689,7.6423,7.687,7.6497,7.687,7.709,7.6533,7.6423,7.6203,7.5616,7.6019,7.613,7.5322,7.4515,7.3683,7.2776,7.1951,7.1492,7.1551,7.2015,7.2361,7.2345,7.2683,7.1849,6.9595,6.9491,6.8815,6.7195,6.7373,6.7866,6.8572,6.88,6.9672,7.1127,7.2041,7.2496,7.2496,7.2496,7.2496,7.2496,7.2716,7.2679,7.2642,7.4258,7.4918,7.5065,7.646,7.709,7.7273,7.7273,7.7273,7.7273,7.7273,7.7273,7.7273,7.7273,7.7273,7.7273,7.7273,7.7273,7.7273,7.7273,7.7273,7.7273,7.7273,7.7273,7.7273,7.7273,7.7273,7.7273,7.7273,7.7273,7.7273,7.7273,7.7273,7.7273,7.7273,7.7273,7.7273,7.7273,7.7273,7.7273,7.7273,7.7273,7.7273,7.7273,7.7273,7.7273,7.7273,7.7273,7.7273,7.7273,7.7273,7.7273,7.7273,7.7273,7.7273,7.7273,7.7273,7.7273,7.7273,7.7273,7.7273,7.7273,7.7273,7.7273,5.8194,6.2022,6.6033,6.7595,7.0383,7.3083,7.4625,7.5579,7.6387,7.709,7.7273,7.7273,7.7237,7.7237,7.72,7.7163,7.72,7.6943,7.6166,7.5359,7.4522,7.3722,7.2915,7.2662,7.3224,7.3305,7.3577,7.4095,7.3489,7.2331,7.062,7.0634,6.9937,6.8185,6.9058,6.9565,6.9637,7.0465,7.0995,7.1127,7.2041,7.2496,7.2496,7.2496,7.2496,7.2532,7.3303,7.3193,7.2642,7.4258,7.4918,7.4992,7.5836,7.6644,7.7273,7.7273,7.7273,7.7273,7.7273,7.7273,7.7273,7.7273,7.7273,7.7273,7.7273,7.7273,7.7273,7.7273,7.7273,7.7273,7.7273,7.7273,7.7273,7.7273,7.7273,7.7273,7.7273,7.7273,7.7273,7.7273,7.7273,7.7273,7.7273,7.7273,7.7273,7.7273,7.7273,7.7273,7.7273,7.7273,7.7273,7.7273,7.7273,7.7273,7.7273,7.7273,7.7273,7.7273,7.7273,7.7273,7.7273,7.7273,7.7273,7.7273,7.7273,7.7273,7.7273,7.7273,7.7273,7.7273,7.7273,7.7273,5.7261,6.047,6.413,6.5667,6.8114,7.077,7.2899,7.4404,7.5579,7.6387,7.6937,7.7273,7.7273,7.7273,7.7273,7.7273,7.7273,7.72,7.6937,7.6203,7.5579,7.5285,7.4551,7.4322,7.5041,7.5119,7.5168,7.5262,7.451,7.3297,7.1561,7.1046,7.0306,6.9203,6.9494,6.9989,7.0601,7.1542,7.2011,7.2011,7.2314,7.2496,7.2496,7.2496,7.2789,7.3303,7.4111,7.4001,7.334,7.4441,7.5212,7.5763,7.657,7.7047,7.7273,7.7273,7.7273,7.7273,7.7273,7.7273,7.7273,7.7273,7.7273,7.7273,7.7273,7.7273,7.7273,7.7273,7.7273,7.7273,7.7273,7.7273,7.7273,7.7273,7.7745,7.8148,7.8148,7.7708,7.7273,7.7273,7.7273,7.7273,7.7273,7.7273,7.7127,7.6607,7.6974,7.709,7.6607,7.698,7.7273,7.7273,7.7273,7.7273,7.7273,7.7273,7.7273,7.7273,7.7273,7.7273,7.7273,7.7273,7.7273,7.7273,7.7273,7.7273,7.7273,7.7273,7.7273,7.7273,7.7273,7.7273,5.5721,5.8055,6.0933,6.2682,6.5022,6.7724,7.0909,7.2724,7.4147,7.5763,7.6533,7.698,7.7237,7.7273,7.7273,7.7273,7.7273,7.7273,7.7273,7.6607,7.6093,7.6093,7.5395,7.5212,7.6019,7.6093,7.6141,7.629,7.5317,7.4052,7.2584,7.1757,7.1139,7.0671,7.0635,7.0966,7.1573,7.2197,7.2496,7.2496,7.2496,7.2496,7.2496,7.2789,7.3193,7.3744,7.4551,7.4588,7.4184,7.4992,7.5616,7.6166,7.6717,7.7053,7.7273,7.7273,7.7273,7.7273,7.7273,7.7273,7.7273,7.7273,7.7273,7.7273,7.7273,7.7273,7.7273,7.7273,7.7494,7.7745,7.7745,7.7965,7.8148,7.8148,7.8589,7.8993,7.8993,7.8552,7.8148,7.8148,7.8148,7.8148,7.8148,7.8148,7.7965,7.7414,7.7818,7.7965,7.7414,7.7818,7.8148,7.8148,7.8148,7.8148,7.8148,7.8148,7.8148,7.8148,7.8148,7.8038,7.7781,7.7745,7.7598,7.731,7.7273,7.7273,7.7273,7.7273,7.7273,7.7273,7.7273,7.7273,0.0,0.0,0.0,5.8552,6.095,6.4007,6.8703,7.0476,7.2063,7.5322,7.6019,7.6276,7.7127,7.7273,7.7273,7.7273,7.7273,7.7273,7.7273,7.6644,7.613,7.613,7.5469,7.5285,7.6056,7.613,7.646,7.7237,7.5806,7.4549,7.3573,7.2887,7.2496,7.2496,7.2496,7.2496,7.2496,7.2496,7.2496,7.2496,7.2496,7.2496,7.2532,7.334,7.3707,7.378,7.4588,7.4955,7.5028,7.5799,7.613,7.613,7.613,7.6607,7.7273,7.7273,7.7273,7.7273,7.7273,7.7273,7.7273,7.7273,7.7273,7.7273,7.7273,7.731,7.7347,7.7347,7.7965,7.8626,7.8626,7.9213,7.98,7.98,7.98,7.9869,7.9869,7.9837,7.9837,7.98,7.98,7.98,7.98,7.98,7.9764,7.9764,7.9764,7.9764,7.9764,7.9764,7.9764,7.98,7.98,7.98,7.98,7.98,7.98,7.98,7.98,7.9433,7.8662,7.8589,7.8222,7.7347,7.731,7.7273,7.7273,7.7273,7.7273,7.7273,7.7273,7.7273,5.3518,0.0,0.0,0.0,0.0,0.0,6.4029,6.5946,6.8189,7.2592,7.3964,7.4955,7.6943,7.7273,7.7273,7.7273,7.7273,7.7273,7.7273,7.709,7.6974,7.6974,7.676,7.6723,7.6974,7.6974,7.7053,7.7273,7.635,7.5415,7.4549,7.3223,7.2496,7.2496,7.2496,7.2496,7.2496,7.2496,7.2496,7.2496,7.2496,7.2496,7.2532,7.334,7.4001,7.4625,7.5432,7.6093,7.6613,7.624,7.646,7.6974,7.6974,7.709,7.7273,7.7273,7.7273,7.7273,7.7273,7.7273,7.7273,7.7273,7.7273,7.7273,7.7273,7.7745,7.8259,7.8259,7.8809,7.947,7.947,7.9617,7.98,7.98,8.0241,8.0681,8.0681,8.1122,8.1195,8.0021,7.98,7.98,7.98,7.98,7.958,7.9029,7.8919,7.8919,7.8919,7.8919,7.914,7.9727,7.98,7.98,7.98,7.98,7.98,7.98,7.98,7.969,7.947,7.8919,7.8479,7.8259,7.7604,7.7273,7.7273,7.7273,7.7273,7.7273,7.7273,7.7273,5.3518,0.0,0.0,5.551,0.0,0.0,6.1965,6.41,6.6562,7.1016,7.2621,7.3817,7.5916,7.6283,7.6393,7.6754,7.7053,7.742,7.7818,7.753,7.753,7.8259,7.7714,7.742,7.7818,7.7494,7.7273,7.7273,7.657,7.5616,7.4478,7.3523,7.2863,7.2496,7.2496,7.2496,7.2496,7.2496,7.2496,7.2496,7.2496,7.2679,7.3046,7.3817,7.4661,7.5469,7.6276,7.69,7.7237,7.679,7.69,7.7273,7.7273,7.7273,7.7273,7.7273,7.7273,7.7273,7.7273,7.7273,7.7347,7.7745,7.7855,7.7928,7.8259,7.8699,7.9103,7.9103,7.969,8.0388,8.0718,8.0791,8.0791,8.0791,8.1158,8.1489,8.1489,8.1856,8.1929,8.0975,8.0791,8.0791,8.0791,8.0791,8.0645,8.0167,8.0094,8.0094,8.0094,8.0094,8.0277,8.0755,8.0791,8.0791,8.0791,8.0791,8.0791,8.0791,8.0791,8.0645,8.0314,7.9837,7.9286,7.8589,7.8112,7.7671,7.7273,7.7273,7.7273,7.7273,7.7273,7.7273,5.3518,5.3518,0.0,5.5141,5.5482,0.0,6.0947,6.3222,6.5514,6.957,7.1096,7.2262,7.4045,7.4441,7.4735,7.5322,7.635,7.7384,7.8442,7.7928,7.8038,7.958,7.8479,7.7855,7.8516,7.7892,7.7384,7.731,7.657,7.5469,7.4037,7.3891,7.345,7.2679,7.2642,7.2606,7.2496,7.2496,7.2496,7.2496,7.2606,7.301,7.3707,7.4625,7.5432,7.613,7.6974,7.7273,7.7273,7.7273,7.7273,7.7273,7.7273,7.7273,7.7273,7.7273,7.7273,7.731,7.7384,7.742,7.7567,7.8442,7.8736,7.8883,7.958,7.9837,7.9947,8.0021,8.0571,8.1305,8.2003,8.2186,8.2186,8.2186,8.2186,8.2186,8.2186,8.2186,8.2186,8.2186,8.2186,8.2186,8.2186,8.2186,8.2186,8.2186,8.2113,8.2113,8.2186,8.2113,8.2113,8.2186,8.2186,8.2186,8.2186,8.2186,8.2186,8.2186,8.2186,8.1893,8.1158,8.1048,8.0351,7.8883,7.8699,7.8185,7.7273,7.7273,7.7273,7.7273,7.7273,7.7273,5.3518,5.3518,5.3585,5.3856,5.3957,0.0,5.6658,5.7872,5.9867,6.4554,6.6069,6.752,7.0502,7.1578,7.1835,7.1358,7.3597,7.613,7.8295,7.8442,7.8699,7.9653,7.9507,7.9103,7.8662,7.8442,7.8075,7.7347,7.657,7.5946,7.5652,7.5028,7.4294,7.3487,7.345,7.3156,7.2496,7.2496,7.2496,7.2496,7.3156,7.356,7.3744,7.5212,7.5946,7.613,7.6974,7.7273,7.7273,7.7273,7.7273,7.7273,7.7273,7.7273,7.7273,7.7273,7.7273,7.7384,7.8112,7.8369,7.8479,7.9286,7.9543,7.958,7.9727,8.0241,8.0901,8.1525,8.1819,8.2003,8.215,8.2186,8.2186,8.2186,8.2186,8.2186,8.2186,8.2186,8.2186,8.2186,8.2186,8.2186,8.2186,8.2186,8.2186,8.2186,8.1636,8.1489,8.2113,8.1636,8.1489,8.2113,8.2186,8.2186,8.2186,8.2186,8.2186,8.2186,8.2186,8.2113,8.1966,8.1342,8.0865,8.0534,7.925,7.8185,7.7273,7.7273,7.7273,7.7273,7.7273,7.7273,5.3518,5.3518,5.3518,5.3518,5.3518,0.0,0.0,5.6665,5.8459,6.1636,6.3251,6.4693,6.6725,6.7762,6.8568,6.9376,7.1872,7.4441,7.646,7.7818,7.9029,8.0241,8.0021,7.98,7.98,7.9066,7.8259,7.7347,7.6937,7.6533,7.613,7.5359,7.4551,7.3707,7.3303,7.2899,7.2496,7.2496,7.2496,7.2496,7.3303,7.3891,7.4331,7.5542,7.6313,7.6717,7.7127,7.7273,7.7273,7.7273,7.7273,7.7273,7.7273,7.7273,7.7273,7.7273,7.7273,7.742,7.8295,7.8589,7.8809,8.0021,8.0388,8.0461,8.0865,8.1269,8.1672,8.2076,8.2186,8.2186,8.2186,8.2186,8.2186,8.2186,8.2186,8.2186,8.2186,8.2186,8.2186,8.2186,8.2186,8.2186,8.2186,8.2186,8.2186,8.2186,8.1856,8.1746,8.215,8.1856,8.1746,8.215,8.2186,8.2186,8.2186,8.2186,8.2186,8.2186,8.2186,8.2186,8.2186,8.1819,8.1415,8.1012,7.98,7.8993,7.8552,7.8552,7.8112,7.7273,7.7273,7.7273,5.3923,5.3822,5.3721,5.3721,5.3619,5.3822,0.0,0.0,0.0,5.9314,6.0755,6.2033,6.2996,6.3821,6.5034,6.7146,6.9669,7.1835,7.3303,7.5763,7.8185,8.0277,8.0094,8.0057,8.0718,7.9286,7.8148,7.7567,7.7237,7.679,7.613,7.5469,7.4698,7.3707,7.3083,7.2679,7.2496,7.2496,7.2569,7.2753,7.356,7.4368,7.5175,7.5983,7.668,7.7273,7.7273,7.7273,7.7273,7.7273,7.7273,7.7273,7.7273,7.7273,7.7273,7.7273,7.7384,7.764,7.8516,7.8919,7.9286,8.0755,8.1232,8.1342,8.2003,8.2186,8.2186,8.2186,8.2186,8.2186,8.2186,8.2186,8.2186,8.2186,8.2186,8.2186,8.2186,8.2186,8.2186,8.2186,8.2186,8.2186,8.2186,8.2186,8.2186,8.2186,8.2186,8.2186,8.2186,8.2186,8.2186,8.2186,8.2186,8.2186,8.2186,8.2186,8.2186,8.2186,8.2186,8.2186,8.2186,8.2186,8.1819,8.1012,8.0351,7.9947,7.98,7.98,7.9103,7.7781,7.7781,7.7781,5.548,5.4972,5.4465,5.4465,5.3991,5.3551,5.3721,0.0,5.528,5.6139,0.0,5.8062,5.9564,0.0,0.0,6.229,6.5081,6.7504,6.8385,7.1211,7.4625,7.8405,7.9396,7.9869,7.991,7.8442,7.7745,7.8405,7.7084,7.6203,7.6093,7.6019,7.5285,7.3744,7.3597,7.323,7.2496,7.2496,7.2863,7.356,7.4368,7.5212,7.5983,7.6827,7.72,7.7273,7.7273,7.7273,7.7273,7.7273,7.7273,7.7273,7.7273,7.7273,7.7273,7.7273,7.7818,7.8552,7.936,8.0131,8.0901,8.1782,8.2039,8.2076,8.215,8.2186,8.2186,8.2186,8.2186,8.2186,8.2186,8.2186,8.2186,8.2186,8.2186,8.2186,8.2186,8.2186,8.2186,8.2186,8.2186,8.2186,8.2186,8.2186,8.2186,8.2186,8.2186,8.2186,8.2186,8.2186,8.2186,8.2186,8.2186,8.2186,8.2186,8.2186,8.2186,8.2186,8.2186,8.2186,8.2186,8.2186,8.1819,8.1012,8.0901,8.0498,7.98,7.98,7.969,7.9507,7.9507,7.9507,5.5681,5.548,5.5141,5.4702,5.4363,5.4025,5.3585,5.3754,5.4059,5.4392,0.0,0.0,0.0,0.0,0.0,0.0,6.3711,6.6072,6.688,6.9376,7.2275,7.5395,7.6056,7.624,7.624,7.646,7.6754,7.7121,7.6056,7.5616,7.6093,7.5212,7.4404,7.3707,7.323,7.3083,7.3193,7.3193,7.3597,7.4404,7.5212,7.5763,7.613,7.6907,7.7273,7.7273,7.7273,7.7273,7.7273,7.7273,7.7273,7.7273,7.7273,7.7273,7.7347,7.7892,7.8295,7.8772,8.0057,8.0718,8.1122,8.1929,8.2186,8.2186,8.2186,8.2186,8.2186,8.2186,8.2186,8.2186,8.2186,8.2186,8.2186,8.2186,8.2186,8.2186,8.2186,8.2186,8.2186,8.2186,8.2186,8.2186,8.2186,8.2186,8.2186,8.2186,8.2186,8.2186,8.2186,8.2186,8.2186,8.2186,8.2186,8.2186,8.2186,8.2186,8.2186,8.2186,8.2186,8.2186,8.2186,8.2186,8.2039,8.1709,8.1709,8.1525,8.1195,8.1195,8.1195,8.1158,8.0204,7.98,5.6562,5.6325,5.5886,5.5344,5.4905,5.4397,5.3687,5.3653,5.3788,5.3788,5.4392,0.0,0.0,0.0,5.8272,5.9893,0.0,6.4317,6.534,6.7212,6.9412,7.2055,7.2973,7.345,7.367,7.4551,7.5285,7.5726,7.4845,7.4588,7.5395,7.4551,7.3927,7.3707,7.312,7.312,7.367,7.3707,7.4111,7.4918,7.5726,7.624,7.646,7.7017,7.7273,7.7273,7.7273,7.7273,7.7273,7.7273,7.7273,7.7273,7.7273,7.742,7.7745,7.8369,7.8736,7.914,8.0534,8.1158,8.1415,8.2003,8.2186,8.2186,8.2186,8.2186,8.2186,8.2186,8.2186,8.2186,8.2186,8.2186,8.2186,8.2186,8.2186,8.2186,8.2186,8.2186,8.2186,8.2186,8.2186,8.2186,8.2186,8.2186,8.2186,8.2186,8.2186,8.2186,8.2186,8.2186,8.2186,8.2186,8.2186,8.2186,8.2186,8.2186,8.2186,8.2186,8.2186,8.2186,8.2186,8.2186,8.2186,8.2186,8.2186,8.2186,8.2186,8.2186,8.2186,8.215,8.0975,8.0461,5.8727,5.7848,5.6765,5.6731,5.5649,5.4397,5.3687,5.4059,5.4566,5.4566,5.5176,5.5859,5.6595,5.6789,0.0,0.0,5.9974,0.0,0.0,6.3709,6.5485,6.8678,7.1138,7.2826,7.3597,7.3046,7.3266,7.4845,7.3487,7.2936,7.3707,7.4478,7.4515,7.3707,7.367,7.367,7.3707,7.3707,7.4111,7.4918,7.5726,7.6533,7.7237,7.7273,7.7273,7.7273,7.7273,7.7273,7.7273,7.7273,7.7273,7.7273,7.7273,7.7818,7.8552,7.8589,7.9066,7.9874,8.0718,8.1525,8.215,8.2186,8.2186,8.2186,8.2186,8.2186,8.2186,8.2186,8.2186,8.2186,8.2186,8.2186,8.2186,8.2186,8.2186,8.2186,8.2186,8.2186,8.2186,8.2186,8.2186,8.2186,8.2186,8.2186,8.2186,8.2186,8.2186,8.2186,8.2186,8.2186,8.2186,8.2186,8.2186,8.2186,8.2186,8.2186,8.2186,8.2186,8.2186,8.2186,8.2186,8.2186,8.2186,8.2186,8.2186,8.2186,8.2186,8.2186,8.2186,8.2186,8.215,8.2113,5.893,5.866,5.8152,5.7645,5.6427,5.5141,5.4397,5.4397,5.4735,5.5243,5.5547,5.5922,5.6643,5.7224,0.0,0.0,0.0,0.0,0.0,6.2735,6.4053,6.6256,6.8164,6.9412,6.9706,7.044,7.1358,7.2459,7.1541,7.1505,7.2826,7.3156,7.3413,7.367,7.4221,7.4771,7.5285,7.5285,7.5689,7.6466,7.676,7.7017,7.7273,7.7273,7.7273,7.7273,7.7273,7.7273,7.7273,7.7273,7.7273,7.7273,7.7273,7.7855,7.8662,7.9176,7.991,8.0718,8.1525,8.1966,8.2186,8.2186,8.2186,8.2186,8.2186,8.2186,8.2186,8.2186,8.2186,8.2186,8.2186,8.2186,8.2186,8.2186,8.2186,8.2186,8.2186,8.2186,8.2186,8.2186,8.2186,8.2186,8.2186,8.2186,8.2186,8.2186,8.2186,8.2186,8.2186,8.2186,8.2186,8.2186,8.2186,8.2186,8.2186,8.2186,8.2186,8.2186,8.2186,8.2186,8.2186,8.2186,8.2186,8.2186,8.2186,8.2186,8.2186,8.2186,8.2186,8.2186,8.2186,8.2186,5.9742,5.9607,5.9302,5.8795,5.778,5.6697,5.5919,5.5987,5.6359,5.7137,5.707,5.7205,5.822,5.818,5.805,0.0,0.0,0.0,0.0,6.2553,6.3759,6.5154,6.6219,6.7173,6.8017,6.8531,6.9376,7.077,6.9853,6.9926,7.1578,7.2459,7.3156,7.367,7.4771,7.5579,7.6093,7.6093,7.635,7.69,7.7163,7.7273,7.7273,7.7273,7.7273,7.7273,7.7273,7.7273,7.7273,7.7273,7.7273,7.731,7.764,7.8295,7.9066,7.958,8.0498,8.1489,8.2003,8.2186,8.2186,8.2186,8.2186,8.2186,8.2186,8.2186,8.2186,8.2186,8.2186,8.2186,8.2186,8.2186,8.2186,8.2186,8.2186,8.2186,8.2186,8.2186,8.2186,8.2186,8.2186,8.2186,8.2186,8.2186,8.2186,8.2186,8.2186,8.2186,8.2186,8.2186,8.2186,8.2186,8.2186,8.2186,8.2186,8.2186,8.2186,8.2186,8.2186,8.2186,8.2186,8.2186,8.2186,8.2186,8.2186,8.2186,8.2186,8.2186,8.2186,8.2186,8.2186,8.2186]}]]